<?xml version="1.0" encoding="UTF-8" standalone="no" ?>
<gpx xmlns="http://www.topografix.com/GPX/1/1" xmlns:xsi="http://www.w3.org/2001/XMLSchema-instance" xsi:schemaLocation="http://www.topografix.com/GPX/1/1 http://www.topografix.com/GPX/1/1/gpx.xsd" version="1.1" creator="VisuGPX - https://www.visugpx.com">
  <metadata>
    <name>Petite Routes du Soleil (projet)- Traversée des préalpes gravel Gravel - Projet</name>
    <desc><![CDATA[Projet de Traversée des Préalpes Gravel
Document de travail pour définir l'itinéraire]]></desc>
  </metadata>
  <trk>
    <name><![CDATA[PRDS VAldrome Buech Sisteron]]></name>
    <extensions>
      <line xmlns="http://www.topografix.com/GPX/gpx_style/0/2">
        <color>ff8000</color>
        <opacity>1</opacity>
        <width>10</width>
      </line>
    </extensions>
    <trkseg>
      <trkpt lat="44.4978" lon="5.5173">
        <ele>1133</ele>
        <time>2024-01-30T16:01:30Z</time>
      </trkpt>
      <trkpt lat="44.49768" lon="5.51645">
        <ele>1135</ele>
        <time>2024-01-30T16:01:42Z</time>
      </trkpt>
      <trkpt lat="44.49771" lon="5.51535">
        <ele>1140</ele>
        <time>2024-01-30T16:02:19Z</time>
      </trkpt>
      <trkpt lat="44.49764" lon="5.51492">
        <ele>1144</ele>
        <time>2024-01-30T16:02:53Z</time>
      </trkpt>
      <trkpt lat="44.49729" lon="5.51469">
        <ele>1154</ele>
        <time>2024-01-30T16:03:34Z</time>
      </trkpt>
      <trkpt lat="44.49744" lon="5.51432">
        <ele>1153</ele>
        <time>2024-01-30T16:04:23Z</time>
      </trkpt>
      <trkpt lat="44.49756" lon="5.51374">
        <ele>1160</ele>
        <time>2024-01-30T16:04:52Z</time>
      </trkpt>
      <trkpt lat="44.49752" lon="5.51273">
        <ele>1179</ele>
        <time>2024-01-30T16:05:09Z</time>
      </trkpt>
      <trkpt lat="44.49761" lon="5.51209">
        <ele>1186</ele>
        <time>2024-01-30T16:05:28Z</time>
      </trkpt>
      <trkpt lat="44.49724" lon="5.51164">
        <ele>1192</ele>
        <time>2024-01-30T16:05:45Z</time>
      </trkpt>
      <trkpt lat="44.49693" lon="5.51087">
        <ele>1200</ele>
        <time>2024-01-30T16:06:42Z</time>
      </trkpt>
      <trkpt lat="44.49684" lon="5.51003">
        <ele>1202</ele>
        <time>2024-01-30T16:07:05Z</time>
      </trkpt>
      <trkpt lat="44.49648" lon="5.50874">
        <ele>1207</ele>
        <time>2024-01-30T16:07:22Z</time>
      </trkpt>
      <trkpt lat="44.49579" lon="5.50812">
        <ele>1218</ele>
        <time>2024-01-30T16:07:37Z</time>
      </trkpt>
      <trkpt lat="44.49479" lon="5.50784">
        <ele>1235</ele>
        <time>2024-01-30T16:08:01Z</time>
      </trkpt>
      <trkpt lat="44.49444" lon="5.50722">
        <ele>1246</ele>
        <time>2024-01-30T16:08:31Z</time>
      </trkpt>
      <trkpt lat="44.49436" lon="5.50634">
        <ele>1254</ele>
        <time>2024-01-30T16:08:42Z</time>
      </trkpt>
      <trkpt lat="44.49412" lon="5.50582">
        <ele>1257</ele>
        <time>2024-01-30T16:08:52Z</time>
      </trkpt>
      <trkpt lat="44.49357" lon="5.5054">
        <ele>1256</ele>
        <time>2024-01-30T16:09:03Z</time>
      </trkpt>
      <trkpt lat="44.49315" lon="5.5054">
        <ele>1254</ele>
      </trkpt>
      <trkpt lat="44.49283" lon="5.50559">
        <ele>1255</ele>
        <time>2024-01-30T16:09:24Z</time>
      </trkpt>
      <trkpt lat="44.49247" lon="5.50559">
        <ele>1259</ele>
        <time>2024-01-30T16:09:44Z</time>
      </trkpt>
      <trkpt lat="44.49204" lon="5.5051">
        <ele>1261</ele>
        <time>2024-01-30T16:10:00Z</time>
      </trkpt>
      <trkpt lat="44.49141" lon="5.50479">
        <ele>1253</ele>
      </trkpt>
      <trkpt lat="44.49093" lon="5.50499">
        <ele>1241</ele>
        <time>2024-01-30T16:10:30Z</time>
      </trkpt>
      <trkpt lat="44.49038" lon="5.5034">
        <ele>1212</ele>
        <time>2024-01-30T16:10:38Z</time>
      </trkpt>
      <trkpt lat="44.49031" lon="5.50237">
        <ele>1199</ele>
      </trkpt>
      <trkpt lat="44.48989" lon="5.50299">
        <ele>1185</ele>
        <time>2024-01-30T16:11:23Z</time>
      </trkpt>
      <trkpt lat="44.4891" lon="5.5049">
        <ele>1158</ele>
        <time>2024-01-30T16:12:07Z</time>
      </trkpt>
      <trkpt lat="44.48844" lon="5.50552">
        <ele>1136</ele>
        <time>2024-01-30T16:12:42Z</time>
      </trkpt>
      <trkpt lat="44.48801" lon="5.50638">
        <ele>1118</ele>
        <time>2024-01-30T16:13:18Z</time>
      </trkpt>
      <trkpt lat="44.48796" lon="5.5069">
        <ele>1115</ele>
        <time>2024-01-30T16:14:28Z</time>
      </trkpt>
      <trkpt lat="44.4877" lon="5.50741">
        <ele>1101</ele>
        <time>2024-01-30T16:15:22Z</time>
      </trkpt>
      <trkpt lat="44.48735" lon="5.50756">
        <ele>1081</ele>
        <time>2024-01-30T16:15:54Z</time>
      </trkpt>
      <trkpt lat="44.487" lon="5.50842">
        <ele>1069</ele>
        <time>2024-01-30T16:16:28Z</time>
      </trkpt>
      <trkpt lat="44.4865" lon="5.50881">
        <ele>1053</ele>
        <time>2024-01-30T16:17:18Z</time>
      </trkpt>
      <trkpt lat="44.48535" lon="5.50941">
        <ele>1021</ele>
        <time>2024-01-30T16:19:17Z</time>
      </trkpt>
      <trkpt lat="44.48515" lon="5.50992">
        <ele>1014</ele>
        <time>2024-01-30T16:19:52Z</time>
      </trkpt>
      <trkpt lat="44.4851" lon="5.50937">
        <ele>1010</ele>
        <time>2024-01-30T16:21:08Z</time>
      </trkpt>
      <trkpt lat="44.48528" lon="5.5087">
        <ele>1003</ele>
        <time>2024-01-30T16:22:17Z</time>
      </trkpt>
      <trkpt lat="44.48567" lon="5.5084">
        <ele>1009</ele>
        <time>2024-01-30T16:23:14Z</time>
      </trkpt>
      <trkpt lat="44.48584" lon="5.50724">
        <ele>1002</ele>
        <time>2024-01-30T16:24:40Z</time>
      </trkpt>
      <trkpt lat="44.48579" lon="5.50666">
        <ele>998</ele>
        <time>2024-01-30T16:25:04Z</time>
      </trkpt>
      <trkpt lat="44.48607" lon="5.50572">
        <ele>1005</ele>
      </trkpt>
      <trkpt lat="44.48608" lon="5.50505">
        <ele>996</ele>
        <time>2024-01-30T16:25:27Z</time>
      </trkpt>
      <trkpt lat="44.48623" lon="5.50437">
        <ele>992</ele>
      </trkpt>
      <trkpt lat="44.4863" lon="5.50368">
        <ele>992</ele>
      </trkpt>
      <trkpt lat="44.4863" lon="5.50209">
        <ele>986</ele>
      </trkpt>
      <trkpt lat="44.48578" lon="5.50153">
        <ele>986</ele>
        <time>2024-01-30T16:26:04Z</time>
      </trkpt>
      <trkpt lat="44.48567" lon="5.50123">
        <ele>989</ele>
      </trkpt>
      <trkpt lat="44.48567" lon="5.50061">
        <ele>994</ele>
      </trkpt>
      <trkpt lat="44.48544" lon="5.49973">
        <ele>991</ele>
      </trkpt>
      <trkpt lat="44.48513" lon="5.49939">
        <ele>992</ele>
      </trkpt>
      <trkpt lat="44.48464" lon="5.49937">
        <ele>983</ele>
      </trkpt>
      <trkpt lat="44.48441" lon="5.49881">
        <ele>977</ele>
      </trkpt>
      <trkpt lat="44.48455" lon="5.49748">
        <ele>987</ele>
      </trkpt>
      <trkpt lat="44.48434" lon="5.49699">
        <ele>979</ele>
      </trkpt>
      <trkpt lat="44.48418" lon="5.49636">
        <ele>983</ele>
      </trkpt>
      <trkpt lat="44.48381" lon="5.49638">
        <ele>971</ele>
      </trkpt>
      <trkpt lat="44.48344" lon="5.49619">
        <ele>964</ele>
      </trkpt>
      <trkpt lat="44.48325" lon="5.49602">
        <ele>962</ele>
      </trkpt>
      <trkpt lat="44.48315" lon="5.49606">
        <ele>960</ele>
      </trkpt>
      <trkpt lat="44.48343" lon="5.49632">
        <ele>961</ele>
      </trkpt>
      <trkpt lat="44.48375" lon="5.49681">
        <ele>960</ele>
      </trkpt>
      <trkpt lat="44.4839" lon="5.4969">
        <ele>963</ele>
      </trkpt>
      <trkpt lat="44.48403" lon="5.49737">
        <ele>960</ele>
      </trkpt>
      <trkpt lat="44.484" lon="5.49783">
        <ele>954</ele>
      </trkpt>
      <trkpt lat="44.48382" lon="5.49851">
        <ele>945</ele>
      </trkpt>
      <trkpt lat="44.48384" lon="5.49901">
        <ele>947</ele>
      </trkpt>
      <trkpt lat="44.48376" lon="5.49953">
        <ele>943</ele>
      </trkpt>
      <trkpt lat="44.48379" lon="5.49995">
        <ele>941</ele>
      </trkpt>
      <trkpt lat="44.48402" lon="5.50073">
        <ele>936</ele>
      </trkpt>
      <trkpt lat="44.48419" lon="5.50097">
        <ele>937</ele>
      </trkpt>
      <trkpt lat="44.48426" lon="5.5015">
        <ele>933</ele>
      </trkpt>
      <trkpt lat="44.48407" lon="5.50223">
        <ele>918</ele>
      </trkpt>
      <trkpt lat="44.48429" lon="5.50258">
        <ele>915</ele>
      </trkpt>
      <trkpt lat="44.48437" lon="5.50268">
        <ele>915</ele>
      </trkpt>
      <trkpt lat="44.48437" lon="5.50304">
        <ele>912</ele>
      </trkpt>
      <trkpt lat="44.48419" lon="5.50361">
        <ele>908</ele>
      </trkpt>
      <trkpt lat="44.48416" lon="5.50411">
        <ele>911</ele>
      </trkpt>
      <trkpt lat="44.48397" lon="5.5045">
        <ele>911</ele>
      </trkpt>
      <trkpt lat="44.48351" lon="5.50519">
        <ele>905</ele>
      </trkpt>
      <trkpt lat="44.48344" lon="5.50544">
        <ele>903</ele>
      </trkpt>
      <trkpt lat="44.48367" lon="5.50627">
        <ele>905</ele>
      </trkpt>
      <trkpt lat="44.48358" lon="5.50666">
        <ele>902</ele>
      </trkpt>
      <trkpt lat="44.48364" lon="5.50718">
        <ele>905</ele>
      </trkpt>
      <trkpt lat="44.48356" lon="5.50736">
        <ele>905</ele>
      </trkpt>
      <trkpt lat="44.48326" lon="5.50762">
        <ele>905</ele>
      </trkpt>
      <trkpt lat="44.48306" lon="5.5081">
        <ele>906</ele>
      </trkpt>
      <trkpt lat="44.48298" lon="5.50832">
        <ele>908</ele>
      </trkpt>
      <trkpt lat="44.48274" lon="5.5086">
        <ele>907</ele>
      </trkpt>
      <trkpt lat="44.48252" lon="5.509">
        <ele>910</ele>
      </trkpt>
      <trkpt lat="44.48246" lon="5.50935">
        <ele>912</ele>
      </trkpt>
      <trkpt lat="44.48252" lon="5.50975">
        <ele>914</ele>
      </trkpt>
      <trkpt lat="44.48252" lon="5.51002">
        <ele>911</ele>
      </trkpt>
      <trkpt lat="44.48264" lon="5.51038">
        <ele>909</ele>
      </trkpt>
      <trkpt lat="44.48275" lon="5.51073">
        <ele>907</ele>
      </trkpt>
      <trkpt lat="44.4827" lon="5.51107">
        <ele>901</ele>
      </trkpt>
      <trkpt lat="44.48273" lon="5.51133">
        <ele>902</ele>
      </trkpt>
      <trkpt lat="44.48262" lon="5.51172">
        <ele>903</ele>
      </trkpt>
      <trkpt lat="44.48254" lon="5.51177">
        <ele>901</ele>
      </trkpt>
      <trkpt lat="44.48232" lon="5.51171">
        <ele>892</ele>
      </trkpt>
      <trkpt lat="44.48186" lon="5.512">
        <ele>885</ele>
      </trkpt>
      <trkpt lat="44.48164" lon="5.51221">
        <ele>882</ele>
      </trkpt>
      <trkpt lat="44.48144" lon="5.51257">
        <ele>884</ele>
      </trkpt>
      <trkpt lat="44.48139" lon="5.51247">
        <ele>880</ele>
      </trkpt>
      <trkpt lat="44.48168" lon="5.51188">
        <ele>874</ele>
      </trkpt>
      <trkpt lat="44.48178" lon="5.51145">
        <ele>866</ele>
      </trkpt>
      <trkpt lat="44.48194" lon="5.51126">
        <ele>869</ele>
      </trkpt>
      <trkpt lat="44.48194" lon="5.51116">
        <ele>867</ele>
      </trkpt>
      <trkpt lat="44.48187" lon="5.51114">
        <ele>864</ele>
      </trkpt>
      <trkpt lat="44.48174" lon="5.51132">
        <ele>862</ele>
      </trkpt>
      <trkpt lat="44.48101" lon="5.51207">
        <ele>855</ele>
      </trkpt>
      <trkpt lat="44.4807" lon="5.51225">
        <ele>848</ele>
      </trkpt>
      <trkpt lat="44.48061" lon="5.51236">
        <ele>846</ele>
      </trkpt>
      <trkpt lat="44.48062" lon="5.51301">
        <ele>849</ele>
      </trkpt>
      <trkpt lat="44.48055" lon="5.51338">
        <ele>846</ele>
      </trkpt>
      <trkpt lat="44.48036" lon="5.51362">
        <ele>840</ele>
      </trkpt>
      <trkpt lat="44.48028" lon="5.51406">
        <ele>836</ele>
      </trkpt>
      <trkpt lat="44.48029" lon="5.51433">
        <ele>837</ele>
      </trkpt>
      <trkpt lat="44.48012" lon="5.51478">
        <ele>833</ele>
      </trkpt>
      <trkpt lat="44.47982" lon="5.51539">
        <ele>826</ele>
      </trkpt>
      <trkpt lat="44.47982" lon="5.51577">
        <ele>828</ele>
      </trkpt>
      <trkpt lat="44.47978" lon="5.51601">
        <ele>827</ele>
      </trkpt>
      <trkpt lat="44.47931" lon="5.51623">
        <ele>818</ele>
      </trkpt>
      <trkpt lat="44.47909" lon="5.51661">
        <ele>820</ele>
      </trkpt>
      <trkpt lat="44.47863" lon="5.51732">
        <ele>817</ele>
      </trkpt>
      <trkpt lat="44.47855" lon="5.51723">
        <ele>817</ele>
      </trkpt>
      <trkpt lat="44.47855" lon="5.51704">
        <ele>816</ele>
      </trkpt>
      <trkpt lat="44.47898" lon="5.51607">
        <ele>808</ele>
      </trkpt>
      <trkpt lat="44.47905" lon="5.51567">
        <ele>804</ele>
      </trkpt>
      <trkpt lat="44.47887" lon="5.51516">
        <ele>800</ele>
      </trkpt>
      <trkpt lat="44.47882" lon="5.51494">
        <ele>802</ele>
      </trkpt>
      <trkpt lat="44.47888" lon="5.51447">
        <ele>795</ele>
      </trkpt>
      <trkpt lat="44.47886" lon="5.51347">
        <ele>788</ele>
      </trkpt>
      <trkpt lat="44.47872" lon="5.51234">
        <ele>783</ele>
      </trkpt>
      <trkpt lat="44.4785" lon="5.51193">
        <ele>776</ele>
      </trkpt>
      <trkpt lat="44.47832" lon="5.51179">
        <ele>775</ele>
      </trkpt>
      <trkpt lat="44.47825" lon="5.5116">
        <ele>773</ele>
      </trkpt>
      <trkpt lat="44.47763" lon="5.51062">
        <ele>767</ele>
      </trkpt>
      <trkpt lat="44.47712" lon="5.51033">
        <ele>761</ele>
      </trkpt>
      <trkpt lat="44.47664" lon="5.50969">
        <ele>758</ele>
      </trkpt>
      <trkpt lat="44.47641" lon="5.50919">
        <ele>753</ele>
      </trkpt>
      <trkpt lat="44.47594" lon="5.50796">
        <ele>746</ele>
      </trkpt>
      <trkpt lat="44.47557" lon="5.50749">
        <ele>744</ele>
      </trkpt>
      <trkpt lat="44.47522" lon="5.50728">
        <ele>741</ele>
      </trkpt>
      <trkpt lat="44.47419" lon="5.50712">
        <ele>733</ele>
      </trkpt>
      <trkpt lat="44.47398" lon="5.50701">
        <ele>732</ele>
      </trkpt>
      <trkpt lat="44.47306" lon="5.50727">
        <ele>724</ele>
      </trkpt>
      <trkpt lat="44.47273" lon="5.50746">
        <ele>724</ele>
      </trkpt>
      <trkpt lat="44.47231" lon="5.50744">
        <ele>720</ele>
      </trkpt>
      <trkpt lat="44.4719" lon="5.50752">
        <ele>716</ele>
      </trkpt>
      <trkpt lat="44.47151" lon="5.50785">
        <ele>714</ele>
      </trkpt>
      <trkpt lat="44.47128" lon="5.5081">
        <ele>713</ele>
      </trkpt>
      <trkpt lat="44.47109" lon="5.50822">
        <ele>711</ele>
      </trkpt>
      <trkpt lat="44.47089" lon="5.50865">
        <ele>712</ele>
      </trkpt>
      <trkpt lat="44.47053" lon="5.50903">
        <ele>710</ele>
      </trkpt>
      <trkpt lat="44.46979" lon="5.50919">
        <ele>702</ele>
      </trkpt>
      <trkpt lat="44.46917" lon="5.50905">
        <ele>697</ele>
      </trkpt>
      <trkpt lat="44.46844" lon="5.51023">
        <ele>698</ele>
      </trkpt>
      <trkpt lat="44.46815" lon="5.51057">
        <ele>696</ele>
      </trkpt>
      <trkpt lat="44.46811" lon="5.51119">
        <ele>698</ele>
      </trkpt>
      <trkpt lat="44.46766" lon="5.51303">
        <ele>698</ele>
      </trkpt>
      <trkpt lat="44.46771" lon="5.51399">
        <ele>700</ele>
      </trkpt>
      <trkpt lat="44.46752" lon="5.51454">
        <ele>701</ele>
      </trkpt>
      <trkpt lat="44.46749" lon="5.5149">
        <ele>702</ele>
      </trkpt>
      <trkpt lat="44.46756" lon="5.51534">
        <ele>703</ele>
      </trkpt>
      <trkpt lat="44.46705" lon="5.51671">
        <ele>704</ele>
      </trkpt>
      <trkpt lat="44.46655" lon="5.51762">
        <ele>706</ele>
      </trkpt>
      <trkpt lat="44.46582" lon="5.51825">
        <ele>705</ele>
      </trkpt>
      <trkpt lat="44.4652" lon="5.51917">
        <ele>709</ele>
      </trkpt>
      <trkpt lat="44.46434" lon="5.52138">
        <ele>715</ele>
      </trkpt>
      <trkpt lat="44.46403" lon="5.52183">
        <ele>716</ele>
      </trkpt>
      <trkpt lat="44.46366" lon="5.52227">
        <ele>715</ele>
      </trkpt>
      <trkpt lat="44.46321" lon="5.52235">
        <ele>715</ele>
      </trkpt>
      <trkpt lat="44.46194" lon="5.52366">
        <ele>720</ele>
      </trkpt>
      <trkpt lat="44.46066" lon="5.52501">
        <ele>724</ele>
      </trkpt>
      <trkpt lat="44.46004" lon="5.52651">
        <ele>728</ele>
      </trkpt>
      <trkpt lat="44.45943" lon="5.52746">
        <ele>728</ele>
      </trkpt>
      <trkpt lat="44.45805" lon="5.52902">
        <ele>731</ele>
      </trkpt>
      <trkpt lat="44.45651" lon="5.53085">
        <ele>735</ele>
      </trkpt>
      <trkpt lat="44.45504" lon="5.5325">
        <ele>743</ele>
      </trkpt>
      <trkpt lat="44.4537" lon="5.53387">
        <ele>745</ele>
      </trkpt>
      <trkpt lat="44.45306" lon="5.53445">
        <ele>747</ele>
      </trkpt>
      <trkpt lat="44.45211" lon="5.53556">
        <ele>750</ele>
      </trkpt>
      <trkpt lat="44.4516" lon="5.5364">
        <ele>752</ele>
      </trkpt>
      <trkpt lat="44.45141" lon="5.53706">
        <ele>755</ele>
      </trkpt>
      <trkpt lat="44.45118" lon="5.53988">
        <ele>769</ele>
      </trkpt>
      <trkpt lat="44.45105" lon="5.54035">
        <ele>772</ele>
      </trkpt>
      <trkpt lat="44.45088" lon="5.54095">
        <ele>776</ele>
      </trkpt>
      <trkpt lat="44.45073" lon="5.5414">
        <ele>779</ele>
      </trkpt>
      <trkpt lat="44.45038" lon="5.54253">
        <ele>777</ele>
      </trkpt>
      <trkpt lat="44.45019" lon="5.5431">
        <ele>775</ele>
        <time>2024-01-30T17:08:21Z</time>
      </trkpt>
      <trkpt lat="44.45017" lon="5.54314">
        <ele>775</ele>
      </trkpt>
      <trkpt lat="44.45017" lon="5.54315">
        <ele>775</ele>
      </trkpt>
      <trkpt lat="44.45014" lon="5.54322">
        <ele>775</ele>
        <time>2024-01-30T17:08:22Z</time>
      </trkpt>
      <trkpt lat="44.45011" lon="5.54331">
        <ele>775</ele>
        <time>2024-01-30T17:08:23Z</time>
      </trkpt>
      <trkpt lat="44.44976" lon="5.54414">
        <ele>777</ele>
        <time>2024-01-30T17:08:35Z</time>
      </trkpt>
      <trkpt lat="44.44949" lon="5.54468">
        <ele>779</ele>
        <time>2024-01-30T17:08:49Z</time>
      </trkpt>
      <trkpt lat="44.4493" lon="5.54501">
        <ele>780</ele>
        <time>2024-01-30T17:09:00Z</time>
      </trkpt>
      <trkpt lat="44.44915" lon="5.5453">
        <ele>780</ele>
        <time>2024-01-30T17:09:10Z</time>
      </trkpt>
      <trkpt lat="44.44911" lon="5.54545">
        <ele>781</ele>
        <time>2024-01-30T17:09:16Z</time>
      </trkpt>
      <trkpt lat="44.449" lon="5.54623">
        <ele>782</ele>
        <time>2024-01-30T17:09:43Z</time>
      </trkpt>
      <trkpt lat="44.44894" lon="5.54647">
        <ele>783</ele>
        <time>2024-01-30T17:09:53Z</time>
      </trkpt>
      <trkpt lat="44.44859" lon="5.54754">
        <ele>792</ele>
        <time>2024-01-30T17:10:41Z</time>
      </trkpt>
      <trkpt lat="44.44851" lon="5.54767">
        <ele>794</ele>
        <time>2024-01-30T17:10:49Z</time>
      </trkpt>
      <trkpt lat="44.44828" lon="5.54877">
        <ele>808</ele>
        <time>2024-01-30T17:11:50Z</time>
      </trkpt>
      <trkpt lat="44.44821" lon="5.54904">
        <ele>814</ele>
        <time>2024-01-30T17:12:05Z</time>
      </trkpt>
      <trkpt lat="44.44817" lon="5.5491">
        <ele>815</ele>
        <time>2024-01-30T17:12:10Z</time>
      </trkpt>
      <trkpt lat="44.44798" lon="5.54914">
        <ele>818</ele>
        <time>2024-01-30T17:12:23Z</time>
      </trkpt>
      <trkpt lat="44.44781" lon="5.54922">
        <ele>819</ele>
        <time>2024-01-30T17:12:36Z</time>
      </trkpt>
      <trkpt lat="44.44767" lon="5.54938">
        <ele>821</ele>
        <time>2024-01-30T17:12:48Z</time>
      </trkpt>
      <trkpt lat="44.44748" lon="5.54979">
        <ele>824</ele>
        <time>2024-01-30T17:13:09Z</time>
      </trkpt>
      <trkpt lat="44.44738" lon="5.55009">
        <ele>827</ele>
        <time>2024-01-30T17:13:24Z</time>
      </trkpt>
      <trkpt lat="44.44698" lon="5.55042">
        <ele>832</ele>
        <time>2024-01-30T17:13:42Z</time>
      </trkpt>
      <trkpt lat="44.4469" lon="5.55053">
        <ele>832</ele>
        <time>2024-01-30T17:13:46Z</time>
      </trkpt>
      <trkpt lat="44.44686" lon="5.55066">
        <ele>833</ele>
        <time>2024-01-30T17:13:50Z</time>
      </trkpt>
      <trkpt lat="44.44658" lon="5.55071">
        <ele>832</ele>
        <time>2024-01-30T17:13:58Z</time>
      </trkpt>
      <trkpt lat="44.44635" lon="5.55087">
        <ele>829</ele>
        <time>2024-01-30T17:14:05Z</time>
      </trkpt>
      <trkpt lat="44.44636" lon="5.55093">
        <ele>831</ele>
        <time>2024-01-30T17:14:07Z</time>
      </trkpt>
      <trkpt lat="44.44632" lon="5.55107">
        <ele>831</ele>
        <time>2024-01-30T17:14:11Z</time>
      </trkpt>
      <trkpt lat="44.44609" lon="5.55128">
        <ele>830</ele>
        <time>2024-01-30T17:14:20Z</time>
      </trkpt>
      <trkpt lat="44.446" lon="5.5514">
        <ele>829</ele>
        <time>2024-01-30T17:14:24Z</time>
      </trkpt>
      <trkpt lat="44.44593" lon="5.55138">
        <ele>829</ele>
        <time>2024-01-30T17:14:26Z</time>
      </trkpt>
      <trkpt lat="44.44586" lon="5.55123">
        <ele>825</ele>
        <time>2024-01-30T17:14:30Z</time>
      </trkpt>
      <trkpt lat="44.44574" lon="5.55131">
        <ele>823</ele>
        <time>2024-01-30T17:14:33Z</time>
      </trkpt>
      <trkpt lat="44.44548" lon="5.55147">
        <ele>823</ele>
        <time>2024-01-30T17:14:38Z</time>
      </trkpt>
      <trkpt lat="44.44527" lon="5.5516">
        <ele>823</ele>
        <time>2024-01-30T17:14:43Z</time>
      </trkpt>
      <trkpt lat="44.44491" lon="5.55176">
        <ele>821</ele>
        <time>2024-01-30T17:14:51Z</time>
      </trkpt>
      <trkpt lat="44.44485" lon="5.55194">
        <ele>821</ele>
        <time>2024-01-30T17:14:53Z</time>
      </trkpt>
      <trkpt lat="44.44451" lon="5.55299">
        <ele>823</ele>
        <time>2024-01-30T17:15:14Z</time>
      </trkpt>
      <trkpt lat="44.44423" lon="5.55349">
        <ele>823</ele>
        <time>2024-01-30T17:15:29Z</time>
      </trkpt>
      <trkpt lat="44.44391" lon="5.55407">
        <ele>824</ele>
        <time>2024-01-30T17:15:50Z</time>
      </trkpt>
      <trkpt lat="44.4439" lon="5.55436">
        <ele>825</ele>
        <time>2024-01-30T17:16:27Z</time>
      </trkpt>
      <trkpt lat="44.44379" lon="5.55473">
        <ele>826</ele>
        <time>2024-01-30T17:16:43Z</time>
      </trkpt>
      <trkpt lat="44.44378" lon="5.55518">
        <ele>826</ele>
        <time>2024-01-30T17:17:05Z</time>
      </trkpt>
      <trkpt lat="44.44396" lon="5.55549">
        <ele>827</ele>
        <time>2024-01-30T17:17:19Z</time>
      </trkpt>
      <trkpt lat="44.44406" lon="5.55562">
        <ele>828</ele>
      </trkpt>
      <trkpt lat="44.44408" lon="5.55579">
        <ele>828</ele>
      </trkpt>
      <trkpt lat="44.44406" lon="5.55623">
        <ele>829</ele>
      </trkpt>
      <trkpt lat="44.44383" lon="5.55682">
        <ele>830</ele>
      </trkpt>
      <trkpt lat="44.4437" lon="5.55751">
        <ele>832</ele>
      </trkpt>
      <trkpt lat="44.44367" lon="5.5585">
        <ele>835</ele>
      </trkpt>
      <trkpt lat="44.4436" lon="5.55865">
        <ele>834</ele>
      </trkpt>
      <trkpt lat="44.44352" lon="5.55873">
        <ele>834</ele>
      </trkpt>
      <trkpt lat="44.44337" lon="5.55877">
        <ele>834</ele>
      </trkpt>
      <trkpt lat="44.44326" lon="5.55869">
        <ele>840</ele>
      </trkpt>
      <trkpt lat="44.44322" lon="5.55847">
        <ele>843</ele>
      </trkpt>
      <trkpt lat="44.44334" lon="5.55794">
        <ele>840</ele>
      </trkpt>
      <trkpt lat="44.44334" lon="5.55749">
        <ele>842</ele>
      </trkpt>
      <trkpt lat="44.44325" lon="5.55722">
        <ele>842</ele>
      </trkpt>
      <trkpt lat="44.44297" lon="5.55712">
        <ele>847</ele>
      </trkpt>
      <trkpt lat="44.44244" lon="5.55718">
        <ele>853</ele>
      </trkpt>
      <trkpt lat="44.4422" lon="5.5574">
        <ele>856</ele>
        <time>2024-01-30T17:17:59Z</time>
      </trkpt>
      <trkpt lat="44.44185" lon="5.55761">
        <ele>856</ele>
      </trkpt>
      <trkpt lat="44.4416" lon="5.55761">
        <ele>854</ele>
        <time>2024-01-30T17:18:19Z</time>
      </trkpt>
      <trkpt lat="44.44139" lon="5.55772">
        <ele>854</ele>
        <time>2024-01-30T17:18:38Z</time>
      </trkpt>
      <trkpt lat="44.44123" lon="5.55793">
        <ele>859</ele>
        <time>2024-01-30T17:18:45Z</time>
      </trkpt>
      <trkpt lat="44.44098" lon="5.55812">
        <ele>863</ele>
        <time>2024-01-30T17:18:58Z</time>
      </trkpt>
      <trkpt lat="44.44079" lon="5.55821">
        <ele>865</ele>
        <time>2024-01-30T17:19:30Z</time>
      </trkpt>
      <trkpt lat="44.44052" lon="5.5578">
        <ele>861</ele>
        <time>2024-01-30T17:19:35Z</time>
      </trkpt>
      <trkpt lat="44.44042" lon="5.55747">
        <ele>862</ele>
        <time>2024-01-30T17:19:48Z</time>
      </trkpt>
      <trkpt lat="44.44016" lon="5.55758">
        <ele>864</ele>
        <time>2024-01-30T17:20:05Z</time>
      </trkpt>
      <trkpt lat="44.43972" lon="5.55766">
        <ele>868</ele>
        <time>2024-01-30T17:20:33Z</time>
      </trkpt>
      <trkpt lat="44.43963" lon="5.5577">
        <ele>869</ele>
        <time>2024-01-30T17:20:39Z</time>
      </trkpt>
      <trkpt lat="44.43923" lon="5.55806">
        <ele>874</ele>
        <time>2024-01-30T17:21:07Z</time>
      </trkpt>
      <trkpt lat="44.43915" lon="5.55826">
        <ele>875</ele>
        <time>2024-01-30T17:21:12Z</time>
      </trkpt>
      <trkpt lat="44.43902" lon="5.55851">
        <ele>874</ele>
        <time>2024-01-30T17:21:40Z</time>
      </trkpt>
      <trkpt lat="44.43877" lon="5.55873">
        <ele>876</ele>
        <time>2024-01-30T17:21:53Z</time>
      </trkpt>
      <trkpt lat="44.43855" lon="5.55896">
        <ele>877</ele>
        <time>2024-01-30T17:21:56Z</time>
      </trkpt>
      <trkpt lat="44.43849" lon="5.55913">
        <ele>879</ele>
        <time>2024-01-30T17:21:59Z</time>
      </trkpt>
      <trkpt lat="44.43856" lon="5.55921">
        <ele>879</ele>
        <time>2024-01-30T17:22:02Z</time>
      </trkpt>
      <trkpt lat="44.43871" lon="5.55935">
        <ele>880</ele>
        <time>2024-01-30T17:22:06Z</time>
      </trkpt>
      <trkpt lat="44.43913" lon="5.55981">
        <ele>889</ele>
      </trkpt>
      <trkpt lat="44.43929" lon="5.56007">
        <ele>892</ele>
        <time>2024-01-30T17:22:16Z</time>
      </trkpt>
      <trkpt lat="44.43945" lon="5.56025">
        <ele>894</ele>
        <time>2024-01-30T17:22:22Z</time>
      </trkpt>
      <trkpt lat="44.43953" lon="5.56044">
        <ele>897</ele>
        <time>2024-01-30T17:22:48Z</time>
      </trkpt>
      <trkpt lat="44.43968" lon="5.56059">
        <ele>897</ele>
        <time>2024-01-30T17:22:54Z</time>
      </trkpt>
      <trkpt lat="44.43967" lon="5.5607">
        <ele>900</ele>
        <time>2024-01-30T17:22:56Z</time>
      </trkpt>
      <trkpt lat="44.43952" lon="5.56072">
        <ele>903</ele>
        <time>2024-01-30T17:22:59Z</time>
      </trkpt>
      <trkpt lat="44.43935" lon="5.56061">
        <ele>904</ele>
        <time>2024-01-30T17:23:01Z</time>
      </trkpt>
      <trkpt lat="44.43917" lon="5.56054">
        <ele>906</ele>
      </trkpt>
      <trkpt lat="44.43871" lon="5.56043">
        <ele>919</ele>
        <time>2024-01-30T17:23:06Z</time>
      </trkpt>
      <trkpt lat="44.43821" lon="5.56011">
        <ele>937</ele>
        <time>2024-01-30T17:23:33Z</time>
      </trkpt>
      <trkpt lat="44.43807" lon="5.55984">
        <ele>935</ele>
        <time>2024-01-30T17:23:38Z</time>
      </trkpt>
      <trkpt lat="44.43789" lon="5.55926">
        <ele>909</ele>
        <time>2024-01-30T17:23:44Z</time>
      </trkpt>
      <trkpt lat="44.43782" lon="5.55924">
        <ele>910</ele>
        <time>2024-01-30T17:24:03Z</time>
      </trkpt>
      <trkpt lat="44.43774" lon="5.55926">
        <ele>913</ele>
        <time>2024-01-30T17:24:11Z</time>
      </trkpt>
      <trkpt lat="44.43768" lon="5.55938">
        <ele>920</ele>
      </trkpt>
      <trkpt lat="44.43756" lon="5.55964">
        <ele>932</ele>
        <time>2024-01-30T17:24:19Z</time>
      </trkpt>
      <trkpt lat="44.43732" lon="5.5598">
        <ele>933</ele>
        <time>2024-01-30T17:24:22Z</time>
      </trkpt>
      <trkpt lat="44.43709" lon="5.56003">
        <ele>937</ele>
        <time>2024-01-30T17:24:30Z</time>
      </trkpt>
      <trkpt lat="44.43693" lon="5.56021">
        <ele>941</ele>
        <time>2024-01-30T17:24:42Z</time>
      </trkpt>
      <trkpt lat="44.43673" lon="5.56046">
        <ele>942</ele>
        <time>2024-01-30T17:25:05Z</time>
      </trkpt>
      <trkpt lat="44.43662" lon="5.56075">
        <ele>941</ele>
        <time>2024-01-30T17:25:19Z</time>
      </trkpt>
      <trkpt lat="44.43664" lon="5.56112">
        <ele>944</ele>
        <time>2024-01-30T17:25:23Z</time>
      </trkpt>
      <trkpt lat="44.43678" lon="5.56173">
        <ele>954</ele>
        <time>2024-01-30T17:25:31Z</time>
      </trkpt>
      <trkpt lat="44.43672" lon="5.56187">
        <ele>955</ele>
        <time>2024-01-30T17:25:56Z</time>
      </trkpt>
      <trkpt lat="44.43647" lon="5.56198">
        <ele>951</ele>
        <time>2024-01-30T17:26:25Z</time>
      </trkpt>
      <trkpt lat="44.43623" lon="5.56229">
        <ele>951</ele>
        <time>2024-01-30T17:26:34Z</time>
      </trkpt>
      <trkpt lat="44.43607" lon="5.56263">
        <ele>951</ele>
        <time>2024-01-30T17:26:38Z</time>
      </trkpt>
      <trkpt lat="44.43597" lon="5.56322">
        <ele>954</ele>
      </trkpt>
      <trkpt lat="44.43594" lon="5.56408">
        <ele>957</ele>
        <time>2024-01-30T17:26:48Z</time>
      </trkpt>
      <trkpt lat="44.43579" lon="5.56386">
        <ele>956</ele>
        <time>2024-01-30T17:27:09Z</time>
      </trkpt>
      <trkpt lat="44.43563" lon="5.56352">
        <ele>957</ele>
      </trkpt>
      <trkpt lat="44.4355" lon="5.56307">
        <ele>956</ele>
        <time>2024-01-30T17:27:27Z</time>
      </trkpt>
      <trkpt lat="44.43532" lon="5.56269">
        <ele>959</ele>
      </trkpt>
      <trkpt lat="44.43526" lon="5.56235">
        <ele>959</ele>
        <time>2024-01-30T17:27:44Z</time>
      </trkpt>
      <trkpt lat="44.43524" lon="5.56153">
        <ele>960</ele>
        <time>2024-01-30T17:30:00Z</time>
      </trkpt>
      <trkpt lat="44.43506" lon="5.56129">
        <ele>963</ele>
        <time>2024-01-30T17:30:20Z</time>
      </trkpt>
      <trkpt lat="44.43484" lon="5.561">
        <ele>966</ele>
        <time>2024-01-30T17:30:40Z</time>
      </trkpt>
      <trkpt lat="44.4345" lon="5.56046">
        <ele>969</ele>
        <time>2024-01-30T17:31:15Z</time>
      </trkpt>
      <trkpt lat="44.43436" lon="5.56039">
        <ele>972</ele>
        <time>2024-01-30T17:31:25Z</time>
      </trkpt>
      <trkpt lat="44.4343" lon="5.56027">
        <ele>971</ele>
        <time>2024-01-30T17:31:32Z</time>
      </trkpt>
      <trkpt lat="44.4342" lon="5.55994">
        <ele>972</ele>
        <time>2024-01-30T17:31:51Z</time>
      </trkpt>
      <trkpt lat="44.43396" lon="5.55984">
        <ele>978</ele>
        <time>2024-01-30T17:32:11Z</time>
      </trkpt>
      <trkpt lat="44.43389" lon="5.55971">
        <ele>980</ele>
        <time>2024-01-30T17:32:20Z</time>
      </trkpt>
      <trkpt lat="44.43379" lon="5.55926">
        <ele>981</ele>
        <time>2024-01-30T17:32:46Z</time>
      </trkpt>
      <trkpt lat="44.43372" lon="5.55902">
        <ele>984</ele>
        <time>2024-01-30T17:33:01Z</time>
      </trkpt>
      <trkpt lat="44.4337" lon="5.55887">
        <ele>984</ele>
        <time>2024-01-30T17:33:10Z</time>
      </trkpt>
      <trkpt lat="44.43376" lon="5.5586">
        <ele>983</ele>
        <time>2024-01-30T17:33:26Z</time>
      </trkpt>
      <trkpt lat="44.43376" lon="5.55847">
        <ele>983</ele>
        <time>2024-01-30T17:33:35Z</time>
      </trkpt>
      <trkpt lat="44.43372" lon="5.55785">
        <ele>991</ele>
        <time>2024-01-30T17:34:11Z</time>
      </trkpt>
      <trkpt lat="44.43367" lon="5.55775">
        <ele>994</ele>
        <time>2024-01-30T17:34:18Z</time>
      </trkpt>
      <trkpt lat="44.43358" lon="5.55775">
        <ele>998</ele>
        <time>2024-01-30T17:34:24Z</time>
      </trkpt>
      <trkpt lat="44.4335" lon="5.5579">
        <ele>998</ele>
        <time>2024-01-30T17:34:35Z</time>
      </trkpt>
      <trkpt lat="44.43321" lon="5.55908">
        <ele>1005</ele>
        <time>2024-01-30T17:35:45Z</time>
      </trkpt>
      <trkpt lat="44.43317" lon="5.55947">
        <ele>1009</ele>
        <time>2024-01-30T17:36:05Z</time>
      </trkpt>
      <trkpt lat="44.43318" lon="5.55979">
        <ele>1010</ele>
        <time>2024-01-30T17:36:21Z</time>
      </trkpt>
      <trkpt lat="44.43323" lon="5.56006">
        <ele>1010</ele>
        <time>2024-01-30T17:36:34Z</time>
      </trkpt>
      <trkpt lat="44.4332" lon="5.56035">
        <ele>1012</ele>
        <time>2024-01-30T17:36:48Z</time>
      </trkpt>
      <trkpt lat="44.43309" lon="5.56065">
        <ele>1017</ele>
        <time>2024-01-30T17:37:03Z</time>
      </trkpt>
      <trkpt lat="44.43311" lon="5.56115">
        <ele>1020</ele>
        <time>2024-01-30T17:37:26Z</time>
      </trkpt>
      <trkpt lat="44.43322" lon="5.56151">
        <ele>1018</ele>
        <time>2024-01-30T17:37:45Z</time>
      </trkpt>
      <trkpt lat="44.43316" lon="5.56193">
        <ele>1023</ele>
        <time>2024-01-30T17:38:05Z</time>
      </trkpt>
      <trkpt lat="44.43322" lon="5.56215">
        <ele>1022</ele>
        <time>2024-01-30T17:38:16Z</time>
      </trkpt>
      <trkpt lat="44.4332" lon="5.56249">
        <ele>1023</ele>
        <time>2024-01-30T17:38:33Z</time>
      </trkpt>
      <trkpt lat="44.43313" lon="5.56267">
        <ele>1027</ele>
        <time>2024-01-30T17:38:42Z</time>
      </trkpt>
      <trkpt lat="44.43303" lon="5.56281">
        <ele>1030</ele>
        <time>2024-01-30T17:38:52Z</time>
      </trkpt>
      <trkpt lat="44.43293" lon="5.56287">
        <ele>1032</ele>
        <time>2024-01-30T17:38:59Z</time>
      </trkpt>
      <trkpt lat="44.43293" lon="5.56315">
        <ele>1031</ele>
        <time>2024-01-30T17:39:13Z</time>
      </trkpt>
      <trkpt lat="44.43297" lon="5.56329">
        <ele>1030</ele>
        <time>2024-01-30T17:39:20Z</time>
      </trkpt>
      <trkpt lat="44.43292" lon="5.56358">
        <ele>1034</ele>
        <time>2024-01-30T17:39:36Z</time>
      </trkpt>
      <trkpt lat="44.43293" lon="5.56375">
        <ele>1035</ele>
        <time>2024-01-30T17:39:44Z</time>
      </trkpt>
      <trkpt lat="44.43314" lon="5.56406">
        <ele>1034</ele>
        <time>2024-01-30T17:40:07Z</time>
      </trkpt>
      <trkpt lat="44.43327" lon="5.56435">
        <ele>1036</ele>
        <time>2024-01-30T17:40:24Z</time>
      </trkpt>
      <trkpt lat="44.43332" lon="5.56461">
        <ele>1040</ele>
        <time>2024-01-30T17:40:36Z</time>
      </trkpt>
      <trkpt lat="44.43351" lon="5.56497">
        <ele>1042</ele>
        <time>2024-01-30T17:40:57Z</time>
      </trkpt>
      <trkpt lat="44.43367" lon="5.56578">
        <ele>1047</ele>
        <time>2024-01-30T17:41:32Z</time>
      </trkpt>
      <trkpt lat="44.43367" lon="5.56593">
        <ele>1049</ele>
        <time>2024-01-30T17:41:38Z</time>
      </trkpt>
      <trkpt lat="44.43375" lon="5.56624">
        <ele>1051</ele>
        <time>2024-01-30T17:41:52Z</time>
      </trkpt>
      <trkpt lat="44.4338" lon="5.56645">
        <ele>1052</ele>
        <time>2024-01-30T17:42:01Z</time>
      </trkpt>
      <trkpt lat="44.43379" lon="5.56681">
        <ele>1057</ele>
        <time>2024-01-30T17:42:18Z</time>
      </trkpt>
      <trkpt lat="44.43363" lon="5.5679">
        <ele>1072</ele>
        <time>2024-01-30T17:43:13Z</time>
      </trkpt>
      <trkpt lat="44.43351" lon="5.56826">
        <ele>1077</ele>
        <time>2024-01-30T17:43:33Z</time>
      </trkpt>
      <trkpt lat="44.43347" lon="5.56826">
        <ele>1079</ele>
        <time>2024-01-30T17:43:37Z</time>
      </trkpt>
      <trkpt lat="44.43346" lon="5.56836">
        <ele>1078</ele>
        <time>2024-01-30T17:43:42Z</time>
      </trkpt>
      <trkpt lat="44.43319" lon="5.56928">
        <ele>1084</ele>
        <time>2024-01-30T17:44:35Z</time>
      </trkpt>
      <trkpt lat="44.43307" lon="5.56993">
        <ele>1093</ele>
        <time>2024-01-30T17:45:10Z</time>
      </trkpt>
      <trkpt lat="44.4331" lon="5.57039">
        <ele>1095</ele>
        <time>2024-01-30T17:45:32Z</time>
      </trkpt>
      <trkpt lat="44.43306" lon="5.57058">
        <ele>1100</ele>
        <time>2024-01-30T17:45:40Z</time>
      </trkpt>
      <trkpt lat="44.433" lon="5.57054">
        <ele>1105</ele>
        <time>2024-01-30T17:45:44Z</time>
      </trkpt>
      <trkpt lat="44.43298" lon="5.57034">
        <ele>1101</ele>
        <time>2024-01-30T17:45:52Z</time>
      </trkpt>
      <trkpt lat="44.43288" lon="5.57001">
        <ele>1103</ele>
        <time>2024-01-30T17:46:07Z</time>
      </trkpt>
      <trkpt lat="44.43282" lon="5.56981">
        <ele>1105</ele>
        <time>2024-01-30T17:46:15Z</time>
      </trkpt>
      <trkpt lat="44.43275" lon="5.56969">
        <ele>1107</ele>
        <time>2024-01-30T17:46:20Z</time>
      </trkpt>
      <trkpt lat="44.43272" lon="5.56973">
        <ele>1109</ele>
        <time>2024-01-30T17:46:22Z</time>
      </trkpt>
      <trkpt lat="44.43271" lon="5.56987">
        <ele>1110</ele>
        <time>2024-01-30T17:46:27Z</time>
      </trkpt>
      <trkpt lat="44.43272" lon="5.5705">
        <ele>1117</ele>
        <time>2024-01-30T17:46:43Z</time>
      </trkpt>
      <trkpt lat="44.43255" lon="5.57015">
        <ele>1119</ele>
        <time>2024-01-30T17:46:51Z</time>
      </trkpt>
      <trkpt lat="44.43251" lon="5.56994">
        <ele>1120</ele>
        <time>2024-01-30T17:46:55Z</time>
      </trkpt>
      <trkpt lat="44.43248" lon="5.5696">
        <ele>1124</ele>
        <time>2024-01-30T17:47:00Z</time>
      </trkpt>
      <trkpt lat="44.43241" lon="5.56975">
        <ele>1125</ele>
        <time>2024-01-30T17:47:03Z</time>
      </trkpt>
      <trkpt lat="44.43239" lon="5.57006">
        <ele>1125</ele>
        <time>2024-01-30T17:47:08Z</time>
      </trkpt>
      <trkpt lat="44.43234" lon="5.57023">
        <ele>1126</ele>
        <time>2024-01-30T17:47:11Z</time>
      </trkpt>
      <trkpt lat="44.43228" lon="5.57023">
        <ele>1126</ele>
      </trkpt>
      <trkpt lat="44.43189" lon="5.57048">
        <ele>1128</ele>
        <time>2024-01-30T17:47:16Z</time>
      </trkpt>
      <trkpt lat="44.43182" lon="5.57058">
        <ele>1126</ele>
        <time>2024-01-30T17:47:17Z</time>
      </trkpt>
      <trkpt lat="44.43168" lon="5.57046">
        <ele>1123</ele>
        <time>2024-01-30T17:47:21Z</time>
      </trkpt>
      <trkpt lat="44.43148" lon="5.57036">
        <ele>1121</ele>
        <time>2024-01-30T17:47:25Z</time>
      </trkpt>
      <trkpt lat="44.43083" lon="5.57026">
        <ele>1112</ele>
        <time>2024-01-30T17:47:38Z</time>
      </trkpt>
      <trkpt lat="44.43074" lon="5.57022">
        <ele>1111</ele>
        <time>2024-01-30T17:47:39Z</time>
      </trkpt>
      <trkpt lat="44.43018" lon="5.5698">
        <ele>1106</ele>
        <time>2024-01-30T17:47:52Z</time>
      </trkpt>
      <trkpt lat="44.42986" lon="5.56974">
        <ele>1101</ele>
        <time>2024-01-30T17:47:58Z</time>
      </trkpt>
      <trkpt lat="44.429" lon="5.56902">
        <ele>1095</ele>
        <time>2024-01-30T17:48:18Z</time>
      </trkpt>
      <trkpt lat="44.42835" lon="5.56868">
        <ele>1082</ele>
        <time>2024-01-30T17:48:31Z</time>
      </trkpt>
      <trkpt lat="44.42797" lon="5.56877">
        <ele>1072</ele>
        <time>2024-01-30T17:48:38Z</time>
      </trkpt>
      <trkpt lat="44.42779" lon="5.56876">
        <ele>1070</ele>
        <time>2024-01-30T17:48:42Z</time>
      </trkpt>
      <trkpt lat="44.42744" lon="5.56833">
        <ele>1068</ele>
        <time>2024-01-30T17:48:51Z</time>
      </trkpt>
      <trkpt lat="44.4269" lon="5.56714">
        <ele>1051</ele>
        <time>2024-01-30T17:49:11Z</time>
      </trkpt>
      <trkpt lat="44.42657" lon="5.56666">
        <ele>1039</ele>
        <time>2024-01-30T17:49:20Z</time>
      </trkpt>
      <trkpt lat="44.42633" lon="5.56582">
        <ele>1024</ele>
        <time>2024-01-30T17:49:33Z</time>
      </trkpt>
      <trkpt lat="44.42634" lon="5.56562">
        <ele>1023</ele>
        <time>2024-01-30T17:49:36Z</time>
      </trkpt>
      <trkpt lat="44.42622" lon="5.56559">
        <ele>1019</ele>
        <time>2024-01-30T17:49:38Z</time>
      </trkpt>
      <trkpt lat="44.42603" lon="5.56565">
        <ele>1013</ele>
        <time>2024-01-30T17:49:42Z</time>
      </trkpt>
      <trkpt lat="44.42564" lon="5.5652">
        <ele>1007</ele>
        <time>2024-01-30T17:49:51Z</time>
      </trkpt>
      <trkpt lat="44.42522" lon="5.56561">
        <ele>996</ele>
        <time>2024-01-30T17:50:01Z</time>
      </trkpt>
      <trkpt lat="44.42487" lon="5.56522">
        <ele>988</ele>
        <time>2024-01-30T17:50:10Z</time>
      </trkpt>
      <trkpt lat="44.42455" lon="5.56498">
        <ele>981</ele>
        <time>2024-01-30T17:50:17Z</time>
      </trkpt>
      <trkpt lat="44.42467" lon="5.56416">
        <ele>970</ele>
        <time>2024-01-30T17:50:29Z</time>
      </trkpt>
      <trkpt lat="44.42458" lon="5.56363">
        <ele>968</ele>
        <time>2024-01-30T17:50:36Z</time>
      </trkpt>
      <trkpt lat="44.42445" lon="5.56342">
        <ele>966</ele>
        <time>2024-01-30T17:50:40Z</time>
      </trkpt>
      <trkpt lat="44.42352" lon="5.5627">
        <ele>949</ele>
        <time>2024-01-30T17:51:03Z</time>
      </trkpt>
      <trkpt lat="44.42355" lon="5.56298">
        <ele>949</ele>
        <time>2024-01-30T17:51:07Z</time>
      </trkpt>
      <trkpt lat="44.42339" lon="5.56486">
        <ele>953</ele>
        <time>2024-01-30T17:51:38Z</time>
      </trkpt>
      <trkpt lat="44.42304" lon="5.56537">
        <ele>948</ele>
        <time>2024-01-30T17:51:49Z</time>
      </trkpt>
      <trkpt lat="44.42286" lon="5.56547">
        <ele>945</ele>
        <time>2024-01-30T17:51:53Z</time>
      </trkpt>
      <trkpt lat="44.42226" lon="5.56561">
        <ele>936</ele>
        <time>2024-01-30T17:52:06Z</time>
      </trkpt>
      <trkpt lat="44.42151" lon="5.56563">
        <ele>927</ele>
        <time>2024-01-30T17:52:21Z</time>
      </trkpt>
      <trkpt lat="44.4213" lon="5.56566">
        <ele>924</ele>
        <time>2024-01-30T17:52:25Z</time>
      </trkpt>
      <trkpt lat="44.42111" lon="5.56572">
        <ele>922</ele>
        <time>2024-01-30T17:52:29Z</time>
      </trkpt>
      <trkpt lat="44.4209" lon="5.56587">
        <ele>920</ele>
        <time>2024-01-30T17:52:34Z</time>
      </trkpt>
      <trkpt lat="44.42084" lon="5.56573">
        <ele>919</ele>
        <time>2024-01-30T17:52:40Z</time>
      </trkpt>
      <trkpt lat="44.42083" lon="5.56515">
        <ele>915</ele>
        <time>2024-01-30T17:52:46Z</time>
      </trkpt>
      <trkpt lat="44.42075" lon="5.56467">
        <ele>912</ele>
        <time>2024-01-30T17:52:49Z</time>
      </trkpt>
      <trkpt lat="44.42096" lon="5.56363">
        <ele>909</ele>
      </trkpt>
      <trkpt lat="44.42095" lon="5.5634">
        <ele>909</ele>
      </trkpt>
      <trkpt lat="44.42087" lon="5.56314">
        <ele>909</ele>
      </trkpt>
      <trkpt lat="44.42083" lon="5.56283">
        <ele>909</ele>
      </trkpt>
      <trkpt lat="44.42081" lon="5.56255">
        <ele>910</ele>
      </trkpt>
      <trkpt lat="44.42056" lon="5.56225">
        <ele>912</ele>
      </trkpt>
      <trkpt lat="44.42018" lon="5.56198">
        <ele>915</ele>
      </trkpt>
      <trkpt lat="44.41956" lon="5.56172">
        <ele>920</ele>
      </trkpt>
      <trkpt lat="44.41919" lon="5.56125">
        <ele>922</ele>
      </trkpt>
      <trkpt lat="44.41902" lon="5.56077">
        <ele>920</ele>
      </trkpt>
      <trkpt lat="44.41897" lon="5.56042">
        <ele>918</ele>
      </trkpt>
      <trkpt lat="44.41877" lon="5.55986">
        <ele>911</ele>
      </trkpt>
      <trkpt lat="44.41867" lon="5.55945">
        <ele>907</ele>
      </trkpt>
      <trkpt lat="44.41829" lon="5.55877">
        <ele>900</ele>
      </trkpt>
      <trkpt lat="44.41797" lon="5.5588">
        <ele>896</ele>
      </trkpt>
      <trkpt lat="44.41737" lon="5.55908">
        <ele>892</ele>
      </trkpt>
      <trkpt lat="44.4169" lon="5.55954">
        <ele>892</ele>
      </trkpt>
      <trkpt lat="44.41663" lon="5.55991">
        <ele>891</ele>
      </trkpt>
      <trkpt lat="44.41642" lon="5.56007">
        <ele>889</ele>
        <time>2024-01-30T17:52:51Z</time>
      </trkpt>
      <trkpt lat="44.41615" lon="5.56019">
        <ele>887</ele>
        <time>2024-01-30T17:52:52Z</time>
      </trkpt>
      <trkpt lat="44.41583" lon="5.56024">
        <ele>886</ele>
        <time>2024-01-30T17:52:54Z</time>
      </trkpt>
      <trkpt lat="44.41536" lon="5.56043">
        <ele>882</ele>
      </trkpt>
      <trkpt lat="44.41502" lon="5.56042">
        <ele>880</ele>
      </trkpt>
      <trkpt lat="44.41462" lon="5.56072">
        <ele>875</ele>
      </trkpt>
      <trkpt lat="44.41428" lon="5.56079">
        <ele>873</ele>
      </trkpt>
      <trkpt lat="44.41403" lon="5.56057">
        <ele>872</ele>
      </trkpt>
      <trkpt lat="44.41365" lon="5.56005">
        <ele>867</ele>
      </trkpt>
      <trkpt lat="44.41359" lon="5.55972">
        <ele>866</ele>
      </trkpt>
      <trkpt lat="44.41367" lon="5.55952">
        <ele>864</ele>
      </trkpt>
      <trkpt lat="44.41391" lon="5.55936">
        <ele>862</ele>
      </trkpt>
      <trkpt lat="44.41407" lon="5.55923">
        <ele>860</ele>
      </trkpt>
      <trkpt lat="44.41423" lon="5.55916">
        <ele>860</ele>
      </trkpt>
      <trkpt lat="44.4144" lon="5.55894">
        <ele>857</ele>
      </trkpt>
      <trkpt lat="44.41458" lon="5.55879">
        <ele>855</ele>
      </trkpt>
      <trkpt lat="44.41481" lon="5.55854">
        <ele>853</ele>
      </trkpt>
      <trkpt lat="44.41498" lon="5.55817">
        <ele>848</ele>
      </trkpt>
      <trkpt lat="44.41534" lon="5.55796">
        <ele>848</ele>
      </trkpt>
      <trkpt lat="44.41539" lon="5.55785">
        <ele>847</ele>
      </trkpt>
      <trkpt lat="44.41538" lon="5.55765">
        <ele>846</ele>
      </trkpt>
      <trkpt lat="44.41534" lon="5.55722">
        <ele>845</ele>
      </trkpt>
      <trkpt lat="44.41534" lon="5.55663">
        <ele>846</ele>
      </trkpt>
      <trkpt lat="44.41548" lon="5.55639">
        <ele>847</ele>
      </trkpt>
      <trkpt lat="44.41572" lon="5.55615">
        <ele>850</ele>
      </trkpt>
      <trkpt lat="44.41579" lon="5.55601">
        <ele>850</ele>
      </trkpt>
      <trkpt lat="44.41576" lon="5.55586">
        <ele>850</ele>
      </trkpt>
      <trkpt lat="44.41555" lon="5.55583">
        <ele>850</ele>
      </trkpt>
      <trkpt lat="44.41539" lon="5.55579">
        <ele>849</ele>
      </trkpt>
      <trkpt lat="44.41525" lon="5.55569">
        <ele>849</ele>
      </trkpt>
      <trkpt lat="44.41503" lon="5.55512">
        <ele>853</ele>
      </trkpt>
      <trkpt lat="44.41489" lon="5.55495">
        <ele>854</ele>
      </trkpt>
      <trkpt lat="44.41468" lon="5.5549">
        <ele>855</ele>
      </trkpt>
      <trkpt lat="44.4144" lon="5.55473">
        <ele>859</ele>
      </trkpt>
      <trkpt lat="44.414" lon="5.55436">
        <ele>863</ele>
      </trkpt>
      <trkpt lat="44.4137" lon="5.55435">
        <ele>860</ele>
      </trkpt>
      <trkpt lat="44.41344" lon="5.5544">
        <ele>856</ele>
      </trkpt>
      <trkpt lat="44.41325" lon="5.55443">
        <ele>852</ele>
      </trkpt>
      <trkpt lat="44.41296" lon="5.55482">
        <ele>846</ele>
      </trkpt>
      <trkpt lat="44.41281" lon="5.55496">
        <ele>842</ele>
      </trkpt>
      <trkpt lat="44.4127" lon="5.55532">
        <ele>838</ele>
      </trkpt>
      <trkpt lat="44.41267" lon="5.55599">
        <ele>826</ele>
      </trkpt>
      <trkpt lat="44.41244" lon="5.55591">
        <ele>819</ele>
      </trkpt>
      <trkpt lat="44.41228" lon="5.55574">
        <ele>815</ele>
      </trkpt>
      <trkpt lat="44.41222" lon="5.55577">
        <ele>813</ele>
      </trkpt>
      <trkpt lat="44.41255" lon="5.55662">
        <ele>811</ele>
      </trkpt>
      <trkpt lat="44.41264" lon="5.55704">
        <ele>812</ele>
      </trkpt>
      <trkpt lat="44.41264" lon="5.55739">
        <ele>814</ele>
      </trkpt>
      <trkpt lat="44.41247" lon="5.55736">
        <ele>813</ele>
      </trkpt>
      <trkpt lat="44.41245" lon="5.55716">
        <ele>811</ele>
      </trkpt>
      <trkpt lat="44.41247" lon="5.55702">
        <ele>811</ele>
      </trkpt>
      <trkpt lat="44.41242" lon="5.55692">
        <ele>810</ele>
      </trkpt>
      <trkpt lat="44.4122" lon="5.55692">
        <ele>805</ele>
      </trkpt>
      <trkpt lat="44.4119" lon="5.55703">
        <ele>800</ele>
      </trkpt>
      <trkpt lat="44.41168" lon="5.55716">
        <ele>799</ele>
      </trkpt>
      <trkpt lat="44.41138" lon="5.55739">
        <ele>797</ele>
      </trkpt>
      <trkpt lat="44.41122" lon="5.55768">
        <ele>796</ele>
      </trkpt>
      <trkpt lat="44.41118" lon="5.55794">
        <ele>796</ele>
      </trkpt>
      <trkpt lat="44.41106" lon="5.55841">
        <ele>794</ele>
      </trkpt>
      <trkpt lat="44.41094" lon="5.55867">
        <ele>792</ele>
      </trkpt>
      <trkpt lat="44.41057" lon="5.55877">
        <ele>789</ele>
      </trkpt>
      <trkpt lat="44.41046" lon="5.55861">
        <ele>791</ele>
      </trkpt>
      <trkpt lat="44.40997" lon="5.55754">
        <ele>796</ele>
      </trkpt>
      <trkpt lat="44.4099" lon="5.55754">
        <ele>798</ele>
      </trkpt>
      <trkpt lat="44.40989" lon="5.55765">
        <ele>799</ele>
      </trkpt>
      <trkpt lat="44.40998" lon="5.55814">
        <ele>800</ele>
      </trkpt>
      <trkpt lat="44.41005" lon="5.55923">
        <ele>812</ele>
      </trkpt>
      <trkpt lat="44.40992" lon="5.55956">
        <ele>818</ele>
      </trkpt>
      <trkpt lat="44.40973" lon="5.55986">
        <ele>819</ele>
      </trkpt>
      <trkpt lat="44.40952" lon="5.55999">
        <ele>823</ele>
      </trkpt>
      <trkpt lat="44.40932" lon="5.55987">
        <ele>828</ele>
      </trkpt>
      <trkpt lat="44.40915" lon="5.55951">
        <ele>832</ele>
      </trkpt>
      <trkpt lat="44.40912" lon="5.55903">
        <ele>832</ele>
      </trkpt>
      <trkpt lat="44.40901" lon="5.55865">
        <ele>835</ele>
      </trkpt>
      <trkpt lat="44.40864" lon="5.55771">
        <ele>838</ele>
      </trkpt>
      <trkpt lat="44.40837" lon="5.55762">
        <ele>843</ele>
      </trkpt>
      <trkpt lat="44.40825" lon="5.55754">
        <ele>845</ele>
      </trkpt>
      <trkpt lat="44.40797" lon="5.55711">
        <ele>847</ele>
      </trkpt>
      <trkpt lat="44.40782" lon="5.55702">
        <ele>848</ele>
      </trkpt>
      <trkpt lat="44.40767" lon="5.55709">
        <ele>849</ele>
      </trkpt>
      <trkpt lat="44.40757" lon="5.55724">
        <ele>851</ele>
      </trkpt>
      <trkpt lat="44.40748" lon="5.55923">
        <ele>871</ele>
      </trkpt>
      <trkpt lat="44.40734" lon="5.55966">
        <ele>875</ele>
      </trkpt>
      <trkpt lat="44.40683" lon="5.56065">
        <ele>882</ele>
      </trkpt>
      <trkpt lat="44.40675" lon="5.56068">
        <ele>881</ele>
      </trkpt>
      <trkpt lat="44.4065" lon="5.56027">
        <ele>885</ele>
      </trkpt>
      <trkpt lat="44.40639" lon="5.55982">
        <ele>888</ele>
      </trkpt>
      <trkpt lat="44.40628" lon="5.55971">
        <ele>889</ele>
      </trkpt>
      <trkpt lat="44.40612" lon="5.55976">
        <ele>890</ele>
      </trkpt>
      <trkpt lat="44.40591" lon="5.55995">
        <ele>893</ele>
      </trkpt>
      <trkpt lat="44.40568" lon="5.55995">
        <ele>897</ele>
      </trkpt>
      <trkpt lat="44.40531" lon="5.55984">
        <ele>900</ele>
      </trkpt>
      <trkpt lat="44.40491" lon="5.5599">
        <ele>904</ele>
      </trkpt>
      <trkpt lat="44.40479" lon="5.55994">
        <ele>904</ele>
      </trkpt>
      <trkpt lat="44.40437" lon="5.56098">
        <ele>917</ele>
      </trkpt>
      <trkpt lat="44.40407" lon="5.56113">
        <ele>919</ele>
      </trkpt>
      <trkpt lat="44.40365" lon="5.56152">
        <ele>921</ele>
      </trkpt>
      <trkpt lat="44.40352" lon="5.56172">
        <ele>922</ele>
      </trkpt>
      <trkpt lat="44.40323" lon="5.5619">
        <ele>924</ele>
      </trkpt>
      <trkpt lat="44.40289" lon="5.56212">
        <ele>926</ele>
      </trkpt>
      <trkpt lat="44.40253" lon="5.56216">
        <ele>929</ele>
      </trkpt>
      <trkpt lat="44.40215" lon="5.56217">
        <ele>931</ele>
      </trkpt>
      <trkpt lat="44.40192" lon="5.56241">
        <ele>932</ele>
      </trkpt>
      <trkpt lat="44.40173" lon="5.56269">
        <ele>935</ele>
      </trkpt>
      <trkpt lat="44.40155" lon="5.5627">
        <ele>937</ele>
      </trkpt>
      <trkpt lat="44.40123" lon="5.56261">
        <ele>939</ele>
      </trkpt>
      <trkpt lat="44.40091" lon="5.56257">
        <ele>942</ele>
      </trkpt>
      <trkpt lat="44.40075" lon="5.56256">
        <ele>943</ele>
      </trkpt>
      <trkpt lat="44.40063" lon="5.56246">
        <ele>943</ele>
      </trkpt>
      <trkpt lat="44.4005" lon="5.56219">
        <ele>945</ele>
      </trkpt>
      <trkpt lat="44.40038" lon="5.56207">
        <ele>947</ele>
      </trkpt>
      <trkpt lat="44.39981" lon="5.56175">
        <ele>951</ele>
      </trkpt>
      <trkpt lat="44.39977" lon="5.56206">
        <ele>953</ele>
      </trkpt>
      <trkpt lat="44.39984" lon="5.56259">
        <ele>956</ele>
      </trkpt>
      <trkpt lat="44.40022" lon="5.5633">
        <ele>959</ele>
      </trkpt>
      <trkpt lat="44.40033" lon="5.56356">
        <ele>959</ele>
      </trkpt>
      <trkpt lat="44.40038" lon="5.56375">
        <ele>959</ele>
      </trkpt>
      <trkpt lat="44.40046" lon="5.5645">
        <ele>959</ele>
      </trkpt>
      <trkpt lat="44.40038" lon="5.56516">
        <ele>961</ele>
      </trkpt>
      <trkpt lat="44.40041" lon="5.56629">
        <ele>964</ele>
      </trkpt>
      <trkpt lat="44.40043" lon="5.56645">
        <ele>965</ele>
        <time>2024-01-30T18:11:15Z</time>
      </trkpt>
      <trkpt lat="44.40042" lon="5.5674">
        <ele>970</ele>
        <time>2024-01-30T18:12:05Z</time>
      </trkpt>
      <trkpt lat="44.40032" lon="5.56794">
        <ele>974</ele>
        <time>2024-01-30T18:12:33Z</time>
      </trkpt>
      <trkpt lat="44.40018" lon="5.56834">
        <ele>977</ele>
        <time>2024-01-30T18:12:54Z</time>
      </trkpt>
      <trkpt lat="44.40008" lon="5.56877">
        <ele>980</ele>
        <time>2024-01-30T18:13:15Z</time>
      </trkpt>
      <trkpt lat="44.40003" lon="5.56919">
        <ele>982</ele>
        <time>2024-01-30T18:13:35Z</time>
      </trkpt>
      <trkpt lat="44.40005" lon="5.56962">
        <ele>983</ele>
        <time>2024-01-30T18:13:56Z</time>
      </trkpt>
      <trkpt lat="44.40001" lon="5.56986">
        <ele>984</ele>
        <time>2024-01-30T18:14:08Z</time>
      </trkpt>
      <trkpt lat="44.39993" lon="5.5702">
        <ele>986</ele>
        <time>2024-01-30T18:14:25Z</time>
      </trkpt>
      <trkpt lat="44.39977" lon="5.57054">
        <ele>988</ele>
        <time>2024-01-30T18:14:45Z</time>
      </trkpt>
      <trkpt lat="44.3996" lon="5.57059">
        <ele>991</ele>
        <time>2024-01-30T18:14:57Z</time>
      </trkpt>
      <trkpt lat="44.39945" lon="5.57084">
        <ele>993</ele>
        <time>2024-01-30T18:15:12Z</time>
      </trkpt>
      <trkpt lat="44.39922" lon="5.57113">
        <ele>997</ele>
        <time>2024-01-30T18:15:33Z</time>
      </trkpt>
      <trkpt lat="44.3991" lon="5.57111">
        <ele>998</ele>
        <time>2024-01-30T18:15:41Z</time>
      </trkpt>
      <trkpt lat="44.39859" lon="5.57089">
        <ele>1005</ele>
        <time>2024-01-30T18:16:16Z</time>
      </trkpt>
      <trkpt lat="44.39832" lon="5.5707">
        <ele>1008</ele>
        <time>2024-01-30T18:16:37Z</time>
      </trkpt>
      <trkpt lat="44.39769" lon="5.57012">
        <ele>1013</ele>
        <time>2024-01-30T18:17:23Z</time>
      </trkpt>
      <trkpt lat="44.39746" lon="5.57012">
        <ele>1016</ele>
        <time>2024-01-30T18:17:37Z</time>
      </trkpt>
      <trkpt lat="44.39728" lon="5.57031">
        <ele>1016</ele>
        <time>2024-01-30T18:17:50Z</time>
      </trkpt>
      <trkpt lat="44.39723" lon="5.57045">
        <ele>1017</ele>
        <time>2024-01-30T18:17:56Z</time>
      </trkpt>
      <trkpt lat="44.39732" lon="5.57105">
        <ele>1020</ele>
        <time>2024-01-30T18:18:21Z</time>
      </trkpt>
      <trkpt lat="44.39728" lon="5.57217">
        <ele>1026</ele>
        <time>2024-01-30T18:19:08Z</time>
      </trkpt>
      <trkpt lat="44.39722" lon="5.57256">
        <ele>1028</ele>
        <time>2024-01-30T18:19:25Z</time>
      </trkpt>
      <trkpt lat="44.39681" lon="5.57325">
        <ele>1034</ele>
        <time>2024-01-30T18:20:06Z</time>
      </trkpt>
      <trkpt lat="44.39667" lon="5.5739">
        <ele>1037</ele>
        <time>2024-01-30T18:20:39Z</time>
      </trkpt>
      <trkpt lat="44.39655" lon="5.57412">
        <ele>1039</ele>
        <time>2024-01-30T18:20:52Z</time>
      </trkpt>
      <trkpt lat="44.39641" lon="5.57418">
        <ele>1041</ele>
        <time>2024-01-30T18:21:03Z</time>
      </trkpt>
      <trkpt lat="44.39515" lon="5.57537">
        <ele>1063</ele>
        <time>2024-01-30T18:22:47Z</time>
      </trkpt>
      <trkpt lat="44.39473" lon="5.57553">
        <ele>1067</ele>
        <time>2024-01-30T18:23:15Z</time>
      </trkpt>
      <trkpt lat="44.3945" lon="5.57546">
        <ele>1069</ele>
        <time>2024-01-30T18:23:29Z</time>
      </trkpt>
      <trkpt lat="44.39412" lon="5.57556">
        <ele>1072</ele>
        <time>2024-01-30T18:23:52Z</time>
      </trkpt>
      <trkpt lat="44.3936" lon="5.57554">
        <ele>1075</ele>
        <time>2024-01-30T18:24:20Z</time>
      </trkpt>
      <trkpt lat="44.3933" lon="5.57558">
        <ele>1073</ele>
        <time>2024-01-30T18:24:36Z</time>
      </trkpt>
      <trkpt lat="44.39297" lon="5.57573">
        <ele>1071</ele>
        <time>2024-01-30T18:24:53Z</time>
      </trkpt>
      <trkpt lat="44.39274" lon="5.576">
        <ele>1072</ele>
        <time>2024-01-30T18:25:08Z</time>
      </trkpt>
      <trkpt lat="44.39251" lon="5.57611">
        <ele>1073</ele>
        <time>2024-01-30T18:25:20Z</time>
      </trkpt>
      <trkpt lat="44.39202" lon="5.57659">
        <ele>1075</ele>
        <time>2024-01-30T18:25:46Z</time>
      </trkpt>
      <trkpt lat="44.39173" lon="5.57683">
        <ele>1079</ele>
        <time>2024-01-30T18:26:00Z</time>
      </trkpt>
      <trkpt lat="44.39081" lon="5.57736">
        <ele>1084</ele>
        <time>2024-01-30T18:26:32Z</time>
      </trkpt>
      <trkpt lat="44.39065" lon="5.57765">
        <ele>1083</ele>
        <time>2024-01-30T18:26:39Z</time>
      </trkpt>
      <trkpt lat="44.39051" lon="5.57776">
        <ele>1082</ele>
        <time>2024-01-30T18:26:44Z</time>
      </trkpt>
      <trkpt lat="44.39016" lon="5.57783">
        <ele>1083</ele>
        <time>2024-01-30T18:26:52Z</time>
      </trkpt>
      <trkpt lat="44.3897" lon="5.57778">
        <ele>1083</ele>
        <time>2024-01-30T18:27:03Z</time>
      </trkpt>
      <trkpt lat="44.38934" lon="5.57753">
        <ele>1083</ele>
        <time>2024-01-30T18:27:12Z</time>
      </trkpt>
      <trkpt lat="44.38924" lon="5.57749">
        <ele>1082</ele>
        <time>2024-01-30T18:27:15Z</time>
      </trkpt>
      <trkpt lat="44.38885" lon="5.57752">
        <ele>1082</ele>
        <time>2024-01-30T18:27:23Z</time>
      </trkpt>
      <trkpt lat="44.38856" lon="5.57749">
        <ele>1081</ele>
        <time>2024-01-30T18:27:29Z</time>
      </trkpt>
      <trkpt lat="44.3883" lon="5.57752">
        <ele>1081</ele>
        <time>2024-01-30T18:27:34Z</time>
      </trkpt>
      <trkpt lat="44.38812" lon="5.57743">
        <ele>1081</ele>
        <time>2024-01-30T18:27:38Z</time>
      </trkpt>
      <trkpt lat="44.3877" lon="5.57731">
        <ele>1078</ele>
        <time>2024-01-30T18:27:47Z</time>
      </trkpt>
      <trkpt lat="44.38732" lon="5.57734">
        <ele>1074</ele>
        <time>2024-01-30T18:27:55Z</time>
      </trkpt>
      <trkpt lat="44.38701" lon="5.57744">
        <ele>1070</ele>
        <time>2024-01-30T18:28:01Z</time>
      </trkpt>
      <trkpt lat="44.38674" lon="5.57749">
        <ele>1066</ele>
        <time>2024-01-30T18:28:07Z</time>
      </trkpt>
      <trkpt lat="44.38651" lon="5.57749">
        <ele>1063</ele>
        <time>2024-01-30T18:28:12Z</time>
      </trkpt>
      <trkpt lat="44.38605" lon="5.57719">
        <ele>1062</ele>
        <time>2024-01-30T18:28:22Z</time>
      </trkpt>
      <trkpt lat="44.38567" lon="5.57709">
        <ele>1060</ele>
        <time>2024-01-30T18:28:30Z</time>
      </trkpt>
      <trkpt lat="44.38543" lon="5.57713">
        <ele>1058</ele>
        <time>2024-01-30T18:28:35Z</time>
      </trkpt>
      <trkpt lat="44.38482" lon="5.57715">
        <ele>1052</ele>
        <time>2024-01-30T18:28:48Z</time>
      </trkpt>
      <trkpt lat="44.38451" lon="5.5769">
        <ele>1048</ele>
        <time>2024-01-30T18:28:56Z</time>
      </trkpt>
      <trkpt lat="44.38411" lon="5.57688">
        <ele>1042</ele>
        <time>2024-01-30T18:29:05Z</time>
      </trkpt>
      <trkpt lat="44.38347" lon="5.57695">
        <ele>1034</ele>
        <time>2024-01-30T18:29:19Z</time>
      </trkpt>
      <trkpt lat="44.3832" lon="5.57691">
        <ele>1032</ele>
        <time>2024-01-30T18:29:24Z</time>
      </trkpt>
      <trkpt lat="44.38239" lon="5.57735">
        <ele>1020</ele>
        <time>2024-01-30T18:29:44Z</time>
      </trkpt>
      <trkpt lat="44.38204" lon="5.57742">
        <ele>1019</ele>
        <time>2024-01-30T18:29:52Z</time>
      </trkpt>
      <trkpt lat="44.38175" lon="5.57743">
        <ele>1017</ele>
        <time>2024-01-30T18:29:58Z</time>
      </trkpt>
      <trkpt lat="44.38133" lon="5.57781">
        <ele>1016</ele>
        <time>2024-01-30T18:30:09Z</time>
      </trkpt>
      <trkpt lat="44.38074" lon="5.57814">
        <ele>1012</ele>
        <time>2024-01-30T18:30:23Z</time>
      </trkpt>
      <trkpt lat="44.38054" lon="5.57839">
        <ele>1010</ele>
        <time>2024-01-30T18:30:29Z</time>
      </trkpt>
      <trkpt lat="44.38025" lon="5.57859">
        <ele>1007</ele>
        <time>2024-01-30T18:30:35Z</time>
      </trkpt>
      <trkpt lat="44.37993" lon="5.57865">
        <ele>1002</ele>
        <time>2024-01-30T18:30:42Z</time>
      </trkpt>
      <trkpt lat="44.37916" lon="5.57888">
        <ele>995</ele>
        <time>2024-01-30T18:30:58Z</time>
      </trkpt>
      <trkpt lat="44.37878" lon="5.57924">
        <ele>990</ele>
        <time>2024-01-30T18:31:07Z</time>
      </trkpt>
      <trkpt lat="44.37781" lon="5.57974">
        <ele>977</ele>
        <time>2024-01-30T18:31:28Z</time>
      </trkpt>
      <trkpt lat="44.37749" lon="5.58">
        <ele>975</ele>
        <time>2024-01-30T18:31:36Z</time>
      </trkpt>
      <trkpt lat="44.37673" lon="5.58051">
        <ele>971</ele>
        <time>2024-01-30T18:31:53Z</time>
      </trkpt>
      <trkpt lat="44.37645" lon="5.58054">
        <ele>969</ele>
        <time>2024-01-30T18:31:58Z</time>
      </trkpt>
      <trkpt lat="44.37608" lon="5.58073">
        <ele>964</ele>
        <time>2024-01-30T18:32:06Z</time>
      </trkpt>
      <trkpt lat="44.37566" lon="5.58117">
        <ele>956</ele>
        <time>2024-01-30T18:32:16Z</time>
      </trkpt>
      <trkpt lat="44.37552" lon="5.58124">
        <ele>954</ele>
        <time>2024-01-30T18:32:19Z</time>
      </trkpt>
      <trkpt lat="44.37537" lon="5.58137">
        <ele>951</ele>
        <time>2024-01-30T18:32:23Z</time>
      </trkpt>
      <trkpt lat="44.37479" lon="5.58154">
        <ele>939</ele>
        <time>2024-01-30T18:32:35Z</time>
      </trkpt>
      <trkpt lat="44.37465" lon="5.5815">
        <ele>938</ele>
        <time>2024-01-30T18:32:38Z</time>
      </trkpt>
      <trkpt lat="44.37445" lon="5.58155">
        <ele>935</ele>
        <time>2024-01-30T18:32:42Z</time>
      </trkpt>
      <trkpt lat="44.37413" lon="5.58158">
        <ele>931</ele>
        <time>2024-01-30T18:32:49Z</time>
      </trkpt>
      <trkpt lat="44.37399" lon="5.58148">
        <ele>930</ele>
        <time>2024-01-30T18:32:52Z</time>
      </trkpt>
      <trkpt lat="44.37388" lon="5.5812">
        <ele>931</ele>
        <time>2024-01-30T18:32:57Z</time>
      </trkpt>
      <trkpt lat="44.37383" lon="5.58085">
        <ele>930</ele>
        <time>2024-01-30T18:33:03Z</time>
      </trkpt>
      <trkpt lat="44.37352" lon="5.58032">
        <ele>922</ele>
        <time>2024-01-30T18:33:14Z</time>
      </trkpt>
      <trkpt lat="44.37336" lon="5.57975">
        <ele>914</ele>
        <time>2024-01-30T18:33:24Z</time>
      </trkpt>
      <trkpt lat="44.37345" lon="5.5796">
        <ele>912</ele>
        <time>2024-01-30T18:33:27Z</time>
      </trkpt>
      <trkpt lat="44.37382" lon="5.57945">
        <ele>911</ele>
        <time>2024-01-30T18:33:35Z</time>
      </trkpt>
      <trkpt lat="44.3739" lon="5.5793">
        <ele>911</ele>
        <time>2024-01-30T18:33:38Z</time>
      </trkpt>
      <trkpt lat="44.37391" lon="5.57904">
        <ele>910</ele>
        <time>2024-01-30T18:33:42Z</time>
      </trkpt>
      <trkpt lat="44.37379" lon="5.5786">
        <ele>906</ele>
        <time>2024-01-30T18:33:50Z</time>
      </trkpt>
      <trkpt lat="44.3737" lon="5.57813">
        <ele>900</ele>
        <time>2024-01-30T18:33:57Z</time>
      </trkpt>
      <trkpt lat="44.37372" lon="5.57758">
        <ele>894</ele>
        <time>2024-01-30T18:34:06Z</time>
      </trkpt>
      <trkpt lat="44.37329" lon="5.57822">
        <ele>892</ele>
        <time>2024-01-30T18:34:19Z</time>
      </trkpt>
      <trkpt lat="44.373" lon="5.57856">
        <ele>891</ele>
        <time>2024-01-30T18:34:28Z</time>
      </trkpt>
      <trkpt lat="44.37277" lon="5.57874">
        <ele>890</ele>
        <time>2024-01-30T18:34:34Z</time>
      </trkpt>
      <trkpt lat="44.37258" lon="5.57875">
        <ele>889</ele>
        <time>2024-01-30T18:34:39Z</time>
      </trkpt>
      <trkpt lat="44.37248" lon="5.57887">
        <ele>888</ele>
        <time>2024-01-30T18:34:42Z</time>
      </trkpt>
      <trkpt lat="44.37248" lon="5.57912">
        <ele>891</ele>
        <time>2024-01-30T18:34:46Z</time>
      </trkpt>
      <trkpt lat="44.37241" lon="5.57927">
        <ele>892</ele>
        <time>2024-01-30T18:34:49Z</time>
      </trkpt>
      <trkpt lat="44.37214" lon="5.5795">
        <ele>891</ele>
        <time>2024-01-30T18:34:56Z</time>
      </trkpt>
      <trkpt lat="44.37202" lon="5.57969">
        <ele>893</ele>
        <time>2024-01-30T18:35:00Z</time>
      </trkpt>
      <trkpt lat="44.37185" lon="5.57989">
        <ele>892</ele>
        <time>2024-01-30T18:35:05Z</time>
      </trkpt>
      <trkpt lat="44.37174" lon="5.57994">
        <ele>891</ele>
        <time>2024-01-30T18:35:07Z</time>
      </trkpt>
      <trkpt lat="44.37106" lon="5.57981">
        <ele>876</ele>
        <time>2024-01-30T18:35:22Z</time>
      </trkpt>
      <trkpt lat="44.37086" lon="5.58017">
        <ele>875</ele>
        <time>2024-01-30T18:35:29Z</time>
      </trkpt>
      <trkpt lat="44.37072" lon="5.58021">
        <ele>874</ele>
        <time>2024-01-30T18:35:32Z</time>
      </trkpt>
      <trkpt lat="44.37038" lon="5.57975">
        <ele>863</ele>
        <time>2024-01-30T18:35:42Z</time>
      </trkpt>
      <trkpt lat="44.37043" lon="5.57933">
        <ele>859</ele>
        <time>2024-01-30T18:35:49Z</time>
      </trkpt>
      <trkpt lat="44.3704" lon="5.57923">
        <ele>858</ele>
        <time>2024-01-30T18:35:50Z</time>
      </trkpt>
      <trkpt lat="44.37026" lon="5.57924">
        <ele>855</ele>
        <time>2024-01-30T18:35:54Z</time>
      </trkpt>
      <trkpt lat="44.36982" lon="5.57976">
        <ele>851</ele>
        <time>2024-01-30T18:36:06Z</time>
      </trkpt>
      <trkpt lat="44.36951" lon="5.57996">
        <ele>848</ele>
        <time>2024-01-30T18:36:14Z</time>
      </trkpt>
      <trkpt lat="44.36914" lon="5.58059">
        <ele>845</ele>
        <time>2024-01-30T18:36:28Z</time>
      </trkpt>
      <trkpt lat="44.36904" lon="5.58087">
        <ele>845</ele>
        <time>2024-01-30T18:36:33Z</time>
      </trkpt>
      <trkpt lat="44.36838" lon="5.58161">
        <ele>842</ele>
        <time>2024-01-30T18:36:52Z</time>
      </trkpt>
      <trkpt lat="44.36788" lon="5.58208">
        <ele>840</ele>
        <time>2024-01-30T18:37:06Z</time>
      </trkpt>
      <trkpt lat="44.36719" lon="5.58226">
        <ele>834</ele>
        <time>2024-01-30T18:37:21Z</time>
      </trkpt>
      <trkpt lat="44.3671" lon="5.5824">
        <ele>837</ele>
        <time>2024-01-30T18:37:23Z</time>
      </trkpt>
      <trkpt lat="44.36695" lon="5.58243">
        <ele>836</ele>
        <time>2024-01-30T18:37:25Z</time>
      </trkpt>
      <trkpt lat="44.36582" lon="5.5824">
        <ele>831</ele>
        <time>2024-01-30T18:37:39Z</time>
      </trkpt>
      <trkpt lat="44.36483" lon="5.58258">
        <ele>826</ele>
        <time>2024-01-30T18:37:52Z</time>
      </trkpt>
      <trkpt lat="44.36466" lon="5.58269">
        <ele>825</ele>
        <time>2024-01-30T18:37:54Z</time>
      </trkpt>
      <trkpt lat="44.36447" lon="5.58286">
        <ele>825</ele>
        <time>2024-01-30T18:37:57Z</time>
      </trkpt>
      <trkpt lat="44.364" lon="5.58342">
        <ele>824</ele>
        <time>2024-01-30T18:38:06Z</time>
      </trkpt>
      <trkpt lat="44.36376" lon="5.58386">
        <ele>822</ele>
        <time>2024-01-30T18:38:11Z</time>
      </trkpt>
      <trkpt lat="44.36354" lon="5.58446">
        <ele>819</ele>
        <time>2024-01-30T18:38:19Z</time>
      </trkpt>
      <trkpt lat="44.36357" lon="5.58457">
        <ele>820</ele>
        <time>2024-01-30T18:38:20Z</time>
      </trkpt>
      <trkpt lat="44.36358" lon="5.58471">
        <ele>820</ele>
        <time>2024-01-30T18:38:21Z</time>
      </trkpt>
      <trkpt lat="44.3635" lon="5.58559">
        <ele>814</ele>
        <time>2024-01-30T18:38:31Z</time>
      </trkpt>
      <trkpt lat="44.36346" lon="5.58595">
        <ele>815</ele>
        <time>2024-01-30T18:38:35Z</time>
      </trkpt>
      <trkpt lat="44.36344" lon="5.58605">
        <ele>815</ele>
        <time>2024-01-30T18:38:36Z</time>
      </trkpt>
      <trkpt lat="44.36341" lon="5.58633">
        <ele>815</ele>
        <time>2024-01-30T18:38:40Z</time>
      </trkpt>
      <trkpt lat="44.36343" lon="5.5867">
        <ele>815</ele>
        <time>2024-01-30T18:38:44Z</time>
      </trkpt>
      <trkpt lat="44.36355" lon="5.58727">
        <ele>815</ele>
        <time>2024-01-30T18:38:51Z</time>
      </trkpt>
      <trkpt lat="44.36359" lon="5.58768">
        <ele>816</ele>
        <time>2024-01-30T18:38:56Z</time>
      </trkpt>
      <trkpt lat="44.36359" lon="5.58789">
        <ele>817</ele>
        <time>2024-01-30T18:38:58Z</time>
      </trkpt>
      <trkpt lat="44.36354" lon="5.58831">
        <ele>818</ele>
        <time>2024-01-30T18:39:04Z</time>
      </trkpt>
      <trkpt lat="44.36341" lon="5.5887">
        <ele>819</ele>
        <time>2024-01-30T18:39:09Z</time>
      </trkpt>
      <trkpt lat="44.36325" lon="5.58908">
        <ele>819</ele>
        <time>2024-01-30T18:39:15Z</time>
      </trkpt>
      <trkpt lat="44.36306" lon="5.58941">
        <ele>819</ele>
        <time>2024-01-30T18:39:21Z</time>
      </trkpt>
      <trkpt lat="44.3627" lon="5.58993">
        <ele>811</ele>
        <time>2024-01-30T18:39:31Z</time>
      </trkpt>
      <trkpt lat="44.36265" lon="5.59007">
        <ele>811</ele>
        <time>2024-01-30T18:39:33Z</time>
      </trkpt>
      <trkpt lat="44.3626" lon="5.59035">
        <ele>811</ele>
        <time>2024-01-30T18:39:37Z</time>
      </trkpt>
      <trkpt lat="44.36267" lon="5.59319">
        <ele>808</ele>
        <time>2024-01-30T18:40:07Z</time>
      </trkpt>
      <trkpt lat="44.36268" lon="5.5933">
        <ele>807</ele>
        <time>2024-01-30T18:40:08Z</time>
      </trkpt>
      <trkpt lat="44.36265" lon="5.59388">
        <ele>806</ele>
        <time>2024-01-30T18:40:14Z</time>
      </trkpt>
      <trkpt lat="44.36266" lon="5.59403">
        <ele>806</ele>
        <time>2024-01-30T18:40:15Z</time>
      </trkpt>
      <trkpt lat="44.36272" lon="5.59435">
        <ele>808</ele>
        <time>2024-01-30T18:40:19Z</time>
      </trkpt>
      <trkpt lat="44.363" lon="5.5951">
        <ele>809</ele>
        <time>2024-01-30T18:40:27Z</time>
      </trkpt>
      <trkpt lat="44.36313" lon="5.59559">
        <ele>808</ele>
        <time>2024-01-30T18:40:33Z</time>
      </trkpt>
      <trkpt lat="44.36323" lon="5.59617">
        <ele>808</ele>
        <time>2024-01-30T18:40:39Z</time>
      </trkpt>
      <trkpt lat="44.36324" lon="5.59638">
        <ele>807</ele>
        <time>2024-01-30T18:40:41Z</time>
      </trkpt>
      <trkpt lat="44.36321" lon="5.59682">
        <ele>806</ele>
        <time>2024-01-30T18:40:46Z</time>
      </trkpt>
      <trkpt lat="44.36316" lon="5.59704">
        <ele>806</ele>
        <time>2024-01-30T18:40:48Z</time>
      </trkpt>
      <trkpt lat="44.36299" lon="5.59745">
        <ele>805</ele>
        <time>2024-01-30T18:40:53Z</time>
      </trkpt>
      <trkpt lat="44.36186" lon="5.59933">
        <ele>801</ele>
        <time>2024-01-30T18:41:19Z</time>
      </trkpt>
      <trkpt lat="44.36157" lon="5.59992">
        <ele>799</ele>
        <time>2024-01-30T18:41:27Z</time>
      </trkpt>
      <trkpt lat="44.36154" lon="5.60014">
        <ele>800</ele>
        <time>2024-01-30T18:41:29Z</time>
      </trkpt>
      <trkpt lat="44.36093" lon="5.60101">
        <ele>802</ele>
        <time>2024-01-30T18:41:43Z</time>
      </trkpt>
      <trkpt lat="44.36054" lon="5.60166">
        <ele>803</ele>
        <time>2024-01-30T18:41:52Z</time>
      </trkpt>
      <trkpt lat="44.36041" lon="5.60207">
        <ele>804</ele>
        <time>2024-01-30T18:41:56Z</time>
      </trkpt>
      <trkpt lat="44.36031" lon="5.6023">
        <ele>804</ele>
        <time>2024-01-30T18:41:59Z</time>
      </trkpt>
      <trkpt lat="44.36025" lon="5.60242">
        <ele>803</ele>
        <time>2024-01-30T18:42:00Z</time>
      </trkpt>
      <trkpt lat="44.36018" lon="5.60263">
        <ele>803</ele>
        <time>2024-01-30T18:42:03Z</time>
      </trkpt>
      <trkpt lat="44.35999" lon="5.60346">
        <ele>797</ele>
        <time>2024-01-30T18:42:11Z</time>
      </trkpt>
      <trkpt lat="44.35992" lon="5.60379">
        <ele>794</ele>
        <time>2024-01-30T18:42:14Z</time>
      </trkpt>
      <trkpt lat="44.35989" lon="5.60434">
        <ele>792</ele>
        <time>2024-01-30T18:42:20Z</time>
      </trkpt>
      <trkpt lat="44.35999" lon="5.60478">
        <ele>790</ele>
        <time>2024-01-30T18:42:24Z</time>
      </trkpt>
      <trkpt lat="44.35995" lon="5.60521">
        <ele>786</ele>
        <time>2024-01-30T18:42:28Z</time>
      </trkpt>
      <trkpt lat="44.35994" lon="5.60525">
        <ele>786</ele>
        <time>2024-01-30T18:42:29Z</time>
      </trkpt>
      <trkpt lat="44.3599" lon="5.6054">
        <ele>785</ele>
        <time>2024-01-30T18:42:31Z</time>
      </trkpt>
      <trkpt lat="44.35986" lon="5.60557">
        <ele>785</ele>
        <time>2024-01-30T18:42:33Z</time>
      </trkpt>
      <trkpt lat="44.35984" lon="5.60565">
        <ele>785</ele>
        <time>2024-01-30T18:42:34Z</time>
      </trkpt>
      <trkpt lat="44.35983" lon="5.60568">
        <ele>785</ele>
      </trkpt>
      <trkpt lat="44.35958" lon="5.60651">
        <ele>788</ele>
        <time>2024-01-30T18:42:45Z</time>
      </trkpt>
      <trkpt lat="44.35939" lon="5.6069">
        <ele>787</ele>
        <time>2024-01-30T18:42:50Z</time>
      </trkpt>
      <trkpt lat="44.35909" lon="5.60731">
        <ele>784</ele>
        <time>2024-01-30T18:42:58Z</time>
      </trkpt>
      <trkpt lat="44.35898" lon="5.60751">
        <ele>783</ele>
        <time>2024-01-30T18:43:01Z</time>
      </trkpt>
      <trkpt lat="44.35893" lon="5.60764">
        <ele>782</ele>
        <time>2024-01-30T18:43:02Z</time>
      </trkpt>
      <trkpt lat="44.35886" lon="5.60794">
        <ele>783</ele>
        <time>2024-01-30T18:43:06Z</time>
      </trkpt>
      <trkpt lat="44.35884" lon="5.60812">
        <ele>783</ele>
        <time>2024-01-30T18:43:09Z</time>
      </trkpt>
      <trkpt lat="44.35885" lon="5.60884">
        <ele>787</ele>
        <time>2024-01-30T18:43:17Z</time>
      </trkpt>
      <trkpt lat="44.3588" lon="5.60969">
        <ele>789</ele>
        <time>2024-01-30T18:43:27Z</time>
      </trkpt>
      <trkpt lat="44.35891" lon="5.61084">
        <ele>789</ele>
        <time>2024-01-30T18:43:39Z</time>
      </trkpt>
      <trkpt lat="44.3592" lon="5.61217">
        <ele>788</ele>
        <time>2024-01-30T18:43:53Z</time>
      </trkpt>
      <trkpt lat="44.35921" lon="5.6124">
        <ele>788</ele>
        <time>2024-01-30T18:43:56Z</time>
      </trkpt>
      <trkpt lat="44.35912" lon="5.61282">
        <ele>786</ele>
        <time>2024-01-30T18:44:00Z</time>
      </trkpt>
      <trkpt lat="44.35914" lon="5.61307">
        <ele>784</ele>
        <time>2024-01-30T18:44:03Z</time>
      </trkpt>
      <trkpt lat="44.35929" lon="5.61333">
        <ele>782</ele>
        <time>2024-01-30T18:44:07Z</time>
      </trkpt>
      <trkpt lat="44.35961" lon="5.6137">
        <ele>782</ele>
        <time>2024-01-30T18:44:13Z</time>
      </trkpt>
      <trkpt lat="44.35979" lon="5.61397">
        <ele>782</ele>
        <time>2024-01-30T18:44:17Z</time>
      </trkpt>
      <trkpt lat="44.35987" lon="5.61415">
        <ele>782</ele>
        <time>2024-01-30T18:44:20Z</time>
      </trkpt>
      <trkpt lat="44.36001" lon="5.61473">
        <ele>782</ele>
        <time>2024-01-30T18:44:28Z</time>
      </trkpt>
      <trkpt lat="44.36004" lon="5.61513">
        <ele>780</ele>
        <time>2024-01-30T18:44:34Z</time>
      </trkpt>
      <trkpt lat="44.35997" lon="5.61554">
        <ele>780</ele>
        <time>2024-01-30T18:44:41Z</time>
      </trkpt>
      <trkpt lat="44.35993" lon="5.61617">
        <ele>780</ele>
        <time>2024-01-30T18:44:51Z</time>
      </trkpt>
      <trkpt lat="44.35991" lon="5.61638">
        <ele>780</ele>
        <time>2024-01-30T18:44:54Z</time>
      </trkpt>
      <trkpt lat="44.35976" lon="5.61717">
        <ele>781</ele>
        <time>2024-01-30T18:45:06Z</time>
      </trkpt>
      <trkpt lat="44.35971" lon="5.61755">
        <ele>780</ele>
        <time>2024-01-30T18:45:11Z</time>
      </trkpt>
      <trkpt lat="44.3597" lon="5.61774">
        <ele>777</ele>
        <time>2024-01-30T18:45:13Z</time>
      </trkpt>
      <trkpt lat="44.35972" lon="5.61815">
        <ele>776</ele>
        <time>2024-01-30T18:45:17Z</time>
      </trkpt>
      <trkpt lat="44.35975" lon="5.61836">
        <ele>775</ele>
        <time>2024-01-30T18:45:20Z</time>
      </trkpt>
      <trkpt lat="44.35999" lon="5.6194">
        <ele>776</ele>
        <time>2024-01-30T18:45:31Z</time>
      </trkpt>
      <trkpt lat="44.3601" lon="5.6198">
        <ele>776</ele>
        <time>2024-01-30T18:45:35Z</time>
      </trkpt>
      <trkpt lat="44.36026" lon="5.62021">
        <ele>774</ele>
        <time>2024-01-30T18:45:40Z</time>
      </trkpt>
      <trkpt lat="44.36063" lon="5.62096">
        <ele>772</ele>
        <time>2024-01-30T18:45:49Z</time>
      </trkpt>
      <trkpt lat="44.3608" lon="5.62138">
        <ele>772</ele>
        <time>2024-01-30T18:45:53Z</time>
      </trkpt>
      <trkpt lat="44.36086" lon="5.6216">
        <ele>771</ele>
        <time>2024-01-30T18:45:55Z</time>
      </trkpt>
      <trkpt lat="44.361" lon="5.62224">
        <ele>771</ele>
        <time>2024-01-30T18:46:01Z</time>
      </trkpt>
      <trkpt lat="44.36102" lon="5.62248">
        <ele>770</ele>
        <time>2024-01-30T18:46:04Z</time>
      </trkpt>
      <trkpt lat="44.36105" lon="5.62327">
        <ele>766</ele>
        <time>2024-01-30T18:46:11Z</time>
      </trkpt>
      <trkpt lat="44.36105" lon="5.62342">
        <ele>765</ele>
        <time>2024-01-30T18:46:13Z</time>
      </trkpt>
      <trkpt lat="44.361" lon="5.6237">
        <ele>765</ele>
        <time>2024-01-30T18:46:16Z</time>
      </trkpt>
      <trkpt lat="44.36081" lon="5.62422">
        <ele>765</ele>
        <time>2024-01-30T18:46:22Z</time>
      </trkpt>
      <trkpt lat="44.36075" lon="5.62444">
        <ele>764</ele>
        <time>2024-01-30T18:46:24Z</time>
      </trkpt>
      <trkpt lat="44.36072" lon="5.62462">
        <ele>763</ele>
        <time>2024-01-30T18:46:26Z</time>
      </trkpt>
      <trkpt lat="44.36071" lon="5.62504">
        <ele>762</ele>
        <time>2024-01-30T18:46:31Z</time>
      </trkpt>
      <trkpt lat="44.3608" lon="5.62653">
        <ele>763</ele>
        <time>2024-01-30T18:46:49Z</time>
      </trkpt>
      <trkpt lat="44.36086" lon="5.6271">
        <ele>762</ele>
        <time>2024-01-30T18:46:56Z</time>
      </trkpt>
      <trkpt lat="44.3609" lon="5.62728">
        <ele>762</ele>
        <time>2024-01-30T18:46:58Z</time>
      </trkpt>
      <trkpt lat="44.36101" lon="5.62754">
        <ele>763</ele>
        <time>2024-01-30T18:47:01Z</time>
      </trkpt>
      <trkpt lat="44.36145" lon="5.62856">
        <ele>763</ele>
        <time>2024-01-30T18:47:15Z</time>
      </trkpt>
      <trkpt lat="44.36162" lon="5.62908">
        <ele>761</ele>
        <time>2024-01-30T18:47:21Z</time>
      </trkpt>
      <trkpt lat="44.36208" lon="5.63123">
        <ele>757</ele>
        <time>2024-01-30T18:47:57Z</time>
      </trkpt>
      <trkpt lat="44.36218" lon="5.6319">
        <ele>758</ele>
        <time>2024-01-30T18:48:09Z</time>
      </trkpt>
      <trkpt lat="44.36232" lon="5.63239">
        <ele>756</ele>
        <time>2024-01-30T18:48:19Z</time>
      </trkpt>
      <trkpt lat="44.3629" lon="5.63337">
        <ele>756</ele>
        <time>2024-01-30T18:48:38Z</time>
      </trkpt>
      <trkpt lat="44.36322" lon="5.63426">
        <ele>755</ele>
        <time>2024-01-30T18:48:49Z</time>
      </trkpt>
      <trkpt lat="44.3633" lon="5.63463">
        <ele>755</ele>
        <time>2024-01-30T18:48:53Z</time>
      </trkpt>
      <trkpt lat="44.36333" lon="5.63483">
        <ele>756</ele>
        <time>2024-01-30T18:48:55Z</time>
      </trkpt>
      <trkpt lat="44.36337" lon="5.63595">
        <ele>754</ele>
        <time>2024-01-30T18:49:06Z</time>
      </trkpt>
      <trkpt lat="44.36344" lon="5.63654">
        <ele>754</ele>
        <time>2024-01-30T18:49:11Z</time>
      </trkpt>
      <trkpt lat="44.36343" lon="5.63696">
        <ele>756</ele>
        <time>2024-01-30T18:49:15Z</time>
      </trkpt>
      <trkpt lat="44.36316" lon="5.63837">
        <ele>749</ele>
        <time>2024-01-30T18:49:29Z</time>
      </trkpt>
      <trkpt lat="44.36319" lon="5.63933">
        <ele>746</ele>
        <time>2024-01-30T18:49:38Z</time>
      </trkpt>
      <trkpt lat="44.3632" lon="5.64138">
        <ele>745</ele>
        <time>2024-01-30T18:49:58Z</time>
      </trkpt>
      <trkpt lat="44.36316" lon="5.64201">
        <ele>747</ele>
        <time>2024-01-30T18:50:04Z</time>
      </trkpt>
      <trkpt lat="44.36308" lon="5.64277">
        <ele>747</ele>
        <time>2024-01-30T18:50:12Z</time>
      </trkpt>
      <trkpt lat="44.363" lon="5.64319">
        <ele>745</ele>
        <time>2024-01-30T18:50:16Z</time>
      </trkpt>
      <trkpt lat="44.36274" lon="5.6441">
        <ele>746</ele>
        <time>2024-01-30T18:50:26Z</time>
      </trkpt>
      <trkpt lat="44.36264" lon="5.64457">
        <ele>747</ele>
        <time>2024-01-30T18:50:31Z</time>
      </trkpt>
      <trkpt lat="44.36199" lon="5.64892">
        <ele>742</ele>
        <time>2024-01-30T18:51:24Z</time>
      </trkpt>
      <trkpt lat="44.36199" lon="5.64898">
        <ele>742</ele>
        <time>2024-01-30T18:51:25Z</time>
      </trkpt>
      <trkpt lat="44.36198" lon="5.64904">
        <ele>742</ele>
        <time>2024-01-30T18:51:26Z</time>
      </trkpt>
      <trkpt lat="44.36197" lon="5.64914">
        <ele>742</ele>
        <time>2024-01-30T18:51:28Z</time>
      </trkpt>
      <trkpt lat="44.36195" lon="5.64922">
        <ele>742</ele>
        <time>2024-01-30T18:51:29Z</time>
      </trkpt>
      <trkpt lat="44.36185" lon="5.64987">
        <ele>745</ele>
        <time>2024-01-30T18:51:39Z</time>
      </trkpt>
      <trkpt lat="44.36174" lon="5.65021">
        <ele>746</ele>
        <time>2024-01-30T18:51:45Z</time>
      </trkpt>
      <trkpt lat="44.36166" lon="5.65037">
        <ele>747</ele>
        <time>2024-01-30T18:51:48Z</time>
      </trkpt>
      <trkpt lat="44.36139" lon="5.65073">
        <ele>747</ele>
        <time>2024-01-30T18:51:54Z</time>
      </trkpt>
      <trkpt lat="44.36121" lon="5.65088">
        <ele>746</ele>
        <time>2024-01-30T18:51:58Z</time>
      </trkpt>
      <trkpt lat="44.36105" lon="5.65094">
        <ele>746</ele>
        <time>2024-01-30T18:52:01Z</time>
      </trkpt>
      <trkpt lat="44.36077" lon="5.65104">
        <ele>745</ele>
        <time>2024-01-30T18:52:05Z</time>
      </trkpt>
      <trkpt lat="44.36047" lon="5.65128">
        <ele>745</ele>
        <time>2024-01-30T18:52:10Z</time>
      </trkpt>
      <trkpt lat="44.36031" lon="5.65153">
        <ele>746</ele>
        <time>2024-01-30T18:52:14Z</time>
      </trkpt>
      <trkpt lat="44.3601" lon="5.65194">
        <ele>744</ele>
        <time>2024-01-30T18:52:18Z</time>
      </trkpt>
      <trkpt lat="44.35972" lon="5.65234">
        <ele>742</ele>
        <time>2024-01-30T18:52:25Z</time>
      </trkpt>
      <trkpt lat="44.35964" lon="5.65246">
        <ele>741</ele>
        <time>2024-01-30T18:52:26Z</time>
      </trkpt>
      <trkpt lat="44.3592" lon="5.65353">
        <ele>738</ele>
        <time>2024-01-30T18:52:38Z</time>
      </trkpt>
      <trkpt lat="44.35881" lon="5.6543">
        <ele>734</ele>
        <time>2024-01-30T18:52:48Z</time>
      </trkpt>
      <trkpt lat="44.35854" lon="5.65517">
        <ele>732</ele>
        <time>2024-01-30T18:52:59Z</time>
      </trkpt>
      <trkpt lat="44.35843" lon="5.65569">
        <ele>732</ele>
        <time>2024-01-30T18:53:05Z</time>
      </trkpt>
      <trkpt lat="44.3583" lon="5.65697">
        <ele>730</ele>
        <time>2024-01-30T18:53:20Z</time>
      </trkpt>
      <trkpt lat="44.35799" lon="5.65887">
        <ele>729</ele>
        <time>2024-01-30T18:53:42Z</time>
      </trkpt>
      <trkpt lat="44.35785" lon="5.65928">
        <ele>728</ele>
        <time>2024-01-30T18:53:47Z</time>
      </trkpt>
      <trkpt lat="44.35738" lon="5.6603">
        <ele>724</ele>
        <time>2024-01-30T18:54:01Z</time>
      </trkpt>
      <trkpt lat="44.35696" lon="5.6617">
        <ele>726</ele>
        <time>2024-01-30T18:54:19Z</time>
      </trkpt>
      <trkpt lat="44.35666" lon="5.66239">
        <ele>725</ele>
        <time>2024-01-30T18:54:28Z</time>
      </trkpt>
      <trkpt lat="44.35614" lon="5.66357">
        <ele>721</ele>
        <time>2024-01-30T18:54:43Z</time>
      </trkpt>
      <trkpt lat="44.35574" lon="5.66486">
        <ele>716</ele>
        <time>2024-01-30T18:55:05Z</time>
      </trkpt>
      <trkpt lat="44.35561" lon="5.66526">
        <ele>715</ele>
        <time>2024-01-30T18:55:15Z</time>
      </trkpt>
      <trkpt lat="44.35529" lon="5.6658">
        <ele>714</ele>
        <time>2024-01-30T18:55:30Z</time>
      </trkpt>
      <trkpt lat="44.35491" lon="5.66652">
        <ele>713</ele>
        <time>2024-01-30T18:55:46Z</time>
      </trkpt>
      <trkpt lat="44.35473" lon="5.66694">
        <ele>712</ele>
        <time>2024-01-30T18:55:53Z</time>
      </trkpt>
      <trkpt lat="44.35461" lon="5.66734">
        <ele>711</ele>
        <time>2024-01-30T18:55:58Z</time>
      </trkpt>
      <trkpt lat="44.35456" lon="5.66776">
        <ele>711</ele>
        <time>2024-01-30T18:56:02Z</time>
      </trkpt>
      <trkpt lat="44.35457" lon="5.668">
        <ele>711</ele>
        <time>2024-01-30T18:56:05Z</time>
      </trkpt>
      <trkpt lat="44.35463" lon="5.66839">
        <ele>710</ele>
        <time>2024-01-30T18:56:09Z</time>
      </trkpt>
      <trkpt lat="44.35476" lon="5.66887">
        <ele>709</ele>
        <time>2024-01-30T18:56:13Z</time>
      </trkpt>
      <trkpt lat="44.35492" lon="5.66931">
        <ele>709</ele>
        <time>2024-01-30T18:56:17Z</time>
      </trkpt>
      <trkpt lat="44.35513" lon="5.66972">
        <ele>708</ele>
        <time>2024-01-30T18:56:22Z</time>
      </trkpt>
      <trkpt lat="44.35526" lon="5.67006">
        <ele>708</ele>
        <time>2024-01-30T18:56:26Z</time>
      </trkpt>
      <trkpt lat="44.35531" lon="5.67052">
        <ele>708</ele>
        <time>2024-01-30T18:56:31Z</time>
      </trkpt>
      <trkpt lat="44.35531" lon="5.67078">
        <ele>708</ele>
        <time>2024-01-30T18:56:33Z</time>
      </trkpt>
      <trkpt lat="44.35526" lon="5.67121">
        <ele>709</ele>
        <time>2024-01-30T18:56:39Z</time>
      </trkpt>
      <trkpt lat="44.35517" lon="5.67155">
        <ele>707</ele>
        <time>2024-01-30T18:56:44Z</time>
      </trkpt>
      <trkpt lat="44.35504" lon="5.67183">
        <ele>707</ele>
        <time>2024-01-30T18:56:49Z</time>
      </trkpt>
      <trkpt lat="44.35461" lon="5.67246">
        <ele>706</ele>
        <time>2024-01-30T18:57:05Z</time>
      </trkpt>
      <trkpt lat="44.3544" lon="5.6729">
        <ele>705</ele>
        <time>2024-01-30T18:57:14Z</time>
      </trkpt>
      <trkpt lat="44.35434" lon="5.67307">
        <ele>704</ele>
        <time>2024-01-30T18:57:17Z</time>
      </trkpt>
      <trkpt lat="44.35431" lon="5.67327">
        <ele>704</ele>
        <time>2024-01-30T18:57:20Z</time>
      </trkpt>
      <trkpt lat="44.35428" lon="5.67386">
        <ele>704</ele>
        <time>2024-01-30T18:57:27Z</time>
      </trkpt>
      <trkpt lat="44.35401" lon="5.67491">
        <ele>703</ele>
        <time>2024-01-30T18:57:40Z</time>
      </trkpt>
      <trkpt lat="44.35378" lon="5.67551">
        <ele>703</ele>
        <time>2024-01-30T18:57:47Z</time>
      </trkpt>
      <trkpt lat="44.35325" lon="5.67652">
        <ele>698</ele>
        <time>2024-01-30T18:57:59Z</time>
      </trkpt>
      <trkpt lat="44.35315" lon="5.67679">
        <ele>697</ele>
        <time>2024-01-30T18:58:02Z</time>
      </trkpt>
      <trkpt lat="44.35312" lon="5.67707">
        <ele>697</ele>
        <time>2024-01-30T18:58:05Z</time>
      </trkpt>
      <trkpt lat="44.35325" lon="5.67834">
        <ele>698</ele>
        <time>2024-01-30T18:58:16Z</time>
      </trkpt>
      <trkpt lat="44.35325" lon="5.67866">
        <ele>697</ele>
        <time>2024-01-30T18:58:19Z</time>
      </trkpt>
      <trkpt lat="44.35313" lon="5.67908">
        <ele>696</ele>
        <time>2024-01-30T18:58:23Z</time>
      </trkpt>
      <trkpt lat="44.35288" lon="5.67957">
        <ele>694</ele>
        <time>2024-01-30T18:58:28Z</time>
      </trkpt>
      <trkpt lat="44.35255" lon="5.68013">
        <ele>695</ele>
        <time>2024-01-30T18:58:35Z</time>
      </trkpt>
      <trkpt lat="44.35245" lon="5.68031">
        <ele>695</ele>
        <time>2024-01-30T18:58:37Z</time>
      </trkpt>
      <trkpt lat="44.3524" lon="5.68039">
        <ele>696</ele>
        <time>2024-01-30T18:58:38Z</time>
      </trkpt>
      <trkpt lat="44.35204" lon="5.68103">
        <ele>698</ele>
        <time>2024-01-30T18:58:47Z</time>
      </trkpt>
      <trkpt lat="44.35189" lon="5.68138">
        <ele>696</ele>
        <time>2024-01-30T18:58:51Z</time>
      </trkpt>
      <trkpt lat="44.35177" lon="5.68208">
        <ele>697</ele>
        <time>2024-01-30T18:58:59Z</time>
      </trkpt>
      <trkpt lat="44.35136" lon="5.6831">
        <ele>695</ele>
        <time>2024-01-30T18:59:12Z</time>
      </trkpt>
      <trkpt lat="44.3513" lon="5.68332">
        <ele>695</ele>
        <time>2024-01-30T18:59:15Z</time>
      </trkpt>
      <trkpt lat="44.35125" lon="5.68352">
        <ele>694</ele>
        <time>2024-01-30T18:59:18Z</time>
      </trkpt>
      <trkpt lat="44.35118" lon="5.68425">
        <ele>692</ele>
        <time>2024-01-30T18:59:30Z</time>
      </trkpt>
      <trkpt lat="44.35107" lon="5.68464">
        <ele>691</ele>
        <time>2024-01-30T18:59:37Z</time>
      </trkpt>
      <trkpt lat="44.35097" lon="5.68488">
        <ele>692</ele>
        <time>2024-01-30T18:59:43Z</time>
      </trkpt>
      <trkpt lat="44.35068" lon="5.68535">
        <ele>693</ele>
        <time>2024-01-30T18:59:57Z</time>
      </trkpt>
      <trkpt lat="44.35012" lon="5.68591">
        <ele>693</ele>
        <time>2024-01-30T19:00:18Z</time>
      </trkpt>
      <trkpt lat="44.35002" lon="5.68614">
        <ele>692</ele>
        <time>2024-01-30T19:00:23Z</time>
      </trkpt>
      <trkpt lat="44.34999" lon="5.68654">
        <ele>691</ele>
        <time>2024-01-30T19:00:30Z</time>
      </trkpt>
      <trkpt lat="44.34998" lon="5.68754">
        <ele>687</ele>
        <time>2024-01-30T19:00:42Z</time>
      </trkpt>
      <trkpt lat="44.34992" lon="5.68798">
        <ele>686</ele>
        <time>2024-01-30T19:00:47Z</time>
      </trkpt>
      <trkpt lat="44.34978" lon="5.6884">
        <ele>686</ele>
        <time>2024-01-30T19:00:51Z</time>
      </trkpt>
      <trkpt lat="44.34975" lon="5.68861">
        <ele>689</ele>
        <time>2024-01-30T19:00:53Z</time>
      </trkpt>
      <trkpt lat="44.34974" lon="5.68942">
        <ele>683</ele>
        <time>2024-01-30T19:01:01Z</time>
      </trkpt>
      <trkpt lat="44.34957" lon="5.6902">
        <ele>679</ele>
        <time>2024-01-30T19:01:08Z</time>
      </trkpt>
      <trkpt lat="44.34912" lon="5.69183">
        <ele>677</ele>
        <time>2024-01-30T19:01:28Z</time>
      </trkpt>
      <trkpt lat="44.34897" lon="5.69224">
        <ele>677</ele>
        <time>2024-01-30T19:01:37Z</time>
      </trkpt>
      <trkpt lat="44.34868" lon="5.69284">
        <ele>674</ele>
        <time>2024-01-30T19:01:52Z</time>
      </trkpt>
      <trkpt lat="44.34862" lon="5.69301">
        <ele>674</ele>
        <time>2024-01-30T19:01:57Z</time>
      </trkpt>
      <trkpt lat="44.34853" lon="5.69351">
        <ele>674</ele>
        <time>2024-01-30T19:02:08Z</time>
      </trkpt>
      <trkpt lat="44.34847" lon="5.69506">
        <ele>673</ele>
        <time>2024-01-30T19:02:38Z</time>
      </trkpt>
      <trkpt lat="44.34834" lon="5.69594">
        <ele>672</ele>
        <time>2024-01-30T19:02:48Z</time>
      </trkpt>
      <trkpt lat="44.34824" lon="5.69717">
        <ele>671</ele>
        <time>2024-01-30T19:02:59Z</time>
      </trkpt>
      <trkpt lat="44.34827" lon="5.69783">
        <ele>671</ele>
        <time>2024-01-30T19:03:04Z</time>
      </trkpt>
      <trkpt lat="44.3483" lon="5.69813">
        <ele>671</ele>
        <time>2024-01-30T19:03:07Z</time>
      </trkpt>
      <trkpt lat="44.34838" lon="5.69842">
        <ele>670</ele>
        <time>2024-01-30T19:03:09Z</time>
      </trkpt>
      <trkpt lat="44.3485" lon="5.69865">
        <ele>670</ele>
        <time>2024-01-30T19:03:12Z</time>
      </trkpt>
      <trkpt lat="44.34868" lon="5.69884">
        <ele>669</ele>
        <time>2024-01-30T19:03:14Z</time>
      </trkpt>
      <trkpt lat="44.34885" lon="5.69894">
        <ele>669</ele>
        <time>2024-01-30T19:03:16Z</time>
      </trkpt>
      <trkpt lat="44.34916" lon="5.69909">
        <ele>668</ele>
        <time>2024-01-30T19:03:20Z</time>
      </trkpt>
      <trkpt lat="44.3496" lon="5.69947">
        <ele>667</ele>
        <time>2024-01-30T19:03:26Z</time>
      </trkpt>
      <trkpt lat="44.35017" lon="5.69982">
        <ele>668</ele>
        <time>2024-01-30T19:03:34Z</time>
      </trkpt>
      <trkpt lat="44.35027" lon="5.69992">
        <ele>669</ele>
        <time>2024-01-30T19:03:36Z</time>
      </trkpt>
      <trkpt lat="44.35043" lon="5.70017">
        <ele>670</ele>
        <time>2024-01-30T19:03:40Z</time>
      </trkpt>
      <trkpt lat="44.3505" lon="5.70033">
        <ele>670</ele>
        <time>2024-01-30T19:03:42Z</time>
      </trkpt>
      <trkpt lat="44.35059" lon="5.7007">
        <ele>670</ele>
        <time>2024-01-30T19:03:46Z</time>
      </trkpt>
      <trkpt lat="44.35085" lon="5.70271">
        <ele>674</ele>
        <time>2024-01-30T19:04:10Z</time>
      </trkpt>
      <trkpt lat="44.35104" lon="5.70432">
        <ele>672</ele>
        <time>2024-01-30T19:04:28Z</time>
      </trkpt>
      <trkpt lat="44.35113" lon="5.70473">
        <ele>672</ele>
        <time>2024-01-30T19:04:32Z</time>
      </trkpt>
      <trkpt lat="44.35125" lon="5.70507">
        <ele>672</ele>
        <time>2024-01-30T19:04:36Z</time>
      </trkpt>
      <trkpt lat="44.35127" lon="5.7051">
        <ele>672</ele>
        <time>2024-01-30T19:04:37Z</time>
      </trkpt>
      <trkpt lat="44.35129" lon="5.70516">
        <ele>671</ele>
      </trkpt>
      <trkpt lat="44.35138" lon="5.7054">
        <ele>672</ele>
        <time>2024-01-30T19:04:41Z</time>
      </trkpt>
      <trkpt lat="44.35149" lon="5.70567">
        <ele>673</ele>
        <time>2024-01-30T19:04:44Z</time>
      </trkpt>
      <trkpt lat="44.35205" lon="5.70708">
        <ele>673</ele>
        <time>2024-01-30T19:05:01Z</time>
      </trkpt>
      <trkpt lat="44.35233" lon="5.70771">
        <ele>676</ele>
        <time>2024-01-30T19:05:09Z</time>
      </trkpt>
      <trkpt lat="44.35243" lon="5.70782">
        <ele>677</ele>
        <time>2024-01-30T19:05:11Z</time>
      </trkpt>
      <trkpt lat="44.35249" lon="5.70787">
        <ele>676</ele>
        <time>2024-01-30T19:05:12Z</time>
      </trkpt>
      <trkpt lat="44.35279" lon="5.70806">
        <ele>680</ele>
        <time>2024-01-30T19:05:14Z</time>
      </trkpt>
      <trkpt lat="44.35325" lon="5.70823">
        <ele>680</ele>
        <time>2024-01-30T19:05:19Z</time>
      </trkpt>
      <trkpt lat="44.35343" lon="5.7083">
        <ele>680</ele>
        <time>2024-01-30T19:05:21Z</time>
      </trkpt>
      <trkpt lat="44.35385" lon="5.70845">
        <ele>680</ele>
      </trkpt>
      <trkpt lat="44.35388" lon="5.70851">
        <ele>679</ele>
      </trkpt>
      <trkpt lat="44.35386" lon="5.70878">
        <ele>675</ele>
      </trkpt>
      <trkpt lat="44.35408" lon="5.70895">
        <ele>675</ele>
      </trkpt>
      <trkpt lat="44.35416" lon="5.70901">
        <ele>674</ele>
      </trkpt>
      <trkpt lat="44.35412" lon="5.70937">
        <ele>670</ele>
      </trkpt>
      <trkpt lat="44.35402" lon="5.70981">
        <ele>665</ele>
      </trkpt>
      <trkpt lat="44.35406" lon="5.71003">
        <ele>664</ele>
      </trkpt>
      <trkpt lat="44.3539" lon="5.71015">
        <ele>663</ele>
      </trkpt>
      <trkpt lat="44.3538" lon="5.71034">
        <ele>662</ele>
      </trkpt>
      <trkpt lat="44.35362" lon="5.71034">
        <ele>661</ele>
      </trkpt>
      <trkpt lat="44.35335" lon="5.71034">
        <ele>659</ele>
        <time>2024-01-30T19:05:27Z</time>
      </trkpt>
      <trkpt lat="44.35319" lon="5.71037">
        <ele>657</ele>
        <time>2024-01-30T19:05:36Z</time>
      </trkpt>
      <trkpt lat="44.35302" lon="5.7104">
        <ele>656</ele>
        <time>2024-01-30T19:05:38Z</time>
      </trkpt>
      <trkpt lat="44.35263" lon="5.71046">
        <ele>653</ele>
        <time>2024-01-30T19:05:42Z</time>
      </trkpt>
      <trkpt lat="44.3525" lon="5.71052">
        <ele>651</ele>
        <time>2024-01-30T19:05:48Z</time>
      </trkpt>
      <trkpt lat="44.35243" lon="5.71061">
        <ele>650</ele>
        <time>2024-01-30T19:06:40Z</time>
      </trkpt>
      <trkpt lat="44.35237" lon="5.71069">
        <ele>650</ele>
        <time>2024-01-30T19:06:43Z</time>
      </trkpt>
      <trkpt lat="44.35228" lon="5.71082">
        <ele>650</ele>
        <time>2024-01-30T19:06:47Z</time>
      </trkpt>
      <trkpt lat="44.35219" lon="5.71096">
        <ele>652</ele>
        <time>2024-01-30T19:06:52Z</time>
      </trkpt>
      <trkpt lat="44.35209" lon="5.7114">
        <ele>656</ele>
        <time>2024-01-30T19:07:02Z</time>
      </trkpt>
      <trkpt lat="44.35207" lon="5.7118">
        <ele>657</ele>
        <time>2024-01-30T19:07:10Z</time>
      </trkpt>
      <trkpt lat="44.35196" lon="5.71257">
        <ele>658</ele>
        <time>2024-01-30T19:07:23Z</time>
      </trkpt>
      <trkpt lat="44.35196" lon="5.71275">
        <ele>658</ele>
        <time>2024-01-30T19:07:26Z</time>
      </trkpt>
      <trkpt lat="44.35199" lon="5.71304">
        <ele>658</ele>
        <time>2024-01-30T19:07:30Z</time>
      </trkpt>
      <trkpt lat="44.35206" lon="5.71327">
        <ele>658</ele>
        <time>2024-01-30T19:07:33Z</time>
      </trkpt>
      <trkpt lat="44.35231" lon="5.71385">
        <ele>657</ele>
        <time>2024-01-30T19:07:41Z</time>
      </trkpt>
      <trkpt lat="44.35238" lon="5.71406">
        <ele>656</ele>
        <time>2024-01-30T19:07:44Z</time>
      </trkpt>
      <trkpt lat="44.35241" lon="5.71432">
        <ele>656</ele>
        <time>2024-01-30T19:07:48Z</time>
      </trkpt>
      <trkpt lat="44.3524" lon="5.71464">
        <ele>657</ele>
        <time>2024-01-30T19:07:54Z</time>
      </trkpt>
      <trkpt lat="44.35233" lon="5.71495">
        <ele>656</ele>
        <time>2024-01-30T19:08:00Z</time>
      </trkpt>
      <trkpt lat="44.35209" lon="5.7156">
        <ele>653</ele>
        <time>2024-01-30T19:08:11Z</time>
      </trkpt>
      <trkpt lat="44.35172" lon="5.71657">
        <ele>652</ele>
        <time>2024-01-30T19:08:28Z</time>
      </trkpt>
      <trkpt lat="44.3517" lon="5.71691">
        <ele>651</ele>
        <time>2024-01-30T19:08:35Z</time>
      </trkpt>
      <trkpt lat="44.35175" lon="5.71712">
        <ele>651</ele>
        <time>2024-01-30T19:08:38Z</time>
      </trkpt>
      <trkpt lat="44.35198" lon="5.71749">
        <ele>651</ele>
        <time>2024-01-30T19:08:48Z</time>
      </trkpt>
      <trkpt lat="44.35198" lon="5.71763">
        <ele>651</ele>
        <time>2024-01-30T19:08:51Z</time>
      </trkpt>
      <trkpt lat="44.35191" lon="5.71794">
        <ele>652</ele>
        <time>2024-01-30T19:08:57Z</time>
      </trkpt>
      <trkpt lat="44.352" lon="5.71818">
        <ele>654</ele>
        <time>2024-01-30T19:09:01Z</time>
      </trkpt>
      <trkpt lat="44.35215" lon="5.71834">
        <ele>654</ele>
        <time>2024-01-30T19:09:05Z</time>
      </trkpt>
      <trkpt lat="44.35233" lon="5.71874">
        <ele>654</ele>
        <time>2024-01-30T19:09:11Z</time>
      </trkpt>
      <trkpt lat="44.35242" lon="5.72009">
        <ele>652</ele>
        <time>2024-01-30T19:09:33Z</time>
      </trkpt>
      <trkpt lat="44.35235" lon="5.72049">
        <ele>652</ele>
        <time>2024-01-30T19:09:41Z</time>
      </trkpt>
      <trkpt lat="44.35227" lon="5.72064">
        <ele>655</ele>
        <time>2024-01-30T19:09:45Z</time>
      </trkpt>
      <trkpt lat="44.35225" lon="5.72078">
        <ele>656</ele>
        <time>2024-01-30T19:09:48Z</time>
      </trkpt>
      <trkpt lat="44.35238" lon="5.72168">
        <ele>650</ele>
        <time>2024-01-30T19:10:07Z</time>
      </trkpt>
      <trkpt lat="44.35236" lon="5.72191">
        <ele>653</ele>
        <time>2024-01-30T19:10:11Z</time>
      </trkpt>
      <trkpt lat="44.3522" lon="5.7227">
        <ele>653</ele>
        <time>2024-01-30T19:10:27Z</time>
      </trkpt>
      <trkpt lat="44.35209" lon="5.72336">
        <ele>652</ele>
        <time>2024-01-30T19:10:36Z</time>
      </trkpt>
      <trkpt lat="44.35186" lon="5.72389">
        <ele>654</ele>
        <time>2024-01-30T19:10:43Z</time>
      </trkpt>
      <trkpt lat="44.35174" lon="5.72481">
        <ele>655</ele>
        <time>2024-01-30T19:10:52Z</time>
      </trkpt>
      <trkpt lat="44.3519" lon="5.72538">
        <ele>649</ele>
        <time>2024-01-30T19:10:57Z</time>
      </trkpt>
      <trkpt lat="44.35195" lon="5.72578">
        <ele>647</ele>
        <time>2024-01-30T19:11:01Z</time>
      </trkpt>
      <trkpt lat="44.35215" lon="5.72643">
        <ele>639</ele>
        <time>2024-01-30T19:11:07Z</time>
      </trkpt>
      <trkpt lat="44.35218" lon="5.72671">
        <ele>638</ele>
        <time>2024-01-30T19:11:10Z</time>
      </trkpt>
      <trkpt lat="44.3519" lon="5.72768">
        <ele>637</ele>
        <time>2024-01-30T19:11:19Z</time>
      </trkpt>
      <trkpt lat="44.35182" lon="5.72832">
        <ele>637</ele>
        <time>2024-01-30T19:11:26Z</time>
      </trkpt>
      <trkpt lat="44.35167" lon="5.72893">
        <ele>639</ele>
        <time>2024-01-30T19:11:32Z</time>
      </trkpt>
      <trkpt lat="44.35163" lon="5.72975">
        <ele>635</ele>
        <time>2024-01-30T19:11:47Z</time>
      </trkpt>
      <trkpt lat="44.35136" lon="5.73119">
        <ele>634</ele>
        <time>2024-01-30T19:12:14Z</time>
      </trkpt>
      <trkpt lat="44.35118" lon="5.7315">
        <ele>634</ele>
        <time>2024-01-30T19:12:21Z</time>
      </trkpt>
      <trkpt lat="44.35116" lon="5.73164">
        <ele>634</ele>
        <time>2024-01-30T19:12:24Z</time>
      </trkpt>
      <trkpt lat="44.35103" lon="5.73205">
        <ele>635</ele>
        <time>2024-01-30T19:12:32Z</time>
      </trkpt>
      <trkpt lat="44.35087" lon="5.73233">
        <ele>638</ele>
        <time>2024-01-30T19:12:39Z</time>
      </trkpt>
      <trkpt lat="44.35076" lon="5.73274">
        <ele>638</ele>
        <time>2024-01-30T19:12:48Z</time>
      </trkpt>
      <trkpt lat="44.35067" lon="5.73297">
        <ele>639</ele>
        <time>2024-01-30T19:12:54Z</time>
      </trkpt>
      <trkpt lat="44.35052" lon="5.73326">
        <ele>640</ele>
        <time>2024-01-30T19:13:02Z</time>
      </trkpt>
      <trkpt lat="44.35028" lon="5.73358">
        <ele>642</ele>
        <time>2024-01-30T19:13:14Z</time>
      </trkpt>
      <trkpt lat="44.34948" lon="5.73445">
        <ele>644</ele>
        <time>2024-01-30T19:13:45Z</time>
      </trkpt>
      <trkpt lat="44.34927" lon="5.73479">
        <ele>642</ele>
        <time>2024-01-30T19:13:53Z</time>
      </trkpt>
      <trkpt lat="44.34907" lon="5.73501">
        <ele>641</ele>
        <time>2024-01-30T19:13:59Z</time>
      </trkpt>
      <trkpt lat="44.34882" lon="5.73519">
        <ele>643</ele>
        <time>2024-01-30T19:14:06Z</time>
      </trkpt>
      <trkpt lat="44.34886" lon="5.73535">
        <ele>642</ele>
        <time>2024-01-30T19:14:09Z</time>
      </trkpt>
      <trkpt lat="44.34894" lon="5.73548">
        <ele>639</ele>
        <time>2024-01-30T19:14:12Z</time>
      </trkpt>
      <trkpt lat="44.34911" lon="5.73561">
        <ele>636</ele>
        <time>2024-01-30T19:14:17Z</time>
      </trkpt>
      <trkpt lat="44.34918" lon="5.73573">
        <ele>635</ele>
        <time>2024-01-30T19:14:19Z</time>
      </trkpt>
      <trkpt lat="44.34919" lon="5.73584">
        <ele>635</ele>
        <time>2024-01-30T19:14:21Z</time>
      </trkpt>
      <trkpt lat="44.34899" lon="5.73681">
        <ele>636</ele>
        <time>2024-01-30T19:14:37Z</time>
      </trkpt>
      <trkpt lat="44.34892" lon="5.73734">
        <ele>633</ele>
        <time>2024-01-30T19:14:46Z</time>
      </trkpt>
      <trkpt lat="44.3488" lon="5.73778">
        <ele>630</ele>
        <time>2024-01-30T19:14:53Z</time>
      </trkpt>
      <trkpt lat="44.34883" lon="5.73794">
        <ele>628</ele>
        <time>2024-01-30T19:14:56Z</time>
      </trkpt>
      <trkpt lat="44.34891" lon="5.73813">
        <ele>626</ele>
        <time>2024-01-30T19:15:00Z</time>
      </trkpt>
      <trkpt lat="44.34879" lon="5.73853">
        <ele>625</ele>
        <time>2024-01-30T19:15:07Z</time>
      </trkpt>
      <trkpt lat="44.34863" lon="5.73891">
        <ele>625</ele>
        <time>2024-01-30T19:15:14Z</time>
      </trkpt>
      <trkpt lat="44.34843" lon="5.73966">
        <ele>626</ele>
        <time>2024-01-30T19:15:28Z</time>
      </trkpt>
      <trkpt lat="44.34817" lon="5.74045">
        <ele>623</ele>
        <time>2024-01-30T19:15:44Z</time>
      </trkpt>
      <trkpt lat="44.34807" lon="5.74084">
        <ele>621</ele>
        <time>2024-01-30T19:15:51Z</time>
      </trkpt>
      <trkpt lat="44.34796" lon="5.74115">
        <ele>620</ele>
        <time>2024-01-30T19:15:58Z</time>
      </trkpt>
      <trkpt lat="44.34781" lon="5.74147">
        <ele>620</ele>
        <time>2024-01-30T19:16:05Z</time>
      </trkpt>
      <trkpt lat="44.34763" lon="5.74168">
        <ele>620</ele>
        <time>2024-01-30T19:16:12Z</time>
      </trkpt>
      <trkpt lat="44.34738" lon="5.74205">
        <ele>619</ele>
        <time>2024-01-30T19:16:22Z</time>
      </trkpt>
      <trkpt lat="44.34719" lon="5.74239">
        <ele>619</ele>
        <time>2024-01-30T19:16:31Z</time>
      </trkpt>
      <trkpt lat="44.34703" lon="5.74256">
        <ele>619</ele>
        <time>2024-01-30T19:16:38Z</time>
      </trkpt>
      <trkpt lat="44.34683" lon="5.74252">
        <ele>622</ele>
        <time>2024-01-30T19:16:42Z</time>
      </trkpt>
      <trkpt lat="44.34641" lon="5.74252">
        <ele>627</ele>
        <time>2024-01-30T19:16:51Z</time>
      </trkpt>
      <trkpt lat="44.34628" lon="5.74255">
        <ele>628</ele>
        <time>2024-01-30T19:16:54Z</time>
      </trkpt>
      <trkpt lat="44.34597" lon="5.74296">
        <ele>629</ele>
        <time>2024-01-30T19:17:04Z</time>
      </trkpt>
      <trkpt lat="44.3457" lon="5.74297">
        <ele>630</ele>
        <time>2024-01-30T19:17:15Z</time>
      </trkpt>
      <trkpt lat="44.34547" lon="5.74291">
        <ele>631</ele>
        <time>2024-01-30T19:17:18Z</time>
      </trkpt>
      <trkpt lat="44.34531" lon="5.74337">
        <ele>629</ele>
        <time>2024-01-30T19:17:22Z</time>
      </trkpt>
      <trkpt lat="44.34507" lon="5.74429">
        <ele>626</ele>
      </trkpt>
      <trkpt lat="44.34498" lon="5.74457">
        <ele>625</ele>
      </trkpt>
      <trkpt lat="44.34476" lon="5.74574">
        <ele>622</ele>
      </trkpt>
      <trkpt lat="44.34474" lon="5.74647">
        <ele>620</ele>
        <time>2024-01-30T19:17:39Z</time>
      </trkpt>
      <trkpt lat="44.34456" lon="5.74717">
        <ele>620</ele>
        <time>2024-01-30T19:17:43Z</time>
      </trkpt>
      <trkpt lat="44.3446" lon="5.7479">
        <ele>616</ele>
      </trkpt>
      <trkpt lat="44.34446" lon="5.74836">
        <ele>615</ele>
        <time>2024-01-30T19:17:50Z</time>
      </trkpt>
      <trkpt lat="44.34447" lon="5.74892">
        <ele>612</ele>
        <time>2024-01-30T19:18:02Z</time>
      </trkpt>
      <trkpt lat="44.34426" lon="5.74902">
        <ele>616</ele>
        <time>2024-01-30T19:18:10Z</time>
      </trkpt>
      <trkpt lat="44.34409" lon="5.74928">
        <ele>620</ele>
        <time>2024-01-30T19:18:20Z</time>
      </trkpt>
      <trkpt lat="44.34404" lon="5.74931">
        <ele>621</ele>
      </trkpt>
      <trkpt lat="44.34398" lon="5.74927">
        <ele>624</ele>
        <time>2024-01-30T19:18:22Z</time>
      </trkpt>
      <trkpt lat="44.34395" lon="5.74926">
        <ele>625</ele>
      </trkpt>
      <trkpt lat="44.34396" lon="5.74911">
        <ele>625</ele>
      </trkpt>
      <trkpt lat="44.344" lon="5.74896">
        <ele>625</ele>
        <time>2024-01-30T19:18:24Z</time>
      </trkpt>
      <trkpt lat="44.34399" lon="5.74894">
        <ele>626</ele>
      </trkpt>
      <trkpt lat="44.34396" lon="5.749">
        <ele>626</ele>
      </trkpt>
      <trkpt lat="44.34395" lon="5.74905">
        <ele>626</ele>
      </trkpt>
      <trkpt lat="44.3439" lon="5.74907">
        <ele>628</ele>
      </trkpt>
      <trkpt lat="44.34385" lon="5.74929">
        <ele>629</ele>
      </trkpt>
      <trkpt lat="44.34385" lon="5.74946">
        <ele>627</ele>
      </trkpt>
      <trkpt lat="44.34377" lon="5.74967">
        <ele>630</ele>
      </trkpt>
      <trkpt lat="44.34375" lon="5.7499">
        <ele>627</ele>
      </trkpt>
      <trkpt lat="44.34366" lon="5.75013">
        <ele>624</ele>
      </trkpt>
      <trkpt lat="44.34364" lon="5.75011">
        <ele>625</ele>
      </trkpt>
      <trkpt lat="44.34367" lon="5.74998">
        <ele>628</ele>
      </trkpt>
      <trkpt lat="44.34368" lon="5.74976">
        <ele>633</ele>
      </trkpt>
      <trkpt lat="44.34366" lon="5.74965">
        <ele>635</ele>
      </trkpt>
      <trkpt lat="44.34366" lon="5.74956">
        <ele>636</ele>
      </trkpt>
      <trkpt lat="44.34359" lon="5.74944">
        <ele>640</ele>
      </trkpt>
      <trkpt lat="44.34357" lon="5.74937">
        <ele>642</ele>
      </trkpt>
      <trkpt lat="44.34354" lon="5.74944">
        <ele>643</ele>
      </trkpt>
      <trkpt lat="44.34356" lon="5.74985">
        <ele>636</ele>
      </trkpt>
      <trkpt lat="44.34351" lon="5.74991">
        <ele>637</ele>
      </trkpt>
      <trkpt lat="44.34337" lon="5.74997">
        <ele>642</ele>
      </trkpt>
      <trkpt lat="44.34282" lon="5.75016">
        <ele>650</ele>
      </trkpt>
      <trkpt lat="44.34265" lon="5.7503">
        <ele>648</ele>
      </trkpt>
      <trkpt lat="44.3425" lon="5.75035">
        <ele>649</ele>
      </trkpt>
      <trkpt lat="44.34237" lon="5.75014">
        <ele>656</ele>
      </trkpt>
      <trkpt lat="44.34192" lon="5.74999">
        <ele>661</ele>
      </trkpt>
      <trkpt lat="44.34181" lon="5.74986">
        <ele>662</ele>
      </trkpt>
      <trkpt lat="44.34163" lon="5.74984">
        <ele>662</ele>
      </trkpt>
      <trkpt lat="44.34146" lon="5.7499">
        <ele>662</ele>
      </trkpt>
      <trkpt lat="44.34133" lon="5.75005">
        <ele>663</ele>
      </trkpt>
      <trkpt lat="44.34133" lon="5.75014">
        <ele>663</ele>
      </trkpt>
      <trkpt lat="44.34159" lon="5.75037">
        <ele>662</ele>
      </trkpt>
      <trkpt lat="44.34171" lon="5.75071">
        <ele>662</ele>
      </trkpt>
      <trkpt lat="44.34186" lon="5.75147">
        <ele>662</ele>
      </trkpt>
      <trkpt lat="44.34187" lon="5.75182">
        <ele>662</ele>
      </trkpt>
      <trkpt lat="44.34208" lon="5.75205">
        <ele>659</ele>
      </trkpt>
      <trkpt lat="44.34211" lon="5.75231">
        <ele>659</ele>
      </trkpt>
      <trkpt lat="44.34156" lon="5.7542">
        <ele>660</ele>
      </trkpt>
      <trkpt lat="44.34159" lon="5.75528">
        <ele>659</ele>
      </trkpt>
      <trkpt lat="44.34156" lon="5.75547">
        <ele>659</ele>
      </trkpt>
      <trkpt lat="44.34144" lon="5.75559">
        <ele>662</ele>
      </trkpt>
      <trkpt lat="44.34102" lon="5.75565">
        <ele>661</ele>
      </trkpt>
      <trkpt lat="44.34085" lon="5.75535">
        <ele>659</ele>
      </trkpt>
      <trkpt lat="44.34064" lon="5.7551">
        <ele>658</ele>
      </trkpt>
      <trkpt lat="44.34051" lon="5.7551">
        <ele>657</ele>
      </trkpt>
      <trkpt lat="44.34049" lon="5.75518">
        <ele>656</ele>
      </trkpt>
      <trkpt lat="44.34062" lon="5.75537">
        <ele>656</ele>
      </trkpt>
      <trkpt lat="44.34066" lon="5.75565">
        <ele>655</ele>
      </trkpt>
      <trkpt lat="44.34065" lon="5.75613">
        <ele>649</ele>
      </trkpt>
      <trkpt lat="44.34072" lon="5.75676">
        <ele>642</ele>
      </trkpt>
      <trkpt lat="44.34106" lon="5.75731">
        <ele>645</ele>
      </trkpt>
      <trkpt lat="44.34163" lon="5.75879">
        <ele>633</ele>
      </trkpt>
      <trkpt lat="44.3423" lon="5.7606">
        <ele>616</ele>
      </trkpt>
      <trkpt lat="44.34252" lon="5.76061">
        <ele>613</ele>
      </trkpt>
      <trkpt lat="44.34257" lon="5.76069">
        <ele>610</ele>
      </trkpt>
      <trkpt lat="44.34252" lon="5.76084">
        <ele>609</ele>
      </trkpt>
      <trkpt lat="44.34235" lon="5.76098">
        <ele>609</ele>
      </trkpt>
      <trkpt lat="44.34188" lon="5.76123">
        <ele>608</ele>
      </trkpt>
      <trkpt lat="44.34186" lon="5.76133">
        <ele>607</ele>
      </trkpt>
      <trkpt lat="44.34198" lon="5.76142">
        <ele>606</ele>
      </trkpt>
      <trkpt lat="44.34206" lon="5.76143">
        <ele>605</ele>
      </trkpt>
      <trkpt lat="44.34207" lon="5.76161">
        <ele>603</ele>
      </trkpt>
      <trkpt lat="44.34195" lon="5.76184">
        <ele>602</ele>
      </trkpt>
      <trkpt lat="44.34193" lon="5.76189">
        <ele>601</ele>
        <time>2024-01-30T19:22:10Z</time>
      </trkpt>
      <trkpt lat="44.34185" lon="5.76199">
        <ele>601</ele>
        <time>2024-01-30T19:22:12Z</time>
      </trkpt>
      <trkpt lat="44.3418" lon="5.76211">
        <ele>600</ele>
        <time>2024-01-30T19:22:13Z</time>
      </trkpt>
      <trkpt lat="44.34135" lon="5.76356">
        <ele>596</ele>
        <time>2024-01-30T19:22:31Z</time>
      </trkpt>
      <trkpt lat="44.3413" lon="5.76352">
        <ele>596</ele>
        <time>2024-01-30T19:22:32Z</time>
      </trkpt>
      <trkpt lat="44.34121" lon="5.76354">
        <ele>596</ele>
        <time>2024-01-30T19:22:33Z</time>
      </trkpt>
      <trkpt lat="44.34117" lon="5.76365">
        <ele>596</ele>
        <time>2024-01-30T19:22:35Z</time>
      </trkpt>
      <trkpt lat="44.3412" lon="5.76377">
        <ele>596</ele>
        <time>2024-01-30T19:22:36Z</time>
      </trkpt>
      <trkpt lat="44.34111" lon="5.7641">
        <ele>597</ele>
        <time>2024-01-30T19:22:40Z</time>
      </trkpt>
      <trkpt lat="44.341" lon="5.76434">
        <ele>597</ele>
        <time>2024-01-30T19:22:44Z</time>
      </trkpt>
      <trkpt lat="44.34091" lon="5.76451">
        <ele>597</ele>
        <time>2024-01-30T19:22:46Z</time>
      </trkpt>
      <trkpt lat="44.34035" lon="5.76559">
        <ele>596</ele>
        <time>2024-01-30T19:23:12Z</time>
      </trkpt>
      <trkpt lat="44.34032" lon="5.76575">
        <ele>595</ele>
        <time>2024-01-30T19:23:16Z</time>
      </trkpt>
      <trkpt lat="44.34044" lon="5.76618">
        <ele>594</ele>
        <time>2024-01-30T19:23:29Z</time>
      </trkpt>
      <trkpt lat="44.34062" lon="5.76655">
        <ele>594</ele>
        <time>2024-01-30T19:23:41Z</time>
      </trkpt>
      <trkpt lat="44.34063" lon="5.76664">
        <ele>594</ele>
        <time>2024-01-30T19:23:44Z</time>
      </trkpt>
      <trkpt lat="44.34059" lon="5.7667">
        <ele>592</ele>
        <time>2024-01-30T19:23:46Z</time>
      </trkpt>
      <trkpt lat="44.34051" lon="5.76676">
        <ele>589</ele>
        <time>2024-01-30T19:23:50Z</time>
      </trkpt>
      <trkpt lat="44.34029" lon="5.76689">
        <ele>586</ele>
        <time>2024-01-30T19:24:00Z</time>
      </trkpt>
      <trkpt lat="44.34022" lon="5.76695">
        <ele>587</ele>
        <time>2024-01-30T19:24:03Z</time>
      </trkpt>
      <trkpt lat="44.34018" lon="5.76698">
        <ele>587</ele>
        <time>2024-01-30T19:24:05Z</time>
      </trkpt>
      <trkpt lat="44.34014" lon="5.76713">
        <ele>588</ele>
        <time>2024-01-30T19:24:10Z</time>
      </trkpt>
      <trkpt lat="44.34024" lon="5.76795">
        <ele>590</ele>
        <time>2024-01-30T19:24:38Z</time>
      </trkpt>
      <trkpt lat="44.34024" lon="5.76817">
        <ele>590</ele>
        <time>2024-01-30T19:24:46Z</time>
      </trkpt>
      <trkpt lat="44.34" lon="5.76933">
        <ele>596</ele>
        <time>2024-01-30T19:25:28Z</time>
      </trkpt>
      <trkpt lat="44.33981" lon="5.77063">
        <ele>605</ele>
        <time>2024-01-30T19:26:11Z</time>
      </trkpt>
      <trkpt lat="44.33977" lon="5.77108">
        <ele>608</ele>
        <time>2024-01-30T19:26:26Z</time>
      </trkpt>
      <trkpt lat="44.33976" lon="5.77266">
        <ele>620</ele>
        <time>2024-01-30T19:27:10Z</time>
      </trkpt>
      <trkpt lat="44.33986" lon="5.77311">
        <ele>619</ele>
        <time>2024-01-30T19:27:18Z</time>
      </trkpt>
      <trkpt lat="44.33988" lon="5.77328">
        <ele>618</ele>
        <time>2024-01-30T19:27:20Z</time>
      </trkpt>
      <trkpt lat="44.33988" lon="5.77346">
        <ele>621</ele>
        <time>2024-01-30T19:27:22Z</time>
      </trkpt>
      <trkpt lat="44.33977" lon="5.77393">
        <ele>628</ele>
        <time>2024-01-30T19:27:28Z</time>
      </trkpt>
      <trkpt lat="44.33977" lon="5.77406">
        <ele>628</ele>
        <time>2024-01-30T19:27:29Z</time>
      </trkpt>
      <trkpt lat="44.33986" lon="5.77438">
        <ele>634</ele>
        <time>2024-01-30T19:27:33Z</time>
      </trkpt>
      <trkpt lat="44.34007" lon="5.77489">
        <ele>632</ele>
        <time>2024-01-30T19:27:40Z</time>
      </trkpt>
      <trkpt lat="44.34002" lon="5.77502">
        <ele>634</ele>
        <time>2024-01-30T19:27:41Z</time>
      </trkpt>
      <trkpt lat="44.33999" lon="5.77524">
        <ele>635</ele>
        <time>2024-01-30T19:27:44Z</time>
      </trkpt>
      <trkpt lat="44.33969" lon="5.77581">
        <ele>637</ele>
        <time>2024-01-30T19:27:51Z</time>
      </trkpt>
      <trkpt lat="44.33966" lon="5.77577">
        <ele>640</ele>
        <time>2024-01-30T19:27:52Z</time>
      </trkpt>
      <trkpt lat="44.33966" lon="5.77571">
        <ele>641</ele>
        <time>2024-01-30T19:27:53Z</time>
      </trkpt>
      <trkpt lat="44.33982" lon="5.7754">
        <ele>641</ele>
        <time>2024-01-30T19:27:56Z</time>
      </trkpt>
      <trkpt lat="44.33991" lon="5.77512">
        <ele>639</ele>
        <time>2024-01-30T19:28:00Z</time>
      </trkpt>
      <trkpt lat="44.3399" lon="5.77498">
        <ele>640</ele>
        <time>2024-01-30T19:28:01Z</time>
      </trkpt>
      <trkpt lat="44.33987" lon="5.77495">
        <ele>642</ele>
        <time>2024-01-30T19:28:02Z</time>
      </trkpt>
      <trkpt lat="44.33981" lon="5.77499">
        <ele>643</ele>
        <time>2024-01-30T19:28:04Z</time>
      </trkpt>
      <trkpt lat="44.33976" lon="5.77525">
        <ele>644</ele>
        <time>2024-01-30T19:28:07Z</time>
      </trkpt>
      <trkpt lat="44.33964" lon="5.77547">
        <ele>646</ele>
        <time>2024-01-30T19:28:12Z</time>
      </trkpt>
      <trkpt lat="44.33941" lon="5.77569">
        <ele>648</ele>
        <time>2024-01-30T19:28:17Z</time>
      </trkpt>
      <trkpt lat="44.33923" lon="5.77581">
        <ele>648</ele>
        <time>2024-01-30T19:28:22Z</time>
      </trkpt>
      <trkpt lat="44.33914" lon="5.77582">
        <ele>648</ele>
        <time>2024-01-30T19:28:23Z</time>
      </trkpt>
      <trkpt lat="44.33908" lon="5.77577">
        <ele>649</ele>
        <time>2024-01-30T19:28:24Z</time>
      </trkpt>
      <trkpt lat="44.33866" lon="5.77516">
        <ele>652</ele>
        <time>2024-01-30T19:28:33Z</time>
      </trkpt>
      <trkpt lat="44.33851" lon="5.77498">
        <ele>652</ele>
        <time>2024-01-30T19:28:36Z</time>
      </trkpt>
      <trkpt lat="44.33821" lon="5.77479">
        <ele>649</ele>
        <time>2024-01-30T19:28:41Z</time>
      </trkpt>
      <trkpt lat="44.33785" lon="5.77464">
        <ele>645</ele>
        <time>2024-01-30T19:28:47Z</time>
      </trkpt>
      <trkpt lat="44.33775" lon="5.77452">
        <ele>644</ele>
        <time>2024-01-30T19:28:49Z</time>
      </trkpt>
      <trkpt lat="44.33764" lon="5.77427">
        <ele>642</ele>
        <time>2024-01-30T19:28:52Z</time>
      </trkpt>
      <trkpt lat="44.33744" lon="5.77404">
        <ele>643</ele>
        <time>2024-01-30T19:28:56Z</time>
      </trkpt>
      <trkpt lat="44.33733" lon="5.774">
        <ele>643</ele>
        <time>2024-01-30T19:28:57Z</time>
      </trkpt>
      <trkpt lat="44.33714" lon="5.77402">
        <ele>638</ele>
        <time>2024-01-30T19:29:00Z</time>
      </trkpt>
      <trkpt lat="44.33697" lon="5.77392">
        <ele>635</ele>
        <time>2024-01-30T19:29:03Z</time>
      </trkpt>
      <trkpt lat="44.33682" lon="5.77368">
        <ele>634</ele>
        <time>2024-01-30T19:29:06Z</time>
      </trkpt>
      <trkpt lat="44.33672" lon="5.77326">
        <ele>635</ele>
        <time>2024-01-30T19:29:11Z</time>
      </trkpt>
      <trkpt lat="44.33667" lon="5.77318">
        <ele>635</ele>
        <time>2024-01-30T19:29:12Z</time>
      </trkpt>
      <trkpt lat="44.3366" lon="5.77312">
        <ele>635</ele>
        <time>2024-01-30T19:29:13Z</time>
      </trkpt>
      <trkpt lat="44.33642" lon="5.77305">
        <ele>635</ele>
        <time>2024-01-30T19:29:16Z</time>
      </trkpt>
      <trkpt lat="44.33607" lon="5.77299">
        <ele>633</ele>
        <time>2024-01-30T19:29:21Z</time>
      </trkpt>
      <trkpt lat="44.33584" lon="5.77281">
        <ele>633</ele>
        <time>2024-01-30T19:29:25Z</time>
      </trkpt>
      <trkpt lat="44.33546" lon="5.77265">
        <ele>630</ele>
        <time>2024-01-30T19:29:31Z</time>
      </trkpt>
      <trkpt lat="44.33506" lon="5.77237">
        <ele>628</ele>
        <time>2024-01-30T19:29:37Z</time>
      </trkpt>
      <trkpt lat="44.33498" lon="5.77236">
        <ele>628</ele>
        <time>2024-01-30T19:29:38Z</time>
      </trkpt>
      <trkpt lat="44.3349" lon="5.7724">
        <ele>627</ele>
        <time>2024-01-30T19:29:39Z</time>
      </trkpt>
      <trkpt lat="44.33478" lon="5.77254">
        <ele>623</ele>
        <time>2024-01-30T19:29:42Z</time>
      </trkpt>
      <trkpt lat="44.33462" lon="5.77265">
        <ele>621</ele>
        <time>2024-01-30T19:29:44Z</time>
      </trkpt>
      <trkpt lat="44.33424" lon="5.77267">
        <ele>619</ele>
        <time>2024-01-30T19:29:49Z</time>
      </trkpt>
      <trkpt lat="44.33385" lon="5.77266">
        <ele>618</ele>
        <time>2024-01-30T19:29:54Z</time>
      </trkpt>
      <trkpt lat="44.33326" lon="5.77246">
        <ele>616</ele>
        <time>2024-01-30T19:30:03Z</time>
      </trkpt>
      <trkpt lat="44.33286" lon="5.77245">
        <ele>613</ele>
        <time>2024-01-30T19:30:08Z</time>
      </trkpt>
      <trkpt lat="44.33239" lon="5.77236">
        <ele>612</ele>
        <time>2024-01-30T19:30:15Z</time>
      </trkpt>
      <trkpt lat="44.33219" lon="5.77241">
        <ele>610</ele>
        <time>2024-01-30T19:30:19Z</time>
      </trkpt>
      <trkpt lat="44.332" lon="5.77252">
        <ele>607</ele>
        <time>2024-01-30T19:30:22Z</time>
      </trkpt>
      <trkpt lat="44.33162" lon="5.77268">
        <ele>605</ele>
        <time>2024-01-30T19:30:29Z</time>
      </trkpt>
      <trkpt lat="44.33162" lon="5.77242">
        <ele>609</ele>
        <time>2024-01-30T19:30:35Z</time>
      </trkpt>
      <trkpt lat="44.33148" lon="5.77231">
        <ele>611</ele>
        <time>2024-01-30T19:30:40Z</time>
      </trkpt>
      <trkpt lat="44.33104" lon="5.77223">
        <ele>611</ele>
        <time>2024-01-30T19:30:56Z</time>
      </trkpt>
      <trkpt lat="44.33055" lon="5.7722">
        <ele>611</ele>
        <time>2024-01-30T19:31:12Z</time>
      </trkpt>
      <trkpt lat="44.33001" lon="5.77199">
        <ele>614</ele>
        <time>2024-01-30T19:31:31Z</time>
      </trkpt>
      <trkpt lat="44.32968" lon="5.77204">
        <ele>613</ele>
        <time>2024-01-30T19:31:42Z</time>
      </trkpt>
      <trkpt lat="44.32932" lon="5.77231">
        <ele>612</ele>
        <time>2024-01-30T19:31:55Z</time>
      </trkpt>
      <trkpt lat="44.32851" lon="5.77222">
        <ele>611</ele>
        <time>2024-01-30T19:32:21Z</time>
      </trkpt>
      <trkpt lat="44.32754" lon="5.77179">
        <ele>615</ele>
        <time>2024-01-30T19:32:55Z</time>
      </trkpt>
      <trkpt lat="44.32739" lon="5.77162">
        <ele>617</ele>
        <time>2024-01-30T19:33:02Z</time>
      </trkpt>
      <trkpt lat="44.32672" lon="5.77126">
        <ele>619</ele>
        <time>2024-01-30T19:33:29Z</time>
      </trkpt>
      <trkpt lat="44.32639" lon="5.77121">
        <ele>617</ele>
        <time>2024-01-30T19:33:41Z</time>
      </trkpt>
      <trkpt lat="44.3259" lon="5.77142">
        <ele>614</ele>
        <time>2024-01-30T19:34:00Z</time>
      </trkpt>
      <trkpt lat="44.32543" lon="5.77142">
        <ele>614</ele>
        <time>2024-01-30T19:34:18Z</time>
      </trkpt>
      <trkpt lat="44.32513" lon="5.77139">
        <ele>614</ele>
        <time>2024-01-30T19:34:29Z</time>
      </trkpt>
      <trkpt lat="44.32481" lon="5.77127">
        <ele>614</ele>
        <time>2024-01-30T19:34:43Z</time>
      </trkpt>
      <trkpt lat="44.32445" lon="5.77118">
        <ele>616</ele>
        <time>2024-01-30T19:34:58Z</time>
      </trkpt>
      <trkpt lat="44.32419" lon="5.77102">
        <ele>617</ele>
        <time>2024-01-30T19:35:10Z</time>
      </trkpt>
      <trkpt lat="44.32354" lon="5.77078">
        <ele>620</ele>
        <time>2024-01-30T19:35:40Z</time>
      </trkpt>
      <trkpt lat="44.32342" lon="5.77084">
        <ele>620</ele>
        <time>2024-01-30T19:35:46Z</time>
      </trkpt>
      <trkpt lat="44.32324" lon="5.77109">
        <ele>620</ele>
        <time>2024-01-30T19:35:58Z</time>
      </trkpt>
      <trkpt lat="44.32245" lon="5.77164">
        <ele>625</ele>
        <time>2024-01-30T19:36:35Z</time>
      </trkpt>
      <trkpt lat="44.3223" lon="5.77178">
        <ele>625</ele>
        <time>2024-01-30T19:36:41Z</time>
      </trkpt>
      <trkpt lat="44.32193" lon="5.77184">
        <ele>628</ele>
        <time>2024-01-30T19:36:54Z</time>
      </trkpt>
      <trkpt lat="44.32204" lon="5.77244">
        <ele>626</ele>
        <time>2024-01-30T19:37:08Z</time>
      </trkpt>
      <trkpt lat="44.32226" lon="5.77389">
        <ele>622</ele>
        <time>2024-01-30T19:37:40Z</time>
      </trkpt>
      <trkpt lat="44.32204" lon="5.77452">
        <ele>622</ele>
        <time>2024-01-30T19:37:54Z</time>
      </trkpt>
      <trkpt lat="44.32192" lon="5.77474">
        <ele>623</ele>
        <time>2024-01-30T19:37:59Z</time>
      </trkpt>
      <trkpt lat="44.32177" lon="5.77503">
        <ele>624</ele>
        <time>2024-01-30T19:38:05Z</time>
      </trkpt>
      <trkpt lat="44.32179" lon="5.77512">
        <ele>623</ele>
        <time>2024-01-30T19:38:07Z</time>
      </trkpt>
      <trkpt lat="44.32172" lon="5.77517">
        <ele>624</ele>
        <time>2024-01-30T19:38:08Z</time>
      </trkpt>
      <trkpt lat="44.32103" lon="5.7756">
        <ele>626</ele>
        <time>2024-01-30T19:38:24Z</time>
      </trkpt>
      <trkpt lat="44.32039" lon="5.77601">
        <ele>628</ele>
        <time>2024-01-30T19:38:38Z</time>
      </trkpt>
      <trkpt lat="44.3193" lon="5.77661">
        <ele>629</ele>
        <time>2024-01-30T19:39:10Z</time>
      </trkpt>
      <trkpt lat="44.32101" lon="5.78164">
        <ele>603</ele>
        <time>2024-01-30T19:40:42Z</time>
      </trkpt>
      <trkpt lat="44.3206" lon="5.78204">
        <ele>603</ele>
        <time>2024-01-30T19:40:48Z</time>
      </trkpt>
      <trkpt lat="44.31977" lon="5.78285">
        <ele>603</ele>
        <time>2024-01-30T19:41:02Z</time>
      </trkpt>
      <trkpt lat="44.31962" lon="5.78298">
        <ele>602</ele>
        <time>2024-01-30T19:41:05Z</time>
      </trkpt>
      <trkpt lat="44.31941" lon="5.78309">
        <ele>600</ele>
        <time>2024-01-30T19:41:09Z</time>
      </trkpt>
      <trkpt lat="44.31918" lon="5.78309">
        <ele>598</ele>
        <time>2024-01-30T19:41:13Z</time>
      </trkpt>
      <trkpt lat="44.31909" lon="5.78306">
        <ele>596</ele>
        <time>2024-01-30T19:41:14Z</time>
      </trkpt>
      <trkpt lat="44.31886" lon="5.78292">
        <ele>595</ele>
        <time>2024-01-30T19:41:18Z</time>
      </trkpt>
      <trkpt lat="44.31854" lon="5.78284">
        <ele>593</ele>
        <time>2024-01-30T19:41:24Z</time>
      </trkpt>
      <trkpt lat="44.31833" lon="5.78268">
        <ele>594</ele>
        <time>2024-01-30T19:41:28Z</time>
      </trkpt>
      <trkpt lat="44.31825" lon="5.78267">
        <ele>594</ele>
        <time>2024-01-30T19:41:30Z</time>
      </trkpt>
      <trkpt lat="44.31818" lon="5.78269">
        <ele>593</ele>
        <time>2024-01-30T19:41:31Z</time>
      </trkpt>
      <trkpt lat="44.31812" lon="5.78277">
        <ele>593</ele>
        <time>2024-01-30T19:41:33Z</time>
      </trkpt>
      <trkpt lat="44.31809" lon="5.78289">
        <ele>594</ele>
        <time>2024-01-30T19:41:34Z</time>
      </trkpt>
      <trkpt lat="44.31812" lon="5.78328">
        <ele>595</ele>
        <time>2024-01-30T19:41:40Z</time>
      </trkpt>
      <trkpt lat="44.31811" lon="5.78352">
        <ele>597</ele>
        <time>2024-01-30T19:41:43Z</time>
      </trkpt>
      <trkpt lat="44.31796" lon="5.78388">
        <ele>599</ele>
        <time>2024-01-30T19:41:50Z</time>
      </trkpt>
      <trkpt lat="44.31789" lon="5.784">
        <ele>599</ele>
        <time>2024-01-30T19:41:52Z</time>
      </trkpt>
      <trkpt lat="44.31755" lon="5.78468">
        <ele>598</ele>
        <time>2024-01-30T19:42:09Z</time>
      </trkpt>
      <trkpt lat="44.31731" lon="5.78499">
        <ele>597</ele>
        <time>2024-01-30T19:42:20Z</time>
      </trkpt>
      <trkpt lat="44.31722" lon="5.78507">
        <ele>597</ele>
        <time>2024-01-30T19:42:24Z</time>
      </trkpt>
      <trkpt lat="44.31691" lon="5.78521">
        <ele>598</ele>
        <time>2024-01-30T19:42:36Z</time>
      </trkpt>
      <trkpt lat="44.31615" lon="5.78554">
        <ele>604</ele>
        <time>2024-01-30T19:43:06Z</time>
      </trkpt>
      <trkpt lat="44.31602" lon="5.78568">
        <ele>605</ele>
        <time>2024-01-30T19:43:13Z</time>
      </trkpt>
      <trkpt lat="44.31598" lon="5.78578">
        <ele>606</ele>
        <time>2024-01-30T19:43:16Z</time>
      </trkpt>
      <trkpt lat="44.31593" lon="5.78604">
        <ele>607</ele>
        <time>2024-01-30T19:43:23Z</time>
      </trkpt>
      <trkpt lat="44.31595" lon="5.78715">
        <ele>603</ele>
        <time>2024-01-30T19:43:48Z</time>
      </trkpt>
      <trkpt lat="44.3159" lon="5.78804">
        <ele>598</ele>
        <time>2024-01-30T19:43:57Z</time>
      </trkpt>
      <trkpt lat="44.31584" lon="5.78847">
        <ele>598</ele>
        <time>2024-01-30T19:44:01Z</time>
      </trkpt>
      <trkpt lat="44.31569" lon="5.7897">
        <ele>590</ele>
        <time>2024-01-30T19:44:13Z</time>
      </trkpt>
      <trkpt lat="44.31559" lon="5.79009">
        <ele>589</ele>
        <time>2024-01-30T19:44:17Z</time>
      </trkpt>
      <trkpt lat="44.31528" lon="5.79093">
        <ele>592</ele>
        <time>2024-01-30T19:44:27Z</time>
      </trkpt>
      <trkpt lat="44.31501" lon="5.79176">
        <ele>591</ele>
        <time>2024-01-30T19:44:42Z</time>
      </trkpt>
      <trkpt lat="44.31471" lon="5.79241">
        <ele>595</ele>
        <time>2024-01-30T19:45:00Z</time>
      </trkpt>
      <trkpt lat="44.31461" lon="5.79279">
        <ele>597</ele>
        <time>2024-01-30T19:45:11Z</time>
      </trkpt>
      <trkpt lat="44.31452" lon="5.79334">
        <ele>599</ele>
        <time>2024-01-30T19:45:26Z</time>
      </trkpt>
      <trkpt lat="44.31451" lon="5.79353">
        <ele>600</ele>
        <time>2024-01-30T19:45:31Z</time>
      </trkpt>
      <trkpt lat="44.31457" lon="5.79428">
        <ele>604</ele>
        <time>2024-01-30T19:45:50Z</time>
      </trkpt>
      <trkpt lat="44.31457" lon="5.79447">
        <ele>605</ele>
        <time>2024-01-30T19:45:54Z</time>
      </trkpt>
      <trkpt lat="44.31452" lon="5.79485">
        <ele>607</ele>
        <time>2024-01-30T19:46:03Z</time>
      </trkpt>
      <trkpt lat="44.31394" lon="5.79706">
        <ele>617</ele>
        <time>2024-01-30T19:46:46Z</time>
      </trkpt>
      <trkpt lat="44.31379" lon="5.79742">
        <ele>616</ele>
        <time>2024-01-30T19:46:54Z</time>
      </trkpt>
      <trkpt lat="44.31345" lon="5.79798">
        <ele>616</ele>
        <time>2024-01-30T19:47:12Z</time>
      </trkpt>
      <trkpt lat="44.31284" lon="5.79886">
        <ele>617</ele>
        <time>2024-01-30T19:47:45Z</time>
      </trkpt>
      <trkpt lat="44.31247" lon="5.79933">
        <ele>618</ele>
        <time>2024-01-30T19:48:03Z</time>
      </trkpt>
      <trkpt lat="44.31232" lon="5.79956">
        <ele>620</ele>
        <time>2024-01-30T19:48:13Z</time>
      </trkpt>
      <trkpt lat="44.31223" lon="5.79986">
        <ele>621</ele>
        <time>2024-01-30T19:48:23Z</time>
      </trkpt>
      <trkpt lat="44.31223" lon="5.8002">
        <ele>621</ele>
        <time>2024-01-30T19:48:34Z</time>
      </trkpt>
      <trkpt lat="44.31218" lon="5.80055">
        <ele>620</ele>
        <time>2024-01-30T19:48:46Z</time>
      </trkpt>
      <trkpt lat="44.31212" lon="5.80072">
        <ele>619</ele>
        <time>2024-01-30T19:48:52Z</time>
      </trkpt>
      <trkpt lat="44.31185" lon="5.80114">
        <ele>620</ele>
        <time>2024-01-30T19:49:11Z</time>
      </trkpt>
      <trkpt lat="44.31156" lon="5.80204">
        <ele>623</ele>
        <time>2024-01-30T19:49:38Z</time>
      </trkpt>
      <trkpt lat="44.31126" lon="5.80266">
        <ele>628</ele>
        <time>2024-01-30T19:49:56Z</time>
      </trkpt>
      <trkpt lat="44.3111" lon="5.80313">
        <ele>630</ele>
        <time>2024-01-30T19:50:06Z</time>
      </trkpt>
      <trkpt lat="44.31109" lon="5.80331">
        <ele>629</ele>
        <time>2024-01-30T19:50:09Z</time>
      </trkpt>
      <trkpt lat="44.31112" lon="5.80404">
        <ele>632</ele>
        <time>2024-01-30T19:50:19Z</time>
      </trkpt>
      <trkpt lat="44.31117" lon="5.80455">
        <ele>628</ele>
        <time>2024-01-30T19:50:24Z</time>
      </trkpt>
      <trkpt lat="44.31116" lon="5.80472">
        <ele>629</ele>
        <time>2024-01-30T19:50:26Z</time>
      </trkpt>
      <trkpt lat="44.31079" lon="5.80616">
        <ele>630</ele>
        <time>2024-01-30T19:50:40Z</time>
      </trkpt>
      <trkpt lat="44.31046" lon="5.80736">
        <ele>628</ele>
        <time>2024-01-30T19:50:52Z</time>
      </trkpt>
      <trkpt lat="44.31033" lon="5.80772">
        <ele>627</ele>
        <time>2024-01-30T19:50:56Z</time>
      </trkpt>
      <trkpt lat="44.31004" lon="5.80839">
        <ele>626</ele>
        <time>2024-01-30T19:51:04Z</time>
      </trkpt>
      <trkpt lat="44.30995" lon="5.80896">
        <ele>623</ele>
        <time>2024-01-30T19:51:11Z</time>
      </trkpt>
      <trkpt lat="44.30979" lon="5.80948">
        <ele>621</ele>
        <time>2024-01-30T19:51:18Z</time>
      </trkpt>
      <trkpt lat="44.30942" lon="5.81014">
        <ele>620</ele>
        <time>2024-01-30T19:51:30Z</time>
      </trkpt>
      <trkpt lat="44.30925" lon="5.81052">
        <ele>619</ele>
        <time>2024-01-30T19:51:35Z</time>
      </trkpt>
      <trkpt lat="44.30898" lon="5.81157">
        <ele>616</ele>
        <time>2024-01-30T19:51:51Z</time>
      </trkpt>
      <trkpt lat="44.3084" lon="5.8135">
        <ele>615</ele>
        <time>2024-01-30T19:52:12Z</time>
      </trkpt>
      <trkpt lat="44.30827" lon="5.81445">
        <ele>606</ele>
        <time>2024-01-30T19:52:20Z</time>
      </trkpt>
      <trkpt lat="44.3081" lon="5.81527">
        <ele>601</ele>
        <time>2024-01-30T19:52:27Z</time>
      </trkpt>
      <trkpt lat="44.30798" lon="5.81616">
        <ele>595</ele>
        <time>2024-01-30T19:52:34Z</time>
      </trkpt>
      <trkpt lat="44.30787" lon="5.81676">
        <ele>592</ele>
        <time>2024-01-30T19:52:39Z</time>
      </trkpt>
      <trkpt lat="44.30743" lon="5.81825">
        <ele>583</ele>
        <time>2024-01-30T19:52:53Z</time>
      </trkpt>
      <trkpt lat="44.30712" lon="5.81965">
        <ele>578</ele>
        <time>2024-01-30T19:53:05Z</time>
      </trkpt>
      <trkpt lat="44.30704" lon="5.8203">
        <ele>575</ele>
        <time>2024-01-30T19:53:10Z</time>
      </trkpt>
      <trkpt lat="44.3071" lon="5.82072">
        <ele>571</ele>
        <time>2024-01-30T19:53:13Z</time>
      </trkpt>
      <trkpt lat="44.30717" lon="5.82106">
        <ele>566</ele>
        <time>2024-01-30T19:53:16Z</time>
      </trkpt>
      <trkpt lat="44.30715" lon="5.82143">
        <ele>563</ele>
        <time>2024-01-30T19:53:19Z</time>
      </trkpt>
      <trkpt lat="44.30711" lon="5.82161">
        <ele>563</ele>
        <time>2024-01-30T19:53:21Z</time>
      </trkpt>
      <trkpt lat="44.307" lon="5.8219">
        <ele>563</ele>
        <time>2024-01-30T19:53:23Z</time>
      </trkpt>
      <trkpt lat="44.30683" lon="5.82219">
        <ele>562</ele>
        <time>2024-01-30T19:53:26Z</time>
      </trkpt>
      <trkpt lat="44.30689" lon="5.82233">
        <ele>559</ele>
        <time>2024-01-30T19:53:28Z</time>
      </trkpt>
      <trkpt lat="44.30667" lon="5.82261">
        <ele>559</ele>
        <time>2024-01-30T19:53:31Z</time>
      </trkpt>
      <trkpt lat="44.30636" lon="5.82286">
        <ele>558</ele>
        <time>2024-01-30T19:53:36Z</time>
      </trkpt>
      <trkpt lat="44.30609" lon="5.823">
        <ele>558</ele>
        <time>2024-01-30T19:53:39Z</time>
      </trkpt>
      <trkpt lat="44.3058" lon="5.82307">
        <ele>558</ele>
        <time>2024-01-30T19:53:43Z</time>
      </trkpt>
      <trkpt lat="44.30494" lon="5.82319">
        <ele>558</ele>
        <time>2024-01-30T19:53:57Z</time>
      </trkpt>
      <trkpt lat="44.30391" lon="5.82322">
        <ele>561</ele>
        <time>2024-01-30T19:54:16Z</time>
      </trkpt>
      <trkpt lat="44.30247" lon="5.82349">
        <ele>556</ele>
        <time>2024-01-30T19:54:40Z</time>
      </trkpt>
      <trkpt lat="44.30207" lon="5.82352">
        <ele>557</ele>
        <time>2024-01-30T19:54:47Z</time>
      </trkpt>
      <trkpt lat="44.30079" lon="5.82345">
        <ele>558</ele>
        <time>2024-01-30T19:55:06Z</time>
      </trkpt>
      <trkpt lat="44.30023" lon="5.82338">
        <ele>560</ele>
        <time>2024-01-30T19:55:15Z</time>
      </trkpt>
      <trkpt lat="44.29954" lon="5.82316">
        <ele>560</ele>
        <time>2024-01-30T19:55:27Z</time>
      </trkpt>
      <trkpt lat="44.29853" lon="5.82264">
        <ele>560</ele>
        <time>2024-01-30T19:55:45Z</time>
      </trkpt>
      <trkpt lat="44.29811" lon="5.82253">
        <ele>560</ele>
        <time>2024-01-30T19:55:52Z</time>
      </trkpt>
      <trkpt lat="44.2975" lon="5.8224">
        <ele>559</ele>
        <time>2024-01-30T19:56:03Z</time>
      </trkpt>
      <trkpt lat="44.29708" lon="5.82217">
        <ele>557</ele>
        <time>2024-01-30T19:56:12Z</time>
      </trkpt>
      <trkpt lat="44.29673" lon="5.82187">
        <ele>556</ele>
        <time>2024-01-30T19:56:22Z</time>
      </trkpt>
      <trkpt lat="44.29638" lon="5.8215">
        <ele>557</ele>
        <time>2024-01-30T19:56:34Z</time>
      </trkpt>
      <trkpt lat="44.29605" lon="5.82126">
        <ele>557</ele>
        <time>2024-01-30T19:56:45Z</time>
      </trkpt>
      <trkpt lat="44.29585" lon="5.82117">
        <ele>559</ele>
        <time>2024-01-30T19:56:52Z</time>
      </trkpt>
      <trkpt lat="44.2957" lon="5.8211">
        <ele>560</ele>
        <time>2024-01-30T19:56:58Z</time>
      </trkpt>
      <trkpt lat="44.29534" lon="5.82102">
        <ele>561</ele>
        <time>2024-01-30T19:57:10Z</time>
      </trkpt>
      <trkpt lat="44.295" lon="5.82099">
        <ele>563</ele>
        <time>2024-01-30T19:57:20Z</time>
      </trkpt>
      <trkpt lat="44.29473" lon="5.82103">
        <ele>563</ele>
        <time>2024-01-30T19:57:28Z</time>
      </trkpt>
      <trkpt lat="44.2945" lon="5.82116">
        <ele>562</ele>
        <time>2024-01-30T19:57:35Z</time>
      </trkpt>
      <trkpt lat="44.29436" lon="5.82129">
        <ele>561</ele>
        <time>2024-01-30T19:57:39Z</time>
      </trkpt>
      <trkpt lat="44.29387" lon="5.82184">
        <ele>560</ele>
        <time>2024-01-30T19:57:50Z</time>
      </trkpt>
      <trkpt lat="44.29364" lon="5.82206">
        <ele>560</ele>
        <time>2024-01-30T19:57:55Z</time>
      </trkpt>
      <trkpt lat="44.29321" lon="5.82227">
        <ele>561</ele>
        <time>2024-01-30T19:58:01Z</time>
      </trkpt>
      <trkpt lat="44.29295" lon="5.82238">
        <ele>561</ele>
        <time>2024-01-30T19:58:05Z</time>
      </trkpt>
      <trkpt lat="44.2926" lon="5.82253">
        <ele>559</ele>
        <time>2024-01-30T19:58:11Z</time>
      </trkpt>
      <trkpt lat="44.29218" lon="5.82263">
        <ele>557</ele>
        <time>2024-01-30T19:58:17Z</time>
      </trkpt>
      <trkpt lat="44.29098" lon="5.82275">
        <ele>563</ele>
        <time>2024-01-30T19:58:36Z</time>
      </trkpt>
      <trkpt lat="44.28939" lon="5.82286">
        <ele>564</ele>
        <time>2024-01-30T19:59:15Z</time>
      </trkpt>
      <trkpt lat="44.28902" lon="5.82281">
        <ele>564</ele>
        <time>2024-01-30T19:59:23Z</time>
      </trkpt>
      <trkpt lat="44.28892" lon="5.82275">
        <ele>565</ele>
        <time>2024-01-30T19:59:25Z</time>
      </trkpt>
      <trkpt lat="44.28876" lon="5.82265">
        <ele>566</ele>
        <time>2024-01-30T19:59:29Z</time>
      </trkpt>
      <trkpt lat="44.28809" lon="5.82204">
        <ele>567</ele>
        <time>2024-01-30T19:59:42Z</time>
      </trkpt>
      <trkpt lat="44.28741" lon="5.82162">
        <ele>565</ele>
        <time>2024-01-30T19:59:53Z</time>
      </trkpt>
      <trkpt lat="44.28594" lon="5.82109">
        <ele>556</ele>
        <time>2024-01-30T20:00:13Z</time>
      </trkpt>
      <trkpt lat="44.28466" lon="5.82046">
        <ele>553</ele>
        <time>2024-01-30T20:00:32Z</time>
      </trkpt>
      <trkpt lat="44.28436" lon="5.82034">
        <ele>552</ele>
        <time>2024-01-30T20:00:37Z</time>
      </trkpt>
      <trkpt lat="44.28428" lon="5.82032">
        <ele>551</ele>
        <time>2024-01-30T20:00:38Z</time>
      </trkpt>
      <trkpt lat="44.2838" lon="5.82024">
        <ele>550</ele>
        <time>2024-01-30T20:00:46Z</time>
      </trkpt>
      <trkpt lat="44.28272" lon="5.82022">
        <ele>550</ele>
        <time>2024-01-30T20:01:04Z</time>
      </trkpt>
      <trkpt lat="44.28248" lon="5.82019">
        <ele>550</ele>
        <time>2024-01-30T20:01:08Z</time>
      </trkpt>
      <trkpt lat="44.28226" lon="5.82012">
        <ele>549</ele>
        <time>2024-01-30T20:01:12Z</time>
      </trkpt>
      <trkpt lat="44.28199" lon="5.81998">
        <ele>548</ele>
        <time>2024-01-30T20:01:16Z</time>
      </trkpt>
      <trkpt lat="44.27908" lon="5.81811">
        <ele>547</ele>
        <time>2024-01-30T20:02:08Z</time>
      </trkpt>
      <trkpt lat="44.27757" lon="5.81713">
        <ele>543</ele>
        <time>2024-01-30T20:02:33Z</time>
      </trkpt>
      <trkpt lat="44.27715" lon="5.81686">
        <ele>542</ele>
        <time>2024-01-30T20:02:40Z</time>
      </trkpt>
      <trkpt lat="44.27714" lon="5.81674">
        <ele>542</ele>
        <time>2024-01-30T20:02:44Z</time>
      </trkpt>
      <trkpt lat="44.27691" lon="5.8165">
        <ele>541</ele>
        <time>2024-01-30T20:02:46Z</time>
      </trkpt>
      <trkpt lat="44.27483" lon="5.81397">
        <ele>539</ele>
        <time>2024-01-30T20:02:51Z</time>
      </trkpt>
      <trkpt lat="44.27342" lon="5.81302">
        <ele>541</ele>
        <time>2024-01-30T20:03:35Z</time>
      </trkpt>
      <trkpt lat="44.27296" lon="5.81234">
        <ele>542</ele>
      </trkpt>
      <trkpt lat="44.27223" lon="5.81151">
        <ele>542</ele>
      </trkpt>
      <trkpt lat="44.27147" lon="5.81083">
        <ele>538</ele>
      </trkpt>
      <trkpt lat="44.27125" lon="5.81037">
        <ele>535</ele>
      </trkpt>
      <trkpt lat="44.27058" lon="5.80987">
        <ele>531</ele>
      </trkpt>
      <trkpt lat="44.27015" lon="5.8093">
        <ele>532</ele>
      </trkpt>
      <trkpt lat="44.26982" lon="5.80869">
        <ele>535</ele>
      </trkpt>
      <trkpt lat="44.26918" lon="5.80839">
        <ele>538</ele>
      </trkpt>
      <trkpt lat="44.26906" lon="5.80822">
        <ele>541</ele>
      </trkpt>
      <trkpt lat="44.26908" lon="5.80803">
        <ele>542</ele>
      </trkpt>
      <trkpt lat="44.26917" lon="5.80782">
        <ele>542</ele>
      </trkpt>
      <trkpt lat="44.26914" lon="5.80775">
        <ele>543</ele>
      </trkpt>
      <trkpt lat="44.26901" lon="5.80781">
        <ele>544</ele>
      </trkpt>
      <trkpt lat="44.26886" lon="5.80786">
        <ele>545</ele>
      </trkpt>
      <trkpt lat="44.26845" lon="5.80751">
        <ele>554</ele>
      </trkpt>
      <trkpt lat="44.26843" lon="5.80735">
        <ele>556</ele>
      </trkpt>
      <trkpt lat="44.2685" lon="5.8073">
        <ele>556</ele>
      </trkpt>
      <trkpt lat="44.2687" lon="5.80739">
        <ele>553</ele>
      </trkpt>
      <trkpt lat="44.26888" lon="5.80729">
        <ele>551</ele>
      </trkpt>
      <trkpt lat="44.26899" lon="5.80705">
        <ele>552</ele>
      </trkpt>
      <trkpt lat="44.26906" lon="5.80627">
        <ele>562</ele>
      </trkpt>
      <trkpt lat="44.2692" lon="5.80575">
        <ele>570</ele>
      </trkpt>
      <trkpt lat="44.26935" lon="5.80553">
        <ele>570</ele>
      </trkpt>
      <trkpt lat="44.26939" lon="5.805">
        <ele>574</ele>
      </trkpt>
      <trkpt lat="44.26933" lon="5.80481">
        <ele>576</ele>
      </trkpt>
      <trkpt lat="44.26923" lon="5.80481">
        <ele>577</ele>
      </trkpt>
      <trkpt lat="44.2691" lon="5.80509">
        <ele>578</ele>
      </trkpt>
      <trkpt lat="44.2687" lon="5.80533">
        <ele>583</ele>
      </trkpt>
      <trkpt lat="44.26848" lon="5.80553">
        <ele>584</ele>
      </trkpt>
      <trkpt lat="44.26814" lon="5.80549">
        <ele>589</ele>
      </trkpt>
      <trkpt lat="44.26772" lon="5.80553">
        <ele>593</ele>
      </trkpt>
      <trkpt lat="44.26715" lon="5.80535">
        <ele>598</ele>
      </trkpt>
      <trkpt lat="44.26673" lon="5.80511">
        <ele>602</ele>
      </trkpt>
      <trkpt lat="44.26654" lon="5.80479">
        <ele>607</ele>
      </trkpt>
      <trkpt lat="44.26634" lon="5.80477">
        <ele>606</ele>
      </trkpt>
      <trkpt lat="44.26629" lon="5.80461">
        <ele>608</ele>
      </trkpt>
      <trkpt lat="44.26614" lon="5.80445">
        <ele>610</ele>
      </trkpt>
      <trkpt lat="44.266" lon="5.80442">
        <ele>610</ele>
      </trkpt>
      <trkpt lat="44.2656" lon="5.80451">
        <ele>613</ele>
      </trkpt>
      <trkpt lat="44.26524" lon="5.80455">
        <ele>618</ele>
      </trkpt>
      <trkpt lat="44.26505" lon="5.80484">
        <ele>618</ele>
      </trkpt>
      <trkpt lat="44.26489" lon="5.80522">
        <ele>616</ele>
      </trkpt>
      <trkpt lat="44.26477" lon="5.80534">
        <ele>616</ele>
      </trkpt>
      <trkpt lat="44.26397" lon="5.8057">
        <ele>619</ele>
      </trkpt>
      <trkpt lat="44.26363" lon="5.80653">
        <ele>618</ele>
      </trkpt>
      <trkpt lat="44.26342" lon="5.80689">
        <ele>617</ele>
      </trkpt>
      <trkpt lat="44.26285" lon="5.80738">
        <ele>624</ele>
      </trkpt>
      <trkpt lat="44.26275" lon="5.8076">
        <ele>625</ele>
      </trkpt>
      <trkpt lat="44.26308" lon="5.80886">
        <ele>628</ele>
      </trkpt>
      <trkpt lat="44.26342" lon="5.80991">
        <ele>634</ele>
      </trkpt>
      <trkpt lat="44.26312" lon="5.81117">
        <ele>632</ele>
      </trkpt>
      <trkpt lat="44.26261" lon="5.81271">
        <ele>624</ele>
      </trkpt>
      <trkpt lat="44.26217" lon="5.81351">
        <ele>620</ele>
      </trkpt>
      <trkpt lat="44.26151" lon="5.816">
        <ele>604</ele>
      </trkpt>
      <trkpt lat="44.26106" lon="5.81709">
        <ele>602</ele>
      </trkpt>
      <trkpt lat="44.26054" lon="5.81861">
        <ele>588</ele>
      </trkpt>
      <trkpt lat="44.26041" lon="5.81881">
        <ele>585</ele>
      </trkpt>
      <trkpt lat="44.25982" lon="5.81886">
        <ele>583</ele>
      </trkpt>
      <trkpt lat="44.25927" lon="5.81871">
        <ele>584</ele>
      </trkpt>
      <trkpt lat="44.25918" lon="5.81899">
        <ele>582</ele>
      </trkpt>
      <trkpt lat="44.25949" lon="5.81942">
        <ele>575</ele>
      </trkpt>
      <trkpt lat="44.25954" lon="5.82001">
        <ele>574</ele>
      </trkpt>
      <trkpt lat="44.25967" lon="5.82049">
        <ele>572</ele>
      </trkpt>
      <trkpt lat="44.25999" lon="5.82092">
        <ele>567</ele>
      </trkpt>
      <trkpt lat="44.26012" lon="5.82134">
        <ele>564</ele>
      </trkpt>
      <trkpt lat="44.26016" lon="5.82168">
        <ele>560</ele>
      </trkpt>
      <trkpt lat="44.26008" lon="5.82189">
        <ele>558</ele>
      </trkpt>
      <trkpt lat="44.25987" lon="5.82225">
        <ele>555</ele>
      </trkpt>
      <trkpt lat="44.25923" lon="5.8228">
        <ele>550</ele>
      </trkpt>
      <trkpt lat="44.25793" lon="5.82354">
        <ele>540</ele>
      </trkpt>
      <trkpt lat="44.25743" lon="5.82419">
        <ele>532</ele>
      </trkpt>
      <trkpt lat="44.25728" lon="5.82463">
        <ele>527</ele>
        <time>2024-01-30T20:08:43Z</time>
      </trkpt>
      <trkpt lat="44.25678" lon="5.82519">
        <ele>527</ele>
        <time>2024-01-30T20:08:58Z</time>
      </trkpt>
      <trkpt lat="44.25648" lon="5.82561">
        <ele>526</ele>
        <time>2024-01-30T20:09:07Z</time>
      </trkpt>
      <trkpt lat="44.25604" lon="5.82635">
        <ele>524</ele>
        <time>2024-01-30T20:09:20Z</time>
      </trkpt>
      <trkpt lat="44.2558" lon="5.82682">
        <ele>524</ele>
        <time>2024-01-30T20:09:27Z</time>
      </trkpt>
      <trkpt lat="44.25536" lon="5.82793">
        <ele>521</ele>
        <time>2024-01-30T20:09:41Z</time>
      </trkpt>
      <trkpt lat="44.25475" lon="5.83014">
        <ele>519</ele>
        <time>2024-01-30T20:10:04Z</time>
      </trkpt>
      <trkpt lat="44.25463" lon="5.83048">
        <ele>519</ele>
        <time>2024-01-30T20:10:09Z</time>
      </trkpt>
      <trkpt lat="44.25446" lon="5.83085">
        <ele>519</ele>
        <time>2024-01-30T20:10:14Z</time>
      </trkpt>
      <trkpt lat="44.25424" lon="5.83123">
        <ele>520</ele>
        <time>2024-01-30T20:10:21Z</time>
      </trkpt>
      <trkpt lat="44.25405" lon="5.83151">
        <ele>520</ele>
        <time>2024-01-30T20:10:27Z</time>
      </trkpt>
      <trkpt lat="44.25381" lon="5.83179">
        <ele>521</ele>
        <time>2024-01-30T20:10:35Z</time>
      </trkpt>
      <trkpt lat="44.25299" lon="5.8326">
        <ele>523</ele>
        <time>2024-01-30T20:11:01Z</time>
      </trkpt>
      <trkpt lat="44.25258" lon="5.833">
        <ele>526</ele>
        <time>2024-01-30T20:11:14Z</time>
      </trkpt>
      <trkpt lat="44.25169" lon="5.83372">
        <ele>530</ele>
        <time>2024-01-30T20:11:41Z</time>
      </trkpt>
      <trkpt lat="44.25151" lon="5.8339">
        <ele>529</ele>
        <time>2024-01-30T20:11:47Z</time>
      </trkpt>
      <trkpt lat="44.25125" lon="5.83424">
        <ele>530</ele>
        <time>2024-01-30T20:11:56Z</time>
      </trkpt>
      <trkpt lat="44.25096" lon="5.83482">
        <ele>531</ele>
        <time>2024-01-30T20:12:10Z</time>
      </trkpt>
      <trkpt lat="44.25081" lon="5.83532">
        <ele>531</ele>
        <time>2024-01-30T20:12:21Z</time>
      </trkpt>
      <trkpt lat="44.2506" lon="5.83634">
        <ele>533</ele>
        <time>2024-01-30T20:12:42Z</time>
      </trkpt>
      <trkpt lat="44.24999" lon="5.83935">
        <ele>539</ele>
        <time>2024-01-30T20:13:38Z</time>
      </trkpt>
      <trkpt lat="44.2498" lon="5.83986">
        <ele>540</ele>
        <time>2024-01-30T20:13:47Z</time>
      </trkpt>
      <trkpt lat="44.24964" lon="5.84009">
        <ele>540</ele>
        <time>2024-01-30T20:13:51Z</time>
      </trkpt>
      <trkpt lat="44.24943" lon="5.8403">
        <ele>541</ele>
        <time>2024-01-30T20:13:56Z</time>
      </trkpt>
      <trkpt lat="44.2463" lon="5.84285">
        <ele>541</ele>
        <time>2024-01-30T20:14:57Z</time>
      </trkpt>
      <trkpt lat="44.24616" lon="5.84232">
        <ele>542</ele>
        <time>2024-01-30T20:14:58Z</time>
      </trkpt>
      <trkpt lat="44.24591" lon="5.84156">
        <ele>546</ele>
      </trkpt>
      <trkpt lat="44.24562" lon="5.8409">
        <ele>550</ele>
      </trkpt>
      <trkpt lat="44.24535" lon="5.83961">
        <ele>557</ele>
      </trkpt>
      <trkpt lat="44.24493" lon="5.83841">
        <ele>567</ele>
      </trkpt>
      <trkpt lat="44.24465" lon="5.83798">
        <ele>571</ele>
      </trkpt>
      <trkpt lat="44.24395" lon="5.83855">
        <ele>568</ele>
      </trkpt>
      <trkpt lat="44.24317" lon="5.8398">
        <ele>560</ele>
      </trkpt>
      <trkpt lat="44.24306" lon="5.83986">
        <ele>558</ele>
      </trkpt>
      <trkpt lat="44.24301" lon="5.84019">
        <ele>555</ele>
      </trkpt>
      <trkpt lat="44.24295" lon="5.84021">
        <ele>554</ele>
      </trkpt>
      <trkpt lat="44.24288" lon="5.84016">
        <ele>554</ele>
      </trkpt>
      <trkpt lat="44.24284" lon="5.84014">
        <ele>553</ele>
      </trkpt>
      <trkpt lat="44.24282" lon="5.84025">
        <ele>552</ele>
      </trkpt>
      <trkpt lat="44.24291" lon="5.84042">
        <ele>552</ele>
      </trkpt>
      <trkpt lat="44.24292" lon="5.84058">
        <ele>551</ele>
      </trkpt>
      <trkpt lat="44.24269" lon="5.8415">
        <ele>546</ele>
      </trkpt>
      <trkpt lat="44.24059" lon="5.84155">
        <ele>540</ele>
        <time>2024-01-30T20:15:46Z</time>
      </trkpt>
      <trkpt lat="44.2395" lon="5.84198">
        <ele>541</ele>
        <time>2024-01-30T20:16:00Z</time>
      </trkpt>
      <trkpt lat="44.23913" lon="5.84192">
        <ele>543</ele>
        <time>2024-01-30T20:16:37Z</time>
      </trkpt>
      <trkpt lat="44.23877" lon="5.84243">
        <ele>543</ele>
        <time>2024-01-30T20:16:39Z</time>
      </trkpt>
      <trkpt lat="44.23834" lon="5.84279">
        <ele>543</ele>
      </trkpt>
      <trkpt lat="44.2377" lon="5.84307">
        <ele>542</ele>
      </trkpt>
      <trkpt lat="44.23701" lon="5.84419">
        <ele>539</ele>
      </trkpt>
      <trkpt lat="44.23618" lon="5.84612">
        <ele>534</ele>
      </trkpt>
      <trkpt lat="44.23575" lon="5.84598">
        <ele>536</ele>
      </trkpt>
      <trkpt lat="44.2351" lon="5.84497">
        <ele>541</ele>
      </trkpt>
      <trkpt lat="44.23468" lon="5.84522">
        <ele>540</ele>
      </trkpt>
      <trkpt lat="44.23427" lon="5.84535">
        <ele>540</ele>
      </trkpt>
      <trkpt lat="44.23394" lon="5.84565">
        <ele>540</ele>
      </trkpt>
      <trkpt lat="44.23314" lon="5.84677">
        <ele>538</ele>
      </trkpt>
      <trkpt lat="44.23296" lon="5.84752">
        <ele>536</ele>
        <time>2024-01-30T20:17:51Z</time>
      </trkpt>
      <trkpt lat="44.23299" lon="5.8494">
        <ele>530</ele>
        <time>2024-01-30T20:17:57Z</time>
      </trkpt>
      <trkpt lat="44.23309" lon="5.85035">
        <ele>528</ele>
      </trkpt>
      <trkpt lat="44.23331" lon="5.85324">
        <ele>522</ele>
        <time>2024-01-30T20:18:02Z</time>
      </trkpt>
      <trkpt lat="44.23329" lon="5.8536">
        <ele>523</ele>
      </trkpt>
      <trkpt lat="44.23316" lon="5.85409">
        <ele>520</ele>
        <time>2024-01-30T20:18:13Z</time>
      </trkpt>
      <trkpt lat="44.23305" lon="5.85478">
        <ele>514</ele>
        <time>2024-01-30T20:18:30Z</time>
      </trkpt>
      <trkpt lat="44.23304" lon="5.85498">
        <ele>512</ele>
        <time>2024-01-30T20:19:19Z</time>
      </trkpt>
      <trkpt lat="44.23266" lon="5.85506">
        <ele>508</ele>
        <time>2024-01-30T20:19:31Z</time>
      </trkpt>
      <trkpt lat="44.23248" lon="5.85508">
        <ele>508</ele>
        <time>2024-01-30T20:19:36Z</time>
      </trkpt>
      <trkpt lat="44.23223" lon="5.85516">
        <ele>511</ele>
        <time>2024-01-30T20:19:45Z</time>
      </trkpt>
      <trkpt lat="44.23201" lon="5.85541">
        <ele>515</ele>
        <time>2024-01-30T20:19:54Z</time>
      </trkpt>
      <trkpt lat="44.23186" lon="5.85562">
        <ele>518</ele>
        <time>2024-01-30T20:20:01Z</time>
      </trkpt>
      <trkpt lat="44.23145" lon="5.8562">
        <ele>522</ele>
        <time>2024-01-30T20:20:20Z</time>
      </trkpt>
      <trkpt lat="44.23138" lon="5.85628">
        <ele>523</ele>
        <time>2024-01-30T20:20:22Z</time>
      </trkpt>
      <trkpt lat="44.23131" lon="5.85636">
        <ele>523</ele>
        <time>2024-01-30T20:20:25Z</time>
      </trkpt>
      <trkpt lat="44.23124" lon="5.85643">
        <ele>523</ele>
        <time>2024-01-30T20:20:27Z</time>
      </trkpt>
      <trkpt lat="44.23114" lon="5.85653">
        <ele>523</ele>
        <time>2024-01-30T20:20:30Z</time>
      </trkpt>
      <trkpt lat="44.23103" lon="5.85663">
        <ele>523</ele>
        <time>2024-01-30T20:20:32Z</time>
      </trkpt>
      <trkpt lat="44.23069" lon="5.85687">
        <ele>522</ele>
        <time>2024-01-30T20:20:40Z</time>
      </trkpt>
      <trkpt lat="44.23058" lon="5.85694">
        <ele>522</ele>
        <time>2024-01-30T20:20:42Z</time>
      </trkpt>
      <trkpt lat="44.2302" lon="5.85722">
        <ele>521</ele>
        <time>2024-01-30T20:20:50Z</time>
      </trkpt>
      <trkpt lat="44.23" lon="5.85737">
        <ele>520</ele>
        <time>2024-01-30T20:20:54Z</time>
      </trkpt>
      <trkpt lat="44.22992" lon="5.85742">
        <ele>520</ele>
        <time>2024-01-30T20:20:55Z</time>
      </trkpt>
      <trkpt lat="44.22985" lon="5.85747">
        <ele>520</ele>
        <time>2024-01-30T20:20:57Z</time>
      </trkpt>
      <trkpt lat="44.2297" lon="5.85757">
        <ele>519</ele>
        <time>2024-01-30T20:20:59Z</time>
      </trkpt>
      <trkpt lat="44.22949" lon="5.85711">
        <ele>522</ele>
        <time>2024-01-30T20:21:06Z</time>
      </trkpt>
      <trkpt lat="44.22941" lon="5.85705">
        <ele>522</ele>
        <time>2024-01-30T20:21:07Z</time>
      </trkpt>
      <trkpt lat="44.22934" lon="5.85705">
        <ele>522</ele>
        <time>2024-01-30T20:21:09Z</time>
      </trkpt>
      <trkpt lat="44.22845" lon="5.85722">
        <ele>521</ele>
        <time>2024-01-30T20:21:25Z</time>
      </trkpt>
      <trkpt lat="44.22761" lon="5.85763">
        <ele>520</ele>
        <time>2024-01-30T20:21:42Z</time>
      </trkpt>
      <trkpt lat="44.2273" lon="5.85775">
        <ele>520</ele>
        <time>2024-01-30T20:21:48Z</time>
      </trkpt>
      <trkpt lat="44.22647" lon="5.85788">
        <ele>520</ele>
        <time>2024-01-30T20:22:04Z</time>
      </trkpt>
      <trkpt lat="44.22441" lon="5.8582">
        <ele>525</ele>
        <time>2024-01-30T20:22:39Z</time>
      </trkpt>
      <trkpt lat="44.22439" lon="5.8583">
        <ele>524</ele>
        <time>2024-01-30T20:22:40Z</time>
      </trkpt>
      <trkpt lat="44.22435" lon="5.85835">
        <ele>524</ele>
        <time>2024-01-30T20:22:41Z</time>
      </trkpt>
      <trkpt lat="44.22414" lon="5.85841">
        <ele>524</ele>
        <time>2024-01-30T20:22:45Z</time>
      </trkpt>
      <trkpt lat="44.22388" lon="5.85838">
        <ele>522</ele>
        <time>2024-01-30T20:22:49Z</time>
      </trkpt>
      <trkpt lat="44.22325" lon="5.85846">
        <ele>515</ele>
        <time>2024-01-30T20:22:58Z</time>
      </trkpt>
      <trkpt lat="44.22315" lon="5.85848">
        <ele>515</ele>
        <time>2024-01-30T20:23:00Z</time>
      </trkpt>
      <trkpt lat="44.22303" lon="5.85855">
        <ele>516</ele>
        <time>2024-01-30T20:23:02Z</time>
      </trkpt>
      <trkpt lat="44.22298" lon="5.85868">
        <ele>516</ele>
        <time>2024-01-30T20:23:04Z</time>
      </trkpt>
      <trkpt lat="44.22289" lon="5.85913">
        <ele>515</ele>
        <time>2024-01-30T20:23:09Z</time>
      </trkpt>
      <trkpt lat="44.22149" lon="5.85953">
        <ele>519</ele>
        <time>2024-01-30T20:23:33Z</time>
      </trkpt>
      <trkpt lat="44.22124" lon="5.85966">
        <ele>518</ele>
        <time>2024-01-30T20:23:38Z</time>
      </trkpt>
      <trkpt lat="44.22001" lon="5.86085">
        <ele>517</ele>
        <time>2024-01-30T20:24:04Z</time>
      </trkpt>
      <trkpt lat="44.21848" lon="5.86205">
        <ele>514</ele>
        <time>2024-01-30T20:24:34Z</time>
      </trkpt>
      <trkpt lat="44.21834" lon="5.86204">
        <ele>514</ele>
        <time>2024-01-30T20:24:38Z</time>
      </trkpt>
      <trkpt lat="44.21812" lon="5.86196">
        <ele>512</ele>
        <time>2024-01-30T20:24:45Z</time>
      </trkpt>
      <trkpt lat="44.21783" lon="5.86199">
        <ele>511</ele>
        <time>2024-01-30T20:24:53Z</time>
      </trkpt>
      <trkpt lat="44.2177" lon="5.86205">
        <ele>510</ele>
        <time>2024-01-30T20:24:57Z</time>
      </trkpt>
      <trkpt lat="44.21758" lon="5.86207">
        <ele>510</ele>
        <time>2024-01-30T20:25:01Z</time>
      </trkpt>
      <trkpt lat="44.21714" lon="5.86232">
        <ele>511</ele>
        <time>2024-01-30T20:25:15Z</time>
      </trkpt>
      <trkpt lat="44.21692" lon="5.86237">
        <ele>513</ele>
        <time>2024-01-30T20:25:22Z</time>
      </trkpt>
      <trkpt lat="44.21679" lon="5.86246">
        <ele>513</ele>
        <time>2024-01-30T20:25:26Z</time>
      </trkpt>
      <trkpt lat="44.21667" lon="5.86258">
        <ele>513</ele>
        <time>2024-01-30T20:25:31Z</time>
      </trkpt>
      <trkpt lat="44.21666" lon="5.86263">
        <ele>513</ele>
        <time>2024-01-30T20:25:32Z</time>
      </trkpt>
      <trkpt lat="44.21651" lon="5.86274">
        <ele>514</ele>
        <time>2024-01-30T20:25:37Z</time>
      </trkpt>
      <trkpt lat="44.21587" lon="5.86317">
        <ele>515</ele>
        <time>2024-01-30T20:25:59Z</time>
      </trkpt>
      <trkpt lat="44.21484" lon="5.86352">
        <ele>514</ele>
        <time>2024-01-30T20:26:31Z</time>
      </trkpt>
      <trkpt lat="44.21458" lon="5.86356">
        <ele>514</ele>
        <time>2024-01-30T20:26:39Z</time>
      </trkpt>
      <trkpt lat="44.21408" lon="5.86378">
        <ele>514</ele>
        <time>2024-01-30T20:26:50Z</time>
      </trkpt>
      <trkpt lat="44.21209" lon="5.86441">
        <ele>518</ele>
        <time>2024-01-30T20:27:34Z</time>
      </trkpt>
      <trkpt lat="44.21203" lon="5.86443">
        <ele>518</ele>
        <time>2024-01-30T20:27:35Z</time>
      </trkpt>
      <trkpt lat="44.21159" lon="5.8647">
        <ele>517</ele>
        <time>2024-01-30T20:27:49Z</time>
      </trkpt>
      <trkpt lat="44.21101" lon="5.86498">
        <ele>517</ele>
        <time>2024-01-30T20:28:08Z</time>
      </trkpt>
      <trkpt lat="44.21054" lon="5.86526">
        <ele>516</ele>
        <time>2024-01-30T20:28:25Z</time>
      </trkpt>
      <trkpt lat="44.20896" lon="5.86601">
        <ele>517</ele>
        <time>2024-01-30T20:29:27Z</time>
      </trkpt>
      <trkpt lat="44.20856" lon="5.86641">
        <ele>517</ele>
        <time>2024-01-30T20:29:45Z</time>
      </trkpt>
      <trkpt lat="44.20798" lon="5.86739">
        <ele>516</ele>
        <time>2024-01-30T20:30:17Z</time>
      </trkpt>
      <trkpt lat="44.2072" lon="5.86776">
        <ele>519</ele>
        <time>2024-01-30T20:30:44Z</time>
      </trkpt>
      <trkpt lat="44.20602" lon="5.86816">
        <ele>523</ele>
        <time>2024-01-30T20:31:28Z</time>
      </trkpt>
      <trkpt lat="44.20536" lon="5.86838">
        <ele>525</ele>
        <time>2024-01-30T20:31:55Z</time>
      </trkpt>
      <trkpt lat="44.20516" lon="5.86862">
        <ele>526</ele>
        <time>2024-01-30T20:32:05Z</time>
      </trkpt>
      <trkpt lat="44.20488" lon="5.8687">
        <ele>527</ele>
        <time>2024-01-30T20:32:17Z</time>
      </trkpt>
      <trkpt lat="44.20394" lon="5.86913">
        <ele>529</ele>
        <time>2024-01-30T20:32:59Z</time>
      </trkpt>
      <trkpt lat="44.20355" lon="5.86934">
        <ele>531</ele>
        <time>2024-01-30T20:33:19Z</time>
      </trkpt>
      <trkpt lat="44.20293" lon="5.86962">
        <ele>533</ele>
        <time>2024-01-30T20:33:54Z</time>
      </trkpt>
      <trkpt lat="44.20268" lon="5.86923">
        <ele>536</ele>
        <time>2024-01-30T20:34:14Z</time>
      </trkpt>
      <trkpt lat="44.20243" lon="5.86914">
        <ele>539</ele>
        <time>2024-01-30T20:34:29Z</time>
      </trkpt>
      <trkpt lat="44.20206" lon="5.86914">
        <ele>543</ele>
        <time>2024-01-30T20:34:48Z</time>
      </trkpt>
      <trkpt lat="44.20153" lon="5.86923">
        <ele>549</ele>
        <time>2024-01-30T20:35:15Z</time>
      </trkpt>
      <trkpt lat="44.20129" lon="5.86924">
        <ele>551</ele>
        <time>2024-01-30T20:35:26Z</time>
      </trkpt>
      <trkpt lat="44.20074" lon="5.86947">
        <ele>555</ele>
        <time>2024-01-30T20:35:49Z</time>
      </trkpt>
      <trkpt lat="44.20016" lon="5.8696">
        <ele>556</ele>
        <time>2024-01-30T20:36:08Z</time>
      </trkpt>
      <trkpt lat="44.20001" lon="5.86966">
        <ele>555</ele>
        <time>2024-01-30T20:36:13Z</time>
      </trkpt>
      <trkpt lat="44.19994" lon="5.86969">
        <ele>554</ele>
        <time>2024-01-30T20:36:15Z</time>
      </trkpt>
      <trkpt lat="44.19985" lon="5.86983">
        <ele>551</ele>
        <time>2024-01-30T20:36:19Z</time>
      </trkpt>
      <trkpt lat="44.19976" lon="5.87023">
        <ele>544</ele>
        <time>2024-01-30T20:36:26Z</time>
      </trkpt>
      <trkpt lat="44.19969" lon="5.87153">
        <ele>539</ele>
        <time>2024-01-30T20:36:49Z</time>
      </trkpt>
      <trkpt lat="44.19973" lon="5.87171">
        <ele>538</ele>
        <time>2024-01-30T20:36:52Z</time>
      </trkpt>
      <trkpt lat="44.20033" lon="5.87215">
        <ele>534</ele>
        <time>2024-01-30T20:37:08Z</time>
      </trkpt>
      <trkpt lat="44.20045" lon="5.87228">
        <ele>533</ele>
        <time>2024-01-30T20:37:12Z</time>
      </trkpt>
      <trkpt lat="44.20057" lon="5.87251">
        <ele>531</ele>
        <time>2024-01-30T20:37:16Z</time>
      </trkpt>
      <trkpt lat="44.20077" lon="5.87315">
        <ele>530</ele>
        <time>2024-01-30T20:37:27Z</time>
      </trkpt>
      <trkpt lat="44.20097" lon="5.8735">
        <ele>529</ele>
        <time>2024-01-30T20:37:35Z</time>
      </trkpt>
      <trkpt lat="44.20122" lon="5.8738">
        <ele>529</ele>
        <time>2024-01-30T20:37:42Z</time>
      </trkpt>
      <trkpt lat="44.20143" lon="5.87385">
        <ele>528</ele>
        <time>2024-01-30T20:37:47Z</time>
      </trkpt>
      <trkpt lat="44.20158" lon="5.87396">
        <ele>527</ele>
        <time>2024-01-30T20:37:51Z</time>
      </trkpt>
      <trkpt lat="44.20237" lon="5.87473">
        <ele>523</ele>
        <time>2024-01-30T20:38:03Z</time>
      </trkpt>
      <trkpt lat="44.20495" lon="5.87607">
        <ele>508</ele>
        <time>2024-01-30T20:38:41Z</time>
      </trkpt>
      <trkpt lat="44.20417" lon="5.87796">
        <ele>506</ele>
        <time>2024-01-30T20:39:03Z</time>
      </trkpt>
      <trkpt lat="44.20404" lon="5.87836">
        <ele>506</ele>
        <time>2024-01-30T20:39:08Z</time>
      </trkpt>
      <trkpt lat="44.20345" lon="5.87982">
        <ele>502</ele>
        <time>2024-01-30T20:39:27Z</time>
      </trkpt>
      <trkpt lat="44.20322" lon="5.8807">
        <ele>501</ele>
        <time>2024-01-30T20:39:38Z</time>
      </trkpt>
      <trkpt lat="44.20309" lon="5.88097">
        <ele>501</ele>
        <time>2024-01-30T20:39:42Z</time>
      </trkpt>
      <trkpt lat="44.20287" lon="5.88107">
        <ele>502</ele>
        <time>2024-01-30T20:39:46Z</time>
      </trkpt>
      <trkpt lat="44.20272" lon="5.88106">
        <ele>503</ele>
        <time>2024-01-30T20:39:49Z</time>
      </trkpt>
      <trkpt lat="44.20271" lon="5.88112">
        <ele>502</ele>
        <time>2024-01-30T20:39:50Z</time>
      </trkpt>
      <trkpt lat="44.20281" lon="5.88143">
        <ele>501</ele>
        <time>2024-01-30T20:39:57Z</time>
      </trkpt>
      <trkpt lat="44.2028" lon="5.88155">
        <ele>501</ele>
        <time>2024-01-30T20:39:59Z</time>
      </trkpt>
      <trkpt lat="44.20261" lon="5.88208">
        <ele>501</ele>
        <time>2024-01-30T20:40:11Z</time>
      </trkpt>
      <trkpt lat="44.2024" lon="5.88292">
        <ele>501</ele>
        <time>2024-01-30T20:40:30Z</time>
      </trkpt>
      <trkpt lat="44.20234" lon="5.88322">
        <ele>501</ele>
        <time>2024-01-30T20:40:37Z</time>
      </trkpt>
      <trkpt lat="44.20255" lon="5.8839">
        <ele>499</ele>
        <time>2024-01-30T20:40:52Z</time>
      </trkpt>
      <trkpt lat="44.20257" lon="5.88408">
        <ele>499</ele>
        <time>2024-01-30T20:40:56Z</time>
      </trkpt>
      <trkpt lat="44.20248" lon="5.88459">
        <ele>499</ele>
        <time>2024-01-30T20:41:08Z</time>
      </trkpt>
      <trkpt lat="44.20246" lon="5.8853">
        <ele>499</ele>
        <time>2024-01-30T20:41:23Z</time>
      </trkpt>
      <trkpt lat="44.20252" lon="5.88595">
        <ele>499</ele>
        <time>2024-01-30T20:41:38Z</time>
      </trkpt>
      <trkpt lat="44.2026" lon="5.88646">
        <ele>499</ele>
        <time>2024-01-30T20:41:50Z</time>
      </trkpt>
      <trkpt lat="44.2026" lon="5.88675">
        <ele>499</ele>
        <time>2024-01-30T20:41:57Z</time>
      </trkpt>
      <trkpt lat="44.20257" lon="5.88685">
        <ele>499</ele>
        <time>2024-01-30T20:41:59Z</time>
      </trkpt>
      <trkpt lat="44.20246" lon="5.88793">
        <ele>498</ele>
        <time>2024-01-30T20:42:26Z</time>
      </trkpt>
      <trkpt lat="44.20229" lon="5.88843">
        <ele>499</ele>
        <time>2024-01-30T20:42:40Z</time>
      </trkpt>
      <trkpt lat="44.20211" lon="5.88876">
        <ele>501</ele>
        <time>2024-01-30T20:42:50Z</time>
      </trkpt>
      <trkpt lat="44.20204" lon="5.88906">
        <ele>502</ele>
        <time>2024-01-30T20:42:57Z</time>
      </trkpt>
      <trkpt lat="44.20193" lon="5.88991">
        <ele>503</ele>
        <time>2024-01-30T20:43:19Z</time>
      </trkpt>
      <trkpt lat="44.2019" lon="5.89064">
        <ele>503</ele>
        <time>2024-01-30T20:43:38Z</time>
      </trkpt>
      <trkpt lat="44.20168" lon="5.89157">
        <ele>504</ele>
        <time>2024-01-30T20:44:03Z</time>
      </trkpt>
      <trkpt lat="44.20153" lon="5.89189">
        <ele>505</ele>
        <time>2024-01-30T20:44:14Z</time>
      </trkpt>
      <trkpt lat="44.20124" lon="5.89278">
        <ele>506</ele>
        <time>2024-01-30T20:44:41Z</time>
      </trkpt>
      <trkpt lat="44.20107" lon="5.89314">
        <ele>507</ele>
        <time>2024-01-30T20:44:52Z</time>
      </trkpt>
      <trkpt lat="44.20102" lon="5.89337">
        <ele>507</ele>
        <time>2024-01-30T20:44:59Z</time>
      </trkpt>
      <trkpt lat="44.20098" lon="5.89387">
        <ele>508</ele>
        <time>2024-01-30T20:45:12Z</time>
      </trkpt>
      <trkpt lat="44.201" lon="5.89469">
        <ele>508</ele>
        <time>2024-01-30T20:45:31Z</time>
      </trkpt>
      <trkpt lat="44.20103" lon="5.89487">
        <ele>508</ele>
        <time>2024-01-30T20:45:36Z</time>
      </trkpt>
      <trkpt lat="44.20116" lon="5.89481">
        <ele>507</ele>
        <time>2024-01-30T20:45:39Z</time>
      </trkpt>
      <trkpt lat="44.20094" lon="5.89599">
        <ele>507</ele>
        <time>2024-01-30T20:46:04Z</time>
      </trkpt>
      <trkpt lat="44.20092" lon="5.89633">
        <ele>506</ele>
        <time>2024-01-30T20:46:11Z</time>
      </trkpt>
      <trkpt lat="44.20093" lon="5.89679">
        <ele>505</ele>
        <time>2024-01-30T20:46:20Z</time>
      </trkpt>
      <trkpt lat="44.20103" lon="5.89802">
        <ele>503</ele>
        <time>2024-01-30T20:46:45Z</time>
      </trkpt>
      <trkpt lat="44.20118" lon="5.89878">
        <ele>503</ele>
        <time>2024-01-30T20:47:01Z</time>
      </trkpt>
      <trkpt lat="44.20115" lon="5.89895">
        <ele>503</ele>
        <time>2024-01-30T20:47:04Z</time>
      </trkpt>
      <trkpt lat="44.2011" lon="5.90012">
        <ele>501</ele>
        <time>2024-01-30T20:47:30Z</time>
      </trkpt>
      <trkpt lat="44.20105" lon="5.90065">
        <ele>500</ele>
        <time>2024-01-30T20:47:42Z</time>
      </trkpt>
      <trkpt lat="44.20106" lon="5.90094">
        <ele>500</ele>
        <time>2024-01-30T20:47:50Z</time>
      </trkpt>
      <trkpt lat="44.20098" lon="5.90156">
        <ele>501</ele>
        <time>2024-01-30T20:48:07Z</time>
      </trkpt>
      <trkpt lat="44.20094" lon="5.90265">
        <ele>503</ele>
        <time>2024-01-30T20:48:46Z</time>
      </trkpt>
      <trkpt lat="44.20074" lon="5.90307">
        <ele>506</ele>
        <time>2024-01-30T20:49:03Z</time>
      </trkpt>
      <trkpt lat="44.20039" lon="5.90369">
        <ele>511</ele>
        <time>2024-01-30T20:49:32Z</time>
      </trkpt>
      <trkpt lat="44.20035" lon="5.9038">
        <ele>512</ele>
        <time>2024-01-30T20:49:37Z</time>
      </trkpt>
      <trkpt lat="44.20026" lon="5.90439">
        <ele>514</ele>
        <time>2024-01-30T20:49:59Z</time>
      </trkpt>
      <trkpt lat="44.20009" lon="5.90496">
        <ele>518</ele>
        <time>2024-01-30T20:50:22Z</time>
      </trkpt>
      <trkpt lat="44.20002" lon="5.90543">
        <ele>518</ele>
        <time>2024-01-30T20:50:40Z</time>
      </trkpt>
      <trkpt lat="44.19994" lon="5.90576">
        <ele>519</ele>
        <time>2024-01-30T20:50:52Z</time>
      </trkpt>
      <trkpt lat="44.19955" lon="5.90686">
        <ele>526</ele>
        <time>2024-01-30T20:51:39Z</time>
      </trkpt>
      <trkpt lat="44.19943" lon="5.90715">
        <ele>527</ele>
        <time>2024-01-30T20:51:52Z</time>
      </trkpt>
      <trkpt lat="44.19928" lon="5.90737">
        <ele>530</ele>
        <time>2024-01-30T20:52:04Z</time>
      </trkpt>
      <trkpt lat="44.19918" lon="5.90745">
        <ele>530</ele>
        <time>2024-01-30T20:52:10Z</time>
      </trkpt>
      <trkpt lat="44.19907" lon="5.90751">
        <ele>532</ele>
        <time>2024-01-30T20:52:16Z</time>
      </trkpt>
      <trkpt lat="44.19875" lon="5.90755">
        <ele>538</ele>
        <time>2024-01-30T20:52:33Z</time>
      </trkpt>
      <trkpt lat="44.19855" lon="5.90763">
        <ele>543</ele>
        <time>2024-01-30T20:52:44Z</time>
      </trkpt>
      <trkpt lat="44.19832" lon="5.90783">
        <ele>547</ele>
        <time>2024-01-30T20:52:59Z</time>
      </trkpt>
      <trkpt lat="44.19823" lon="5.90798">
        <ele>548</ele>
        <time>2024-01-30T20:53:07Z</time>
      </trkpt>
      <trkpt lat="44.19822" lon="5.90807">
        <ele>549</ele>
        <time>2024-01-30T20:53:11Z</time>
      </trkpt>
      <trkpt lat="44.19823" lon="5.90817">
        <ele>549</ele>
        <time>2024-01-30T20:53:15Z</time>
      </trkpt>
      <trkpt lat="44.19837" lon="5.90864">
        <ele>551</ele>
        <time>2024-01-30T20:53:34Z</time>
      </trkpt>
      <trkpt lat="44.19839" lon="5.90877">
        <ele>551</ele>
        <time>2024-01-30T20:53:39Z</time>
      </trkpt>
      <trkpt lat="44.19837" lon="5.90906">
        <ele>553</ele>
        <time>2024-01-30T20:53:50Z</time>
      </trkpt>
      <trkpt lat="44.19817" lon="5.91048">
        <ele>557</ele>
        <time>2024-01-30T20:54:30Z</time>
      </trkpt>
      <trkpt lat="44.198" lon="5.91104">
        <ele>562</ele>
        <time>2024-01-30T20:54:44Z</time>
      </trkpt>
      <trkpt lat="44.19785" lon="5.9118">
        <ele>566</ele>
        <time>2024-01-30T20:55:02Z</time>
      </trkpt>
      <trkpt lat="44.19774" lon="5.91213">
        <ele>567</ele>
        <time>2024-01-30T20:55:09Z</time>
      </trkpt>
      <trkpt lat="44.1977" lon="5.91222">
        <ele>567</ele>
        <time>2024-01-30T20:55:11Z</time>
      </trkpt>
      <trkpt lat="44.19726" lon="5.91342">
        <ele>574</ele>
        <time>2024-01-30T20:55:37Z</time>
      </trkpt>
      <trkpt lat="44.19738" lon="5.91349">
        <ele>574</ele>
        <time>2024-01-30T20:56:06Z</time>
      </trkpt>
      <trkpt lat="44.19749" lon="5.91365">
        <ele>575</ele>
      </trkpt>
      <trkpt lat="44.19772" lon="5.91373">
        <ele>576</ele>
        <time>2024-01-30T20:56:17Z</time>
      </trkpt>
      <trkpt lat="44.19787" lon="5.91387">
        <ele>577</ele>
      </trkpt>
      <trkpt lat="44.19807" lon="5.91434">
        <ele>582</ele>
      </trkpt>
      <trkpt lat="44.19809" lon="5.91456">
        <ele>585</ele>
      </trkpt>
      <trkpt lat="44.19821" lon="5.9151">
        <ele>588</ele>
      </trkpt>
      <trkpt lat="44.19836" lon="5.91627">
        <ele>586</ele>
      </trkpt>
      <trkpt lat="44.1985" lon="5.91673">
        <ele>587</ele>
      </trkpt>
      <trkpt lat="44.19859" lon="5.9171">
        <ele>588</ele>
      </trkpt>
      <trkpt lat="44.19871" lon="5.91747">
        <ele>585</ele>
      </trkpt>
      <trkpt lat="44.19869" lon="5.91774">
        <ele>585</ele>
      </trkpt>
      <trkpt lat="44.19862" lon="5.91826">
        <ele>585</ele>
      </trkpt>
      <trkpt lat="44.19853" lon="5.91873">
        <ele>590</ele>
      </trkpt>
      <trkpt lat="44.19837" lon="5.91894">
        <ele>596</ele>
      </trkpt>
      <trkpt lat="44.19833" lon="5.9192">
        <ele>598</ele>
      </trkpt>
      <trkpt lat="44.19844" lon="5.91947">
        <ele>595</ele>
      </trkpt>
      <trkpt lat="44.19854" lon="5.91987">
        <ele>593</ele>
      </trkpt>
      <trkpt lat="44.19859" lon="5.92042">
        <ele>592</ele>
      </trkpt>
      <trkpt lat="44.19872" lon="5.92082">
        <ele>591</ele>
      </trkpt>
      <trkpt lat="44.19868" lon="5.92221">
        <ele>596</ele>
      </trkpt>
      <trkpt lat="44.19865" lon="5.92252">
        <ele>601</ele>
      </trkpt>
      <trkpt lat="44.1988" lon="5.92327">
        <ele>591</ele>
      </trkpt>
      <trkpt lat="44.19877" lon="5.92365">
        <ele>589</ele>
      </trkpt>
      <trkpt lat="44.19836" lon="5.92627">
        <ele>581</ele>
      </trkpt>
      <trkpt lat="44.19844" lon="5.92726">
        <ele>577</ele>
      </trkpt>
      <trkpt lat="44.19843" lon="5.92758">
        <ele>577</ele>
      </trkpt>
      <trkpt lat="44.19851" lon="5.92806">
        <ele>577</ele>
      </trkpt>
      <trkpt lat="44.19849" lon="5.92832">
        <ele>578</ele>
      </trkpt>
      <trkpt lat="44.19856" lon="5.92903">
        <ele>578</ele>
      </trkpt>
      <trkpt lat="44.19866" lon="5.92988">
        <ele>581</ele>
      </trkpt>
      <trkpt lat="44.19887" lon="5.93038">
        <ele>579</ele>
      </trkpt>
      <trkpt lat="44.19893" lon="5.93113">
        <ele>578</ele>
      </trkpt>
      <trkpt lat="44.19901" lon="5.93203">
        <ele>573</ele>
      </trkpt>
      <trkpt lat="44.19899" lon="5.93229">
        <ele>570</ele>
      </trkpt>
      <trkpt lat="44.19887" lon="5.93251">
        <ele>566</ele>
      </trkpt>
      <trkpt lat="44.19898" lon="5.933">
        <ele>562</ele>
      </trkpt>
      <trkpt lat="44.19907" lon="5.93391">
        <ele>563</ele>
      </trkpt>
      <trkpt lat="44.19907" lon="5.93445">
        <ele>564</ele>
      </trkpt>
      <trkpt lat="44.19895" lon="5.93488">
        <ele>563</ele>
      </trkpt>
      <trkpt lat="44.19898" lon="5.93553">
        <ele>559</ele>
      </trkpt>
      <trkpt lat="44.19909" lon="5.93623">
        <ele>555</ele>
      </trkpt>
      <trkpt lat="44.19924" lon="5.9364">
        <ele>553</ele>
      </trkpt>
      <trkpt lat="44.19936" lon="5.93653">
        <ele>552</ele>
      </trkpt>
      <trkpt lat="44.19939" lon="5.93667">
        <ele>552</ele>
      </trkpt>
      <trkpt lat="44.19911" lon="5.93739">
        <ele>555</ele>
      </trkpt>
      <trkpt lat="44.19908" lon="5.93771">
        <ele>557</ele>
      </trkpt>
      <trkpt lat="44.19902" lon="5.93799">
        <ele>555</ele>
      </trkpt>
      <trkpt lat="44.1992" lon="5.93953">
        <ele>552</ele>
      </trkpt>
      <trkpt lat="44.1993" lon="5.93972">
        <ele>553</ele>
      </trkpt>
      <trkpt lat="44.19934" lon="5.94028">
        <ele>546</ele>
      </trkpt>
      <trkpt lat="44.19923" lon="5.94042">
        <ele>543</ele>
      </trkpt>
      <trkpt lat="44.19914" lon="5.94055">
        <ele>541</ele>
      </trkpt>
      <trkpt lat="44.19982" lon="5.94083">
        <ele>531</ele>
      </trkpt>
      <trkpt lat="44.19996" lon="5.94102">
        <ele>530</ele>
      </trkpt>
      <trkpt lat="44.2" lon="5.94137">
        <ele>527</ele>
      </trkpt>
      <trkpt lat="44.19999" lon="5.94206">
        <ele>523</ele>
      </trkpt>
      <trkpt lat="44.20004" lon="5.94204">
        <ele>519</ele>
      </trkpt>
      <trkpt lat="44.20014" lon="5.94128">
        <ele>515</ele>
      </trkpt>
      <trkpt lat="44.20012" lon="5.94073">
        <ele>514</ele>
      </trkpt>
      <trkpt lat="44.20017" lon="5.94046">
        <ele>511</ele>
      </trkpt>
      <trkpt lat="44.20023" lon="5.94044">
        <ele>508</ele>
      </trkpt>
      <trkpt lat="44.20028" lon="5.94088">
        <ele>502</ele>
      </trkpt>
      <trkpt lat="44.2004" lon="5.94155">
        <ele>497</ele>
      </trkpt>
      <trkpt lat="44.20043" lon="5.94274">
        <ele>489</ele>
      </trkpt>
      <trkpt lat="44.2004" lon="5.94322">
        <ele>488</ele>
      </trkpt>
      <trkpt lat="44.20032" lon="5.94364">
        <ele>484</ele>
      </trkpt>
      <trkpt lat="44.20037" lon="5.94363">
        <ele>484</ele>
      </trkpt>
      <trkpt lat="44.2005" lon="5.94313">
        <ele>484</ele>
      </trkpt>
      <trkpt lat="44.20061" lon="5.9428">
        <ele>481</ele>
      </trkpt>
      <trkpt lat="44.20077" lon="5.94284">
        <ele>481</ele>
      </trkpt>
      <trkpt lat="44.20086" lon="5.94303">
        <ele>478</ele>
      </trkpt>
      <trkpt lat="44.20078" lon="5.94335">
        <ele>478</ele>
      </trkpt>
      <trkpt lat="44.20045" lon="5.94431">
        <ele>476</ele>
      </trkpt>
      <trkpt lat="44.20022" lon="5.94451">
        <ele>476</ele>
      </trkpt>
      <trkpt lat="44.1998" lon="5.94474">
        <ele>476</ele>
      </trkpt>
      <trkpt lat="44.19957" lon="5.945">
        <ele>473</ele>
      </trkpt>
      <trkpt lat="44.19946" lon="5.94529">
        <ele>470</ele>
      </trkpt>
      <trkpt lat="44.19945" lon="5.94538">
        <ele>472</ele>
        <time>2024-01-30T21:04:25Z</time>
      </trkpt>
      <trkpt lat="44.19945" lon="5.94544">
        <ele>468</ele>
        <time>2024-01-30T21:04:26Z</time>
      </trkpt>
      <trkpt lat="44.19958" lon="5.94608">
        <ele>471</ele>
        <time>2024-01-30T21:04:55Z</time>
      </trkpt>
      <trkpt lat="44.19962" lon="5.94617">
        <ele>473</ele>
        <time>2024-01-30T21:05:00Z</time>
      </trkpt>
      <trkpt lat="44.19972" lon="5.94622">
        <ele>474</ele>
        <time>2024-01-30T21:05:07Z</time>
      </trkpt>
      <trkpt lat="44.19994" lon="5.94621">
        <ele>475</ele>
        <time>2024-01-30T21:05:20Z</time>
      </trkpt>
      <trkpt lat="44.20021" lon="5.94626">
        <ele>477</ele>
        <time>2024-01-30T21:05:36Z</time>
      </trkpt>
      <trkpt lat="44.20034" lon="5.94627">
        <ele>478</ele>
        <time>2024-01-30T21:05:43Z</time>
      </trkpt>
      <trkpt lat="44.2007" lon="5.94643">
        <ele>478</ele>
        <time>2024-01-30T21:06:03Z</time>
      </trkpt>
      <trkpt lat="44.20131" lon="5.94669">
        <ele>478</ele>
        <time>2024-01-30T21:06:29Z</time>
      </trkpt>
      <trkpt lat="44.20136" lon="5.9467">
        <ele>479</ele>
        <time>2024-01-30T21:06:31Z</time>
      </trkpt>
      <trkpt lat="44.20152" lon="5.94673">
        <ele>479</ele>
        <time>2024-01-30T21:06:35Z</time>
      </trkpt>
      <trkpt lat="44.20235" lon="5.94665">
        <ele>483</ele>
        <time>2024-01-30T21:06:50Z</time>
      </trkpt>
      <trkpt lat="44.20258" lon="5.94661">
        <ele>484</ele>
        <time>2024-01-30T21:06:53Z</time>
      </trkpt>
      <trkpt lat="44.20261" lon="5.94656">
        <ele>484</ele>
        <time>2024-01-30T21:06:54Z</time>
      </trkpt>
      <trkpt lat="44.20271" lon="5.94657">
        <ele>484</ele>
        <time>2024-01-30T21:06:55Z</time>
      </trkpt>
      <trkpt lat="44.20306" lon="5.9464">
        <ele>485</ele>
        <time>2024-01-30T21:07:00Z</time>
      </trkpt>
      <trkpt lat="44.20346" lon="5.94624">
        <ele>486</ele>
        <time>2024-01-30T21:07:06Z</time>
      </trkpt>
      <trkpt lat="44.20379" lon="5.94613">
        <ele>487</ele>
        <time>2024-01-30T21:07:11Z</time>
      </trkpt>
      <trkpt lat="44.20389" lon="5.94611">
        <ele>488</ele>
        <time>2024-01-30T21:07:14Z</time>
      </trkpt>
      <trkpt lat="44.20399" lon="5.94616">
        <ele>488</ele>
        <time>2024-01-30T21:07:16Z</time>
      </trkpt>
      <trkpt lat="44.20452" lon="5.94657">
        <ele>490</ele>
        <time>2024-01-30T21:07:34Z</time>
      </trkpt>
      <trkpt lat="44.20468" lon="5.9467">
        <ele>491</ele>
        <time>2024-01-30T21:07:41Z</time>
      </trkpt>
      <trkpt lat="44.20492" lon="5.94694">
        <ele>491</ele>
        <time>2024-01-30T21:07:51Z</time>
      </trkpt>
      <trkpt lat="44.20535" lon="5.94755">
        <ele>492</ele>
        <time>2024-01-30T21:08:11Z</time>
      </trkpt>
      <trkpt lat="44.20562" lon="5.94796">
        <ele>492</ele>
        <time>2024-01-30T21:08:21Z</time>
      </trkpt>
      <trkpt lat="44.2057" lon="5.94804">
        <ele>492</ele>
        <time>2024-01-30T21:08:22Z</time>
      </trkpt>
      <trkpt lat="44.20581" lon="5.94811">
        <ele>492</ele>
        <time>2024-01-30T21:08:25Z</time>
      </trkpt>
      <trkpt lat="44.20606" lon="5.9481">
        <ele>492</ele>
        <time>2024-01-30T21:08:29Z</time>
      </trkpt>
      <trkpt lat="44.20613" lon="5.94816">
        <ele>492</ele>
        <time>2024-01-30T21:08:31Z</time>
      </trkpt>
      <trkpt lat="44.20628" lon="5.94836">
        <ele>491</ele>
        <time>2024-01-30T21:08:34Z</time>
      </trkpt>
      <trkpt lat="44.20634" lon="5.94835">
        <ele>491</ele>
        <time>2024-01-30T21:08:35Z</time>
      </trkpt>
      <trkpt lat="44.20649" lon="5.94814">
        <ele>487</ele>
        <time>2024-01-30T21:08:39Z</time>
      </trkpt>
      <trkpt lat="44.20657" lon="5.94793">
        <ele>492</ele>
        <time>2024-01-30T21:08:42Z</time>
      </trkpt>
      <trkpt lat="44.20651" lon="5.94769">
        <ele>492</ele>
        <time>2024-01-30T21:08:45Z</time>
      </trkpt>
      <trkpt lat="44.20634" lon="5.94736">
        <ele>493</ele>
        <time>2024-01-30T21:08:50Z</time>
      </trkpt>
      <trkpt lat="44.20631" lon="5.94724">
        <ele>493</ele>
        <time>2024-01-30T21:08:51Z</time>
      </trkpt>
      <trkpt lat="44.20636" lon="5.94705">
        <ele>494</ele>
        <time>2024-01-30T21:08:54Z</time>
      </trkpt>
      <trkpt lat="44.20642" lon="5.94697">
        <ele>494</ele>
        <time>2024-01-30T21:08:56Z</time>
      </trkpt>
      <trkpt lat="44.20657" lon="5.94692">
        <ele>494</ele>
        <time>2024-01-30T21:08:59Z</time>
      </trkpt>
      <trkpt lat="44.20677" lon="5.94699">
        <ele>495</ele>
        <time>2024-01-30T21:09:03Z</time>
      </trkpt>
      <trkpt lat="44.20694" lon="5.94719">
        <ele>496</ele>
        <time>2024-01-30T21:09:09Z</time>
      </trkpt>
      <trkpt lat="44.20709" lon="5.94743">
        <ele>496</ele>
        <time>2024-01-30T21:09:17Z</time>
      </trkpt>
      <trkpt lat="44.20723" lon="5.94759">
        <ele>497</ele>
        <time>2024-01-30T21:09:24Z</time>
      </trkpt>
      <trkpt lat="44.20733" lon="5.94767">
        <ele>498</ele>
        <time>2024-01-30T21:09:29Z</time>
      </trkpt>
      <trkpt lat="44.20773" lon="5.94777">
        <ele>501</ele>
        <time>2024-01-30T21:09:48Z</time>
      </trkpt>
      <trkpt lat="44.20876" lon="5.94791">
        <ele>509</ele>
        <time>2024-01-30T21:10:42Z</time>
      </trkpt>
      <trkpt lat="44.20934" lon="5.9481">
        <ele>513</ele>
        <time>2024-01-30T21:11:12Z</time>
      </trkpt>
      <trkpt lat="44.20968" lon="5.94818">
        <ele>516</ele>
        <time>2024-01-30T21:11:28Z</time>
      </trkpt>
      <trkpt lat="44.21006" lon="5.94818">
        <ele>518</ele>
        <time>2024-01-30T21:11:45Z</time>
      </trkpt>
      <trkpt lat="44.21012" lon="5.94823">
        <ele>519</ele>
        <time>2024-01-30T21:11:48Z</time>
      </trkpt>
      <trkpt lat="44.21016" lon="5.9483">
        <ele>519</ele>
        <time>2024-01-30T21:11:50Z</time>
      </trkpt>
      <trkpt lat="44.21014" lon="5.94841">
        <ele>520</ele>
        <time>2024-01-30T21:11:53Z</time>
      </trkpt>
      <trkpt lat="44.21008" lon="5.94854">
        <ele>521</ele>
        <time>2024-01-30T21:11:57Z</time>
      </trkpt>
      <trkpt lat="44.20989" lon="5.94871">
        <ele>522</ele>
        <time>2024-01-30T21:12:06Z</time>
      </trkpt>
      <trkpt lat="44.20953" lon="5.94885">
        <ele>525</ele>
        <time>2024-01-30T21:12:18Z</time>
      </trkpt>
      <trkpt lat="44.20926" lon="5.94908">
        <ele>527</ele>
        <time>2024-01-30T21:12:29Z</time>
      </trkpt>
      <trkpt lat="44.20911" lon="5.9491">
        <ele>529</ele>
        <time>2024-01-30T21:12:35Z</time>
      </trkpt>
      <trkpt lat="44.20902" lon="5.94914">
        <ele>529</ele>
        <time>2024-01-30T21:12:38Z</time>
      </trkpt>
      <trkpt lat="44.20892" lon="5.94926">
        <ele>530</ele>
        <time>2024-01-30T21:12:43Z</time>
      </trkpt>
      <trkpt lat="44.20862" lon="5.9501">
        <ele>535</ele>
        <time>2024-01-30T21:13:09Z</time>
      </trkpt>
      <trkpt lat="44.20859" lon="5.95025">
        <ele>536</ele>
        <time>2024-01-30T21:13:14Z</time>
      </trkpt>
      <trkpt lat="44.20865" lon="5.95045">
        <ele>538</ele>
        <time>2024-01-30T21:13:20Z</time>
      </trkpt>
      <trkpt lat="44.20871" lon="5.9505">
        <ele>538</ele>
        <time>2024-01-30T21:13:23Z</time>
      </trkpt>
      <trkpt lat="44.20879" lon="5.95052">
        <ele>539</ele>
        <time>2024-01-30T21:13:27Z</time>
      </trkpt>
      <trkpt lat="44.20891" lon="5.95047">
        <ele>540</ele>
        <time>2024-01-30T21:13:33Z</time>
      </trkpt>
      <trkpt lat="44.209" lon="5.95035">
        <ele>541</ele>
        <time>2024-01-30T21:13:39Z</time>
      </trkpt>
      <trkpt lat="44.20914" lon="5.95002">
        <ele>543</ele>
        <time>2024-01-30T21:13:53Z</time>
      </trkpt>
      <trkpt lat="44.20921" lon="5.94999">
        <ele>543</ele>
        <time>2024-01-30T21:13:57Z</time>
      </trkpt>
      <trkpt lat="44.20948" lon="5.95008">
        <ele>545</ele>
        <time>2024-01-30T21:14:12Z</time>
      </trkpt>
      <trkpt lat="44.20959" lon="5.95007">
        <ele>546</ele>
        <time>2024-01-30T21:14:17Z</time>
      </trkpt>
      <trkpt lat="44.20989" lon="5.94995">
        <ele>548</ele>
        <time>2024-01-30T21:14:34Z</time>
      </trkpt>
      <trkpt lat="44.21001" lon="5.95002">
        <ele>549</ele>
        <time>2024-01-30T21:14:41Z</time>
      </trkpt>
      <trkpt lat="44.21014" lon="5.95021">
        <ele>550</ele>
        <time>2024-01-30T21:14:50Z</time>
      </trkpt>
      <trkpt lat="44.21029" lon="5.95035">
        <ele>552</ele>
        <time>2024-01-30T21:14:59Z</time>
      </trkpt>
      <trkpt lat="44.21052" lon="5.95048">
        <ele>554</ele>
        <time>2024-01-30T21:15:11Z</time>
      </trkpt>
      <trkpt lat="44.21055" lon="5.95051">
        <ele>554</ele>
        <time>2024-01-30T21:15:13Z</time>
      </trkpt>
      <trkpt lat="44.21056" lon="5.95059">
        <ele>554</ele>
        <time>2024-01-30T21:15:15Z</time>
      </trkpt>
      <trkpt lat="44.21053" lon="5.95071">
        <ele>556</ele>
        <time>2024-01-30T21:15:20Z</time>
      </trkpt>
      <trkpt lat="44.2102" lon="5.95075">
        <ele>557</ele>
        <time>2024-01-30T21:15:35Z</time>
      </trkpt>
      <trkpt lat="44.21009" lon="5.95082">
        <ele>559</ele>
        <time>2024-01-30T21:15:41Z</time>
      </trkpt>
      <trkpt lat="44.20991" lon="5.95112">
        <ele>561</ele>
        <time>2024-01-30T21:15:53Z</time>
      </trkpt>
      <trkpt lat="44.20974" lon="5.95148">
        <ele>563</ele>
        <time>2024-01-30T21:16:05Z</time>
      </trkpt>
      <trkpt lat="44.2097" lon="5.95164">
        <ele>564</ele>
        <time>2024-01-30T21:16:10Z</time>
      </trkpt>
      <trkpt lat="44.20969" lon="5.95186">
        <ele>565</ele>
        <time>2024-01-30T21:16:16Z</time>
      </trkpt>
      <trkpt lat="44.20975" lon="5.95236">
        <ele>567</ele>
        <time>2024-01-30T21:16:28Z</time>
      </trkpt>
      <trkpt lat="44.20972" lon="5.95261">
        <ele>569</ele>
        <time>2024-01-30T21:16:34Z</time>
      </trkpt>
      <trkpt lat="44.20964" lon="5.9529">
        <ele>570</ele>
        <time>2024-01-30T21:16:42Z</time>
      </trkpt>
      <trkpt lat="44.20942" lon="5.95409">
        <ele>576</ele>
        <time>2024-01-30T21:17:18Z</time>
      </trkpt>
      <trkpt lat="44.20928" lon="5.95451">
        <ele>578</ele>
        <time>2024-01-30T21:17:32Z</time>
      </trkpt>
      <trkpt lat="44.2092" lon="5.95489">
        <ele>579</ele>
        <time>2024-01-30T21:17:44Z</time>
      </trkpt>
      <trkpt lat="44.2092" lon="5.95504">
        <ele>580</ele>
        <time>2024-01-30T21:17:48Z</time>
      </trkpt>
      <trkpt lat="44.20924" lon="5.95527">
        <ele>582</ele>
        <time>2024-01-30T21:17:55Z</time>
      </trkpt>
      <trkpt lat="44.20946" lon="5.9558">
        <ele>586</ele>
        <time>2024-01-30T21:18:12Z</time>
      </trkpt>
      <trkpt lat="44.20954" lon="5.95614">
        <ele>588</ele>
        <time>2024-01-30T21:18:22Z</time>
      </trkpt>
      <trkpt lat="44.20951" lon="5.95678">
        <ele>591</ele>
        <time>2024-01-30T21:18:42Z</time>
      </trkpt>
      <trkpt lat="44.20928" lon="5.95767">
        <ele>595</ele>
        <time>2024-01-30T21:19:15Z</time>
      </trkpt>
      <trkpt lat="44.20923" lon="5.95797">
        <ele>597</ele>
        <time>2024-01-30T21:19:27Z</time>
      </trkpt>
      <trkpt lat="44.20922" lon="5.95817">
        <ele>598</ele>
        <time>2024-01-30T21:19:34Z</time>
      </trkpt>
      <trkpt lat="44.20926" lon="5.95854">
        <ele>601</ele>
        <time>2024-01-30T21:19:47Z</time>
      </trkpt>
      <trkpt lat="44.2093" lon="5.95865">
        <ele>603</ele>
        <time>2024-01-30T21:19:51Z</time>
      </trkpt>
      <trkpt lat="44.20938" lon="5.95877">
        <ele>605</ele>
        <time>2024-01-30T21:19:57Z</time>
      </trkpt>
      <trkpt lat="44.20948" lon="5.95878">
        <ele>607</ele>
        <time>2024-01-30T21:20:02Z</time>
      </trkpt>
      <trkpt lat="44.20966" lon="5.95875">
        <ele>608</ele>
        <time>2024-01-30T21:20:11Z</time>
      </trkpt>
      <trkpt lat="44.20999" lon="5.95861">
        <ele>610</ele>
        <time>2024-01-30T21:20:29Z</time>
      </trkpt>
      <trkpt lat="44.21019" lon="5.95847">
        <ele>610</ele>
        <time>2024-01-30T21:20:40Z</time>
      </trkpt>
      <trkpt lat="44.21025" lon="5.95839">
        <ele>610</ele>
        <time>2024-01-30T21:20:45Z</time>
      </trkpt>
      <trkpt lat="44.21029" lon="5.95827">
        <ele>610</ele>
        <time>2024-01-30T21:20:50Z</time>
      </trkpt>
      <trkpt lat="44.21039" lon="5.95766">
        <ele>612</ele>
        <time>2024-01-30T21:21:12Z</time>
      </trkpt>
      <trkpt lat="44.21043" lon="5.95754">
        <ele>612</ele>
        <time>2024-01-30T21:21:17Z</time>
      </trkpt>
      <trkpt lat="44.2105" lon="5.95748">
        <ele>613</ele>
        <time>2024-01-30T21:21:21Z</time>
      </trkpt>
      <trkpt lat="44.21085" lon="5.95739">
        <ele>617</ele>
        <time>2024-01-30T21:21:37Z</time>
      </trkpt>
      <trkpt lat="44.21111" lon="5.95711">
        <ele>620</ele>
        <time>2024-01-30T21:21:52Z</time>
      </trkpt>
      <trkpt lat="44.21125" lon="5.95688">
        <ele>620</ele>
        <time>2024-01-30T21:22:01Z</time>
      </trkpt>
      <trkpt lat="44.21134" lon="5.95663">
        <ele>621</ele>
        <time>2024-01-30T21:22:10Z</time>
      </trkpt>
      <trkpt lat="44.21143" lon="5.95617">
        <ele>623</ele>
        <time>2024-01-30T21:22:26Z</time>
      </trkpt>
      <trkpt lat="44.21148" lon="5.95606">
        <ele>625</ele>
        <time>2024-01-30T21:22:31Z</time>
      </trkpt>
      <trkpt lat="44.21178" lon="5.95588">
        <ele>628</ele>
        <time>2024-01-30T21:22:47Z</time>
      </trkpt>
      <trkpt lat="44.21198" lon="5.95554">
        <ele>628</ele>
        <time>2024-01-30T21:23:02Z</time>
      </trkpt>
      <trkpt lat="44.21209" lon="5.95548">
        <ele>629</ele>
        <time>2024-01-30T21:23:08Z</time>
      </trkpt>
      <trkpt lat="44.21243" lon="5.95539">
        <ele>632</ele>
        <time>2024-01-30T21:23:25Z</time>
      </trkpt>
      <trkpt lat="44.21262" lon="5.95537">
        <ele>633</ele>
        <time>2024-01-30T21:23:33Z</time>
      </trkpt>
      <trkpt lat="44.21274" lon="5.9554">
        <ele>632</ele>
        <time>2024-01-30T21:23:39Z</time>
      </trkpt>
      <trkpt lat="44.21282" lon="5.95551">
        <ele>634</ele>
        <time>2024-01-30T21:23:45Z</time>
      </trkpt>
      <trkpt lat="44.21283" lon="5.95561">
        <ele>635</ele>
        <time>2024-01-30T21:23:49Z</time>
      </trkpt>
      <trkpt lat="44.21281" lon="5.95573">
        <ele>636</ele>
        <time>2024-01-30T21:23:53Z</time>
      </trkpt>
      <trkpt lat="44.21262" lon="5.95632">
        <ele>640</ele>
        <time>2024-01-30T21:24:15Z</time>
      </trkpt>
      <trkpt lat="44.21252" lon="5.95702">
        <ele>644</ele>
        <time>2024-01-30T21:24:39Z</time>
      </trkpt>
      <trkpt lat="44.21208" lon="5.95831">
        <ele>649</ele>
        <time>2024-01-30T21:25:19Z</time>
      </trkpt>
      <trkpt lat="44.21192" lon="5.95924">
        <ele>655</ele>
        <time>2024-01-30T21:25:48Z</time>
      </trkpt>
      <trkpt lat="44.21177" lon="5.96038">
        <ele>659</ele>
        <time>2024-01-30T21:26:26Z</time>
      </trkpt>
      <trkpt lat="44.21178" lon="5.961">
        <ele>666</ele>
        <time>2024-01-30T21:26:48Z</time>
      </trkpt>
      <trkpt lat="44.21177" lon="5.96118">
        <ele>667</ele>
        <time>2024-01-30T21:26:54Z</time>
      </trkpt>
      <trkpt lat="44.21166" lon="5.96165">
        <ele>672</ele>
        <time>2024-01-30T21:27:13Z</time>
      </trkpt>
      <trkpt lat="44.21164" lon="5.96228">
        <ele>674</ele>
        <time>2024-01-30T21:27:36Z</time>
      </trkpt>
      <trkpt lat="44.21162" lon="5.96255">
        <ele>675</ele>
        <time>2024-01-30T21:27:47Z</time>
      </trkpt>
      <trkpt lat="44.21155" lon="5.96288">
        <ele>675</ele>
        <time>2024-01-30T21:27:59Z</time>
      </trkpt>
      <trkpt lat="44.21146" lon="5.9638">
        <ele>679</ele>
        <time>2024-01-30T21:28:33Z</time>
      </trkpt>
      <trkpt lat="44.2111" lon="5.96467">
        <ele>684</ele>
        <time>2024-01-30T21:29:08Z</time>
      </trkpt>
      <trkpt lat="44.21103" lon="5.96493">
        <ele>685</ele>
        <time>2024-01-30T21:29:17Z</time>
      </trkpt>
      <trkpt lat="44.211" lon="5.96512">
        <ele>686</ele>
        <time>2024-01-30T21:29:23Z</time>
      </trkpt>
      <trkpt lat="44.211" lon="5.96525">
        <ele>687</ele>
        <time>2024-01-30T21:29:27Z</time>
      </trkpt>
      <trkpt lat="44.21114" lon="5.96579">
        <ele>692</ele>
        <time>2024-01-30T21:29:43Z</time>
      </trkpt>
      <trkpt lat="44.21111" lon="5.96606">
        <ele>694</ele>
        <time>2024-01-30T21:29:51Z</time>
      </trkpt>
      <trkpt lat="44.21106" lon="5.96617">
        <ele>694</ele>
        <time>2024-01-30T21:29:55Z</time>
      </trkpt>
      <trkpt lat="44.21075" lon="5.96643">
        <ele>694</ele>
        <time>2024-01-30T21:30:09Z</time>
      </trkpt>
      <trkpt lat="44.21069" lon="5.96651">
        <ele>694</ele>
        <time>2024-01-30T21:30:12Z</time>
      </trkpt>
      <trkpt lat="44.21062" lon="5.96674">
        <ele>696</ele>
        <time>2024-01-30T21:30:20Z</time>
      </trkpt>
      <trkpt lat="44.21059" lon="5.96759">
        <ele>701</ele>
        <time>2024-01-30T21:30:46Z</time>
      </trkpt>
      <trkpt lat="44.21054" lon="5.96796">
        <ele>704</ele>
        <time>2024-01-30T21:30:59Z</time>
      </trkpt>
      <trkpt lat="44.21048" lon="5.9681">
        <ele>703</ele>
        <time>2024-01-30T21:31:05Z</time>
      </trkpt>
      <trkpt lat="44.21018" lon="5.96857">
        <ele>699</ele>
        <time>2024-01-30T21:31:28Z</time>
      </trkpt>
      <trkpt lat="44.21016" lon="5.96868">
        <ele>700</ele>
        <time>2024-01-30T21:31:32Z</time>
      </trkpt>
      <trkpt lat="44.21017" lon="5.96878">
        <ele>700</ele>
        <time>2024-01-30T21:31:36Z</time>
      </trkpt>
      <trkpt lat="44.21049" lon="5.96953">
        <ele>711</ele>
        <time>2024-01-30T21:32:09Z</time>
      </trkpt>
      <trkpt lat="44.21052" lon="5.96977">
        <ele>710</ele>
        <time>2024-01-30T21:32:18Z</time>
      </trkpt>
      <trkpt lat="44.21048" lon="5.96987">
        <ele>708</ele>
        <time>2024-01-30T21:32:23Z</time>
      </trkpt>
      <trkpt lat="44.21036" lon="5.96998">
        <ele>707</ele>
        <time>2024-01-30T21:32:31Z</time>
      </trkpt>
      <trkpt lat="44.21015" lon="5.97004">
        <ele>711</ele>
        <time>2024-01-30T21:32:43Z</time>
      </trkpt>
      <trkpt lat="44.20991" lon="5.97015">
        <ele>713</ele>
        <time>2024-01-30T21:32:56Z</time>
      </trkpt>
      <trkpt lat="44.20969" lon="5.97035">
        <ele>716</ele>
        <time>2024-01-30T21:33:10Z</time>
      </trkpt>
      <trkpt lat="44.20943" lon="5.97074">
        <ele>720</ele>
        <time>2024-01-30T21:33:30Z</time>
      </trkpt>
      <trkpt lat="44.20934" lon="5.97082">
        <ele>721</ele>
        <time>2024-01-30T21:33:36Z</time>
      </trkpt>
      <trkpt lat="44.20908" lon="5.97086">
        <ele>721</ele>
        <time>2024-01-30T21:33:48Z</time>
      </trkpt>
      <trkpt lat="44.209" lon="5.97092">
        <ele>720</ele>
        <time>2024-01-30T21:33:53Z</time>
      </trkpt>
      <trkpt lat="44.20874" lon="5.97152">
        <ele>726</ele>
        <time>2024-01-30T21:34:20Z</time>
      </trkpt>
      <trkpt lat="44.20867" lon="5.97159">
        <ele>728</ele>
        <time>2024-01-30T21:34:25Z</time>
      </trkpt>
      <trkpt lat="44.20857" lon="5.97161">
        <ele>728</ele>
        <time>2024-01-30T21:34:31Z</time>
      </trkpt>
      <trkpt lat="44.20839" lon="5.97157">
        <ele>726</ele>
        <time>2024-01-30T21:34:42Z</time>
      </trkpt>
      <trkpt lat="44.20828" lon="5.97159">
        <ele>727</ele>
        <time>2024-01-30T21:34:49Z</time>
      </trkpt>
      <trkpt lat="44.20783" lon="5.97195">
        <ele>730</ele>
        <time>2024-01-30T21:35:21Z</time>
      </trkpt>
      <trkpt lat="44.20758" lon="5.97246">
        <ele>734</ele>
        <time>2024-01-30T21:35:50Z</time>
      </trkpt>
      <trkpt lat="44.20749" lon="5.97254">
        <ele>733</ele>
        <time>2024-01-30T21:35:56Z</time>
      </trkpt>
      <trkpt lat="44.20726" lon="5.97259">
        <ele>734</ele>
        <time>2024-01-30T21:36:11Z</time>
      </trkpt>
      <trkpt lat="44.20707" lon="5.97258">
        <ele>736</ele>
        <time>2024-01-30T21:36:23Z</time>
      </trkpt>
      <trkpt lat="44.20676" lon="5.97235">
        <ele>740</ele>
        <time>2024-01-30T21:36:44Z</time>
      </trkpt>
      <trkpt lat="44.20585" lon="5.97213">
        <ele>746</ele>
        <time>2024-01-30T21:37:34Z</time>
      </trkpt>
      <trkpt lat="44.20575" lon="5.97208">
        <ele>746</ele>
        <time>2024-01-30T21:37:40Z</time>
      </trkpt>
      <trkpt lat="44.20571" lon="5.97204">
        <ele>746</ele>
        <time>2024-01-30T21:37:43Z</time>
      </trkpt>
      <trkpt lat="44.20568" lon="5.97192">
        <ele>746</ele>
        <time>2024-01-30T21:37:47Z</time>
      </trkpt>
      <trkpt lat="44.20571" lon="5.9715">
        <ele>749</ele>
        <time>2024-01-30T21:38:02Z</time>
      </trkpt>
      <trkpt lat="44.20539" lon="5.97082">
        <ele>756</ele>
        <time>2024-01-30T21:38:32Z</time>
      </trkpt>
      <trkpt lat="44.2053" lon="5.97042">
        <ele>756</ele>
        <time>2024-01-30T21:38:50Z</time>
      </trkpt>
      <trkpt lat="44.20526" lon="5.97033">
        <ele>756</ele>
        <time>2024-01-30T21:38:54Z</time>
      </trkpt>
      <trkpt lat="44.2052" lon="5.97031">
        <ele>758</ele>
        <time>2024-01-30T21:38:58Z</time>
      </trkpt>
      <trkpt lat="44.20515" lon="5.97035">
        <ele>759</ele>
        <time>2024-01-30T21:39:02Z</time>
      </trkpt>
      <trkpt lat="44.20512" lon="5.97043">
        <ele>760</ele>
        <time>2024-01-30T21:39:07Z</time>
      </trkpt>
      <trkpt lat="44.20517" lon="5.97076">
        <ele>761</ele>
        <time>2024-01-30T21:39:22Z</time>
      </trkpt>
      <trkpt lat="44.20516" lon="5.97126">
        <ele>765</ele>
        <time>2024-01-30T21:39:44Z</time>
      </trkpt>
      <trkpt lat="44.2052" lon="5.97171">
        <ele>763</ele>
        <time>2024-01-30T21:40:04Z</time>
      </trkpt>
      <trkpt lat="44.20512" lon="5.97205">
        <ele>764</ele>
        <time>2024-01-30T21:40:18Z</time>
      </trkpt>
      <trkpt lat="44.20495" lon="5.9725">
        <ele>769</ele>
        <time>2024-01-30T21:40:38Z</time>
      </trkpt>
      <trkpt lat="44.20492" lon="5.97277">
        <ele>773</ele>
        <time>2024-01-30T21:40:47Z</time>
      </trkpt>
      <trkpt lat="44.20495" lon="5.97307">
        <ele>776</ele>
        <time>2024-01-30T21:40:58Z</time>
      </trkpt>
      <trkpt lat="44.205" lon="5.97319">
        <ele>779</ele>
        <time>2024-01-30T21:41:02Z</time>
      </trkpt>
      <trkpt lat="44.20507" lon="5.97327">
        <ele>781</ele>
        <time>2024-01-30T21:41:07Z</time>
      </trkpt>
      <trkpt lat="44.20515" lon="5.97331">
        <ele>783</ele>
        <time>2024-01-30T21:41:10Z</time>
      </trkpt>
      <trkpt lat="44.20543" lon="5.97325">
        <ele>782</ele>
        <time>2024-01-30T21:41:23Z</time>
      </trkpt>
      <trkpt lat="44.2055" lon="5.97328">
        <ele>783</ele>
        <time>2024-01-30T21:41:26Z</time>
      </trkpt>
      <trkpt lat="44.20577" lon="5.97354">
        <ele>784</ele>
        <time>2024-01-30T21:41:37Z</time>
      </trkpt>
      <trkpt lat="44.2059" lon="5.97374">
        <ele>785</ele>
        <time>2024-01-30T21:41:43Z</time>
      </trkpt>
      <trkpt lat="44.20599" lon="5.97423">
        <ele>791</ele>
        <time>2024-01-30T21:41:52Z</time>
      </trkpt>
      <trkpt lat="44.20608" lon="5.97431">
        <ele>792</ele>
        <time>2024-01-30T21:41:54Z</time>
      </trkpt>
      <trkpt lat="44.20615" lon="5.97434">
        <ele>792</ele>
        <time>2024-01-30T21:41:57Z</time>
      </trkpt>
      <trkpt lat="44.20674" lon="5.97441">
        <ele>793</ele>
        <time>2024-01-30T21:42:13Z</time>
      </trkpt>
      <trkpt lat="44.20686" lon="5.9744">
        <ele>793</ele>
        <time>2024-01-30T21:42:17Z</time>
      </trkpt>
      <trkpt lat="44.20709" lon="5.97433">
        <ele>791</ele>
        <time>2024-01-30T21:42:25Z</time>
      </trkpt>
      <trkpt lat="44.20715" lon="5.97437">
        <ele>791</ele>
        <time>2024-01-30T21:42:27Z</time>
      </trkpt>
      <trkpt lat="44.20716" lon="5.97447">
        <ele>796</ele>
        <time>2024-01-30T21:42:30Z</time>
      </trkpt>
      <trkpt lat="44.20714" lon="5.97455">
        <ele>799</ele>
        <time>2024-01-30T21:42:32Z</time>
      </trkpt>
      <trkpt lat="44.2071" lon="5.97462">
        <ele>800</ele>
        <time>2024-01-30T21:42:34Z</time>
      </trkpt>
      <trkpt lat="44.20701" lon="5.97465">
        <ele>802</ele>
        <time>2024-01-30T21:42:37Z</time>
      </trkpt>
      <trkpt lat="44.20676" lon="5.97462">
        <ele>800</ele>
        <time>2024-01-30T21:42:44Z</time>
      </trkpt>
      <trkpt lat="44.20564" lon="5.97516">
        <ele>814</ele>
        <time>2024-01-30T21:43:03Z</time>
      </trkpt>
      <trkpt lat="44.20562" lon="5.9752">
        <ele>815</ele>
      </trkpt>
      <trkpt lat="44.20558" lon="5.97525">
        <ele>816</ele>
        <time>2024-01-30T21:43:04Z</time>
      </trkpt>
      <trkpt lat="44.20557" lon="5.97538">
        <ele>817</ele>
        <time>2024-01-30T21:43:05Z</time>
      </trkpt>
      <trkpt lat="44.20561" lon="5.97551">
        <ele>816</ele>
        <time>2024-01-30T21:43:06Z</time>
      </trkpt>
      <trkpt lat="44.20565" lon="5.97559">
        <ele>816</ele>
        <time>2024-01-30T21:43:07Z</time>
      </trkpt>
      <trkpt lat="44.20587" lon="5.97572">
        <ele>816</ele>
        <time>2024-01-30T21:43:10Z</time>
      </trkpt>
      <trkpt lat="44.20588" lon="5.97584">
        <ele>816</ele>
        <time>2024-01-30T21:43:11Z</time>
      </trkpt>
      <trkpt lat="44.20605" lon="5.97602">
        <ele>816</ele>
        <time>2024-01-30T21:43:14Z</time>
      </trkpt>
      <trkpt lat="44.20621" lon="5.97625">
        <ele>815</ele>
        <time>2024-01-30T21:43:17Z</time>
      </trkpt>
      <trkpt lat="44.20639" lon="5.97668">
        <ele>815</ele>
        <time>2024-01-30T21:43:21Z</time>
      </trkpt>
      <trkpt lat="44.20643" lon="5.97684">
        <ele>813</ele>
        <time>2024-01-30T21:43:23Z</time>
      </trkpt>
      <trkpt lat="44.2065" lon="5.97747">
        <ele>811</ele>
        <time>2024-01-30T21:43:28Z</time>
      </trkpt>
      <trkpt lat="44.2066" lon="5.97794">
        <ele>806</ele>
        <time>2024-01-30T21:43:32Z</time>
      </trkpt>
      <trkpt lat="44.20684" lon="5.97841">
        <ele>807</ele>
        <time>2024-01-30T21:43:37Z</time>
      </trkpt>
      <trkpt lat="44.20692" lon="5.97884">
        <ele>800</ele>
        <time>2024-01-30T21:43:41Z</time>
      </trkpt>
      <trkpt lat="44.20714" lon="5.97935">
        <ele>799</ele>
        <time>2024-01-30T21:43:47Z</time>
      </trkpt>
      <trkpt lat="44.20726" lon="5.97977">
        <ele>797</ele>
        <time>2024-01-30T21:43:51Z</time>
      </trkpt>
      <trkpt lat="44.20744" lon="5.98064">
        <ele>794</ele>
        <time>2024-01-30T21:43:59Z</time>
      </trkpt>
      <trkpt lat="44.20752" lon="5.98132">
        <ele>790</ele>
        <time>2024-01-30T21:44:05Z</time>
      </trkpt>
      <trkpt lat="44.20754" lon="5.98152">
        <ele>790</ele>
        <time>2024-01-30T21:44:07Z</time>
      </trkpt>
      <trkpt lat="44.20762" lon="5.98175">
        <ele>790</ele>
        <time>2024-01-30T21:44:09Z</time>
      </trkpt>
      <trkpt lat="44.20796" lon="5.98218">
        <ele>790</ele>
        <time>2024-01-30T21:44:14Z</time>
      </trkpt>
      <trkpt lat="44.20811" lon="5.98245">
        <ele>785</ele>
        <time>2024-01-30T21:44:17Z</time>
      </trkpt>
      <trkpt lat="44.20874" lon="5.98303">
        <ele>779</ele>
        <time>2024-01-30T21:44:26Z</time>
      </trkpt>
      <trkpt lat="44.20889" lon="5.98328">
        <ele>776</ele>
        <time>2024-01-30T21:44:29Z</time>
      </trkpt>
      <trkpt lat="44.20906" lon="5.98366">
        <ele>773</ele>
        <time>2024-01-30T21:44:32Z</time>
      </trkpt>
      <trkpt lat="44.20919" lon="5.98426">
        <ele>767</ele>
        <time>2024-01-30T21:44:37Z</time>
      </trkpt>
      <trkpt lat="44.20926" lon="5.98443">
        <ele>766</ele>
        <time>2024-01-30T21:44:39Z</time>
      </trkpt>
      <trkpt lat="44.20981" lon="5.98514">
        <ele>759</ele>
        <time>2024-01-30T21:44:48Z</time>
      </trkpt>
      <trkpt lat="44.21011" lon="5.98567">
        <ele>754</ele>
        <time>2024-01-30T21:44:53Z</time>
      </trkpt>
      <trkpt lat="44.21016" lon="5.9859">
        <ele>753</ele>
        <time>2024-01-30T21:44:55Z</time>
      </trkpt>
      <trkpt lat="44.21026" lon="5.98702">
        <ele>745</ele>
        <time>2024-01-30T21:45:05Z</time>
      </trkpt>
      <trkpt lat="44.2102" lon="5.98729">
        <ele>742</ele>
        <time>2024-01-30T21:45:07Z</time>
      </trkpt>
      <trkpt lat="44.21026" lon="5.98787">
        <ele>741</ele>
        <time>2024-01-30T21:45:12Z</time>
      </trkpt>
      <trkpt lat="44.21027" lon="5.98834">
        <ele>737</ele>
        <time>2024-01-30T21:45:16Z</time>
      </trkpt>
      <trkpt lat="44.2104" lon="5.98854">
        <ele>737</ele>
        <time>2024-01-30T21:45:18Z</time>
      </trkpt>
      <trkpt lat="44.21101" lon="5.98926">
        <ele>739</ele>
        <time>2024-01-30T21:45:28Z</time>
      </trkpt>
      <trkpt lat="44.21109" lon="5.98944">
        <ele>737</ele>
        <time>2024-01-30T21:45:30Z</time>
      </trkpt>
      <trkpt lat="44.21115" lon="5.98976">
        <ele>733</ele>
        <time>2024-01-30T21:45:33Z</time>
      </trkpt>
      <trkpt lat="44.21134" lon="5.99016">
        <ele>731</ele>
        <time>2024-01-30T21:45:38Z</time>
      </trkpt>
      <trkpt lat="44.21162" lon="5.99095">
        <ele>726</ele>
        <time>2024-01-30T21:45:46Z</time>
      </trkpt>
      <trkpt lat="44.21193" lon="5.99152">
        <ele>725</ele>
        <time>2024-01-30T21:45:53Z</time>
      </trkpt>
      <trkpt lat="44.21214" lon="5.99196">
        <ele>722</ele>
        <time>2024-01-30T21:45:58Z</time>
      </trkpt>
      <trkpt lat="44.21229" lon="5.99215">
        <ele>720</ele>
        <time>2024-01-30T21:46:01Z</time>
      </trkpt>
      <trkpt lat="44.21262" lon="5.99232">
        <ele>720</ele>
        <time>2024-01-30T21:46:05Z</time>
      </trkpt>
      <trkpt lat="44.21283" lon="5.99237">
        <ele>720</ele>
        <time>2024-01-30T21:46:08Z</time>
      </trkpt>
      <trkpt lat="44.21323" lon="5.99267">
        <ele>716</ele>
        <time>2024-01-30T21:46:15Z</time>
      </trkpt>
      <trkpt lat="44.21345" lon="5.99295">
        <ele>714</ele>
        <time>2024-01-30T21:46:19Z</time>
      </trkpt>
      <trkpt lat="44.21352" lon="5.99308">
        <ele>713</ele>
        <time>2024-01-30T21:46:21Z</time>
      </trkpt>
      <trkpt lat="44.21352" lon="5.9932">
        <ele>711</ele>
        <time>2024-01-30T21:46:22Z</time>
      </trkpt>
      <trkpt lat="44.2136" lon="5.99337">
        <ele>710</ele>
        <time>2024-01-30T21:46:25Z</time>
      </trkpt>
      <trkpt lat="44.21382" lon="5.99355">
        <ele>710</ele>
        <time>2024-01-30T21:46:29Z</time>
      </trkpt>
      <trkpt lat="44.21411" lon="5.99388">
        <ele>709</ele>
        <time>2024-01-30T21:46:36Z</time>
      </trkpt>
      <trkpt lat="44.21478" lon="5.9942">
        <ele>710</ele>
        <time>2024-01-30T21:46:53Z</time>
      </trkpt>
      <trkpt lat="44.21518" lon="5.99442">
        <ele>711</ele>
        <time>2024-01-30T21:47:07Z</time>
      </trkpt>
      <trkpt lat="44.21532" lon="5.99454">
        <ele>711</ele>
        <time>2024-01-30T21:47:13Z</time>
      </trkpt>
      <trkpt lat="44.21568" lon="5.99472">
        <ele>713</ele>
        <time>2024-01-30T21:47:28Z</time>
      </trkpt>
      <trkpt lat="44.21607" lon="5.99478">
        <ele>716</ele>
        <time>2024-01-30T21:47:45Z</time>
      </trkpt>
      <trkpt lat="44.21656" lon="5.99462">
        <ele>724</ele>
        <time>2024-01-30T21:48:08Z</time>
      </trkpt>
      <trkpt lat="44.21673" lon="5.99465">
        <ele>726</ele>
        <time>2024-01-30T21:48:16Z</time>
      </trkpt>
      <trkpt lat="44.21681" lon="5.99473">
        <ele>727</ele>
        <time>2024-01-30T21:48:21Z</time>
      </trkpt>
      <trkpt lat="44.21695" lon="5.99495">
        <ele>728</ele>
        <time>2024-01-30T21:48:31Z</time>
      </trkpt>
      <trkpt lat="44.21734" lon="5.99537">
        <ele>731</ele>
        <time>2024-01-30T21:48:56Z</time>
      </trkpt>
      <trkpt lat="44.21746" lon="5.99553">
        <ele>731</ele>
        <time>2024-01-30T21:49:04Z</time>
      </trkpt>
      <trkpt lat="44.21762" lon="5.99583">
        <ele>731</ele>
        <time>2024-01-30T21:49:18Z</time>
      </trkpt>
      <trkpt lat="44.21778" lon="5.99616">
        <ele>731</ele>
        <time>2024-01-30T21:49:33Z</time>
      </trkpt>
      <trkpt lat="44.21777" lon="5.99646">
        <ele>731</ele>
        <time>2024-01-30T21:49:45Z</time>
      </trkpt>
      <trkpt lat="44.21776" lon="5.99661">
        <ele>730</ele>
        <time>2024-01-30T21:49:51Z</time>
      </trkpt>
      <trkpt lat="44.21779" lon="5.99677">
        <ele>731</ele>
        <time>2024-01-30T21:49:57Z</time>
      </trkpt>
      <trkpt lat="44.21784" lon="5.99686">
        <ele>731</ele>
        <time>2024-01-30T21:50:01Z</time>
      </trkpt>
      <trkpt lat="44.21791" lon="5.99696">
        <ele>732</ele>
        <time>2024-01-30T21:50:07Z</time>
      </trkpt>
      <trkpt lat="44.21802" lon="5.99703">
        <ele>733</ele>
        <time>2024-01-30T21:50:14Z</time>
      </trkpt>
      <trkpt lat="44.21808" lon="5.9971">
        <ele>733</ele>
        <time>2024-01-30T21:50:18Z</time>
      </trkpt>
      <trkpt lat="44.21813" lon="5.99721">
        <ele>734</ele>
        <time>2024-01-30T21:50:23Z</time>
      </trkpt>
      <trkpt lat="44.21818" lon="5.99726">
        <ele>734</ele>
        <time>2024-01-30T21:50:26Z</time>
      </trkpt>
      <trkpt lat="44.21836" lon="5.99718">
        <ele>735</ele>
        <time>2024-01-30T21:50:35Z</time>
      </trkpt>
      <trkpt lat="44.21862" lon="5.99744">
        <ele>740</ele>
        <time>2024-01-30T21:50:52Z</time>
      </trkpt>
      <trkpt lat="44.21882" lon="5.99752">
        <ele>744</ele>
        <time>2024-01-30T21:51:03Z</time>
      </trkpt>
      <trkpt lat="44.21917" lon="5.99747">
        <ele>745</ele>
        <time>2024-01-30T21:51:23Z</time>
      </trkpt>
      <trkpt lat="44.21925" lon="5.99749">
        <ele>746</ele>
        <time>2024-01-30T21:51:27Z</time>
      </trkpt>
      <trkpt lat="44.21927" lon="5.99755">
        <ele>747</ele>
        <time>2024-01-30T21:51:30Z</time>
      </trkpt>
      <trkpt lat="44.21924" lon="5.99761">
        <ele>749</ele>
        <time>2024-01-30T21:51:33Z</time>
      </trkpt>
      <trkpt lat="44.21877" lon="5.99782">
        <ele>752</ele>
        <time>2024-01-30T21:52:04Z</time>
      </trkpt>
      <trkpt lat="44.21873" lon="5.99787">
        <ele>753</ele>
        <time>2024-01-30T21:52:07Z</time>
      </trkpt>
      <trkpt lat="44.21874" lon="5.99789">
        <ele>754</ele>
        <time>2024-01-30T21:52:08Z</time>
      </trkpt>
      <trkpt lat="44.21875" lon="5.99794">
        <ele>755</ele>
        <time>2024-01-30T21:52:10Z</time>
      </trkpt>
      <trkpt lat="44.21878" lon="5.99796">
        <ele>755</ele>
        <time>2024-01-30T21:52:12Z</time>
      </trkpt>
      <trkpt lat="44.21911" lon="5.99798">
        <ele>759</ele>
        <time>2024-01-30T21:52:32Z</time>
      </trkpt>
      <trkpt lat="44.21935" lon="5.99808">
        <ele>760</ele>
        <time>2024-01-30T21:52:47Z</time>
      </trkpt>
      <trkpt lat="44.21958" lon="5.99827">
        <ele>762</ele>
        <time>2024-01-30T21:53:03Z</time>
      </trkpt>
      <trkpt lat="44.21966" lon="5.99851">
        <ele>766</ele>
        <time>2024-01-30T21:53:14Z</time>
      </trkpt>
      <trkpt lat="44.21963" lon="5.99868">
        <ele>768</ele>
        <time>2024-01-30T21:53:22Z</time>
      </trkpt>
      <trkpt lat="44.21959" lon="5.99877">
        <ele>770</ele>
        <time>2024-01-30T21:53:27Z</time>
      </trkpt>
      <trkpt lat="44.21957" lon="5.99881">
        <ele>771</ele>
        <time>2024-01-30T21:53:29Z</time>
      </trkpt>
      <trkpt lat="44.21945" lon="5.99887">
        <ele>771</ele>
        <time>2024-01-30T21:53:37Z</time>
      </trkpt>
      <trkpt lat="44.21923" lon="5.99894">
        <ele>773</ele>
        <time>2024-01-30T21:53:51Z</time>
      </trkpt>
      <trkpt lat="44.21914" lon="5.999">
        <ele>773</ele>
        <time>2024-01-30T21:53:56Z</time>
      </trkpt>
      <trkpt lat="44.21909" lon="5.99907">
        <ele>774</ele>
        <time>2024-01-30T21:54:00Z</time>
      </trkpt>
      <trkpt lat="44.21908" lon="5.99915">
        <ele>776</ele>
        <time>2024-01-30T21:54:04Z</time>
      </trkpt>
      <trkpt lat="44.21913" lon="5.99922">
        <ele>777</ele>
        <time>2024-01-30T21:54:08Z</time>
      </trkpt>
      <trkpt lat="44.21941" lon="5.99941">
        <ele>781</ele>
        <time>2024-01-30T21:54:25Z</time>
      </trkpt>
      <trkpt lat="44.21978" lon="5.99948">
        <ele>783</ele>
        <time>2024-01-30T21:54:44Z</time>
      </trkpt>
      <trkpt lat="44.21981" lon="5.99951">
        <ele>783</ele>
        <time>2024-01-30T21:54:45Z</time>
      </trkpt>
      <trkpt lat="44.2198" lon="5.99962">
        <ele>785</ele>
        <time>2024-01-30T21:54:49Z</time>
      </trkpt>
      <trkpt lat="44.21966" lon="5.99984">
        <ele>787</ele>
        <time>2024-01-30T21:54:57Z</time>
      </trkpt>
      <trkpt lat="44.21959" lon="6.00003">
        <ele>789</ele>
        <time>2024-01-30T21:55:02Z</time>
      </trkpt>
      <trkpt lat="44.21957" lon="6.00021">
        <ele>791</ele>
        <time>2024-01-30T21:55:07Z</time>
      </trkpt>
      <trkpt lat="44.21958" lon="6.00047">
        <ele>793</ele>
        <time>2024-01-30T21:55:14Z</time>
      </trkpt>
      <trkpt lat="44.21949" lon="6.00066">
        <ele>793</ele>
        <time>2024-01-30T21:55:20Z</time>
      </trkpt>
      <trkpt lat="44.21895" lon="6.00107">
        <ele>794</ele>
        <time>2024-01-30T21:55:44Z</time>
      </trkpt>
      <trkpt lat="44.21832" lon="6.00133">
        <ele>799</ele>
        <time>2024-01-30T21:56:11Z</time>
      </trkpt>
      <trkpt lat="44.21828" lon="6.00144">
        <ele>800</ele>
        <time>2024-01-30T21:56:16Z</time>
      </trkpt>
      <trkpt lat="44.21839" lon="6.00153">
        <ele>800</ele>
        <time>2024-01-30T21:56:21Z</time>
      </trkpt>
      <trkpt lat="44.21841" lon="6.00168">
        <ele>802</ele>
        <time>2024-01-30T21:56:26Z</time>
      </trkpt>
      <trkpt lat="44.21842" lon="6.0017">
        <ele>802</ele>
      </trkpt>
      <trkpt lat="44.21848" lon="6.0018">
        <ele>803</ele>
        <time>2024-01-30T21:56:30Z</time>
      </trkpt>
      <trkpt lat="44.21862" lon="6.00202">
        <ele>804</ele>
        <time>2024-01-30T21:56:39Z</time>
      </trkpt>
      <trkpt lat="44.21898" lon="6.00236">
        <ele>806</ele>
        <time>2024-01-30T21:56:57Z</time>
      </trkpt>
      <trkpt lat="44.21929" lon="6.00256">
        <ele>807</ele>
        <time>2024-01-30T21:57:11Z</time>
      </trkpt>
      <trkpt lat="44.21957" lon="6.0026">
        <ele>809</ele>
        <time>2024-01-30T21:57:22Z</time>
      </trkpt>
      <trkpt lat="44.21974" lon="6.00253">
        <ele>810</ele>
        <time>2024-01-30T21:57:29Z</time>
      </trkpt>
      <trkpt lat="44.2204" lon="6.00187">
        <ele>810</ele>
        <time>2024-01-30T21:57:53Z</time>
      </trkpt>
      <trkpt lat="44.22089" lon="6.0015">
        <ele>813</ele>
        <time>2024-01-30T21:58:10Z</time>
      </trkpt>
      <trkpt lat="44.22098" lon="6.00144">
        <ele>812</ele>
        <time>2024-01-30T21:58:14Z</time>
      </trkpt>
      <trkpt lat="44.22141" lon="6.00111">
        <ele>814</ele>
        <time>2024-01-30T21:58:35Z</time>
      </trkpt>
      <trkpt lat="44.22156" lon="6.00098">
        <ele>814</ele>
        <time>2024-01-30T21:58:44Z</time>
      </trkpt>
      <trkpt lat="44.22181" lon="6.00092">
        <ele>817</ele>
        <time>2024-01-30T21:58:57Z</time>
      </trkpt>
      <trkpt lat="44.22188" lon="6.00096">
        <ele>818</ele>
        <time>2024-01-30T21:59:02Z</time>
      </trkpt>
      <trkpt lat="44.22214" lon="6.00125">
        <ele>822</ele>
        <time>2024-01-30T21:59:22Z</time>
      </trkpt>
      <trkpt lat="44.22218" lon="6.00141">
        <ele>823</ele>
        <time>2024-01-30T21:59:31Z</time>
      </trkpt>
      <trkpt lat="44.22213" lon="6.00158">
        <ele>825</ele>
        <time>2024-01-30T21:59:41Z</time>
      </trkpt>
      <trkpt lat="44.22201" lon="6.00181">
        <ele>829</ele>
        <time>2024-01-30T21:59:56Z</time>
      </trkpt>
      <trkpt lat="44.22187" lon="6.00224">
        <ele>834</ele>
        <time>2024-01-30T22:00:23Z</time>
      </trkpt>
      <trkpt lat="44.22178" lon="6.0024">
        <ele>835</ele>
        <time>2024-01-30T22:00:35Z</time>
      </trkpt>
      <trkpt lat="44.22175" lon="6.00245">
        <ele>835</ele>
        <time>2024-01-30T22:00:39Z</time>
      </trkpt>
      <trkpt lat="44.22163" lon="6.00292">
        <ele>839</ele>
        <time>2024-01-30T22:01:09Z</time>
      </trkpt>
      <trkpt lat="44.22161" lon="6.00313">
        <ele>841</ele>
        <time>2024-01-30T22:01:21Z</time>
      </trkpt>
      <trkpt lat="44.22161" lon="6.00323">
        <ele>842</ele>
        <time>2024-01-30T22:01:27Z</time>
      </trkpt>
      <trkpt lat="44.22154" lon="6.00355">
        <ele>842</ele>
        <time>2024-01-30T22:01:44Z</time>
      </trkpt>
      <trkpt lat="44.22151" lon="6.00372">
        <ele>843</ele>
        <time>2024-01-30T22:01:52Z</time>
      </trkpt>
      <trkpt lat="44.22148" lon="6.004">
        <ele>846</ele>
        <time>2024-01-30T22:02:05Z</time>
      </trkpt>
      <trkpt lat="44.22105" lon="6.00475">
        <ele>852</ele>
        <time>2024-01-30T22:02:39Z</time>
      </trkpt>
      <trkpt lat="44.22096" lon="6.00508">
        <ele>857</ele>
        <time>2024-01-30T22:02:51Z</time>
      </trkpt>
      <trkpt lat="44.22089" lon="6.00525">
        <ele>859</ele>
        <time>2024-01-30T22:02:57Z</time>
      </trkpt>
      <trkpt lat="44.22082" lon="6.00533">
        <ele>860</ele>
        <time>2024-01-30T22:03:00Z</time>
      </trkpt>
      <trkpt lat="44.22066" lon="6.0054">
        <ele>859</ele>
        <time>2024-01-30T22:03:07Z</time>
      </trkpt>
      <trkpt lat="44.22019" lon="6.00552">
        <ele>855</ele>
        <time>2024-01-30T22:03:24Z</time>
      </trkpt>
      <trkpt lat="44.21998" lon="6.0056">
        <ele>853</ele>
        <time>2024-01-30T22:03:32Z</time>
      </trkpt>
      <trkpt lat="44.21994" lon="6.00566">
        <ele>854</ele>
        <time>2024-01-30T22:03:35Z</time>
      </trkpt>
      <trkpt lat="44.21996" lon="6.00578">
        <ele>856</ele>
        <time>2024-01-30T22:03:38Z</time>
      </trkpt>
      <trkpt lat="44.22002" lon="6.00585">
        <ele>860</ele>
        <time>2024-01-30T22:03:40Z</time>
      </trkpt>
      <trkpt lat="44.22021" lon="6.00596">
        <ele>865</ele>
        <time>2024-01-30T22:03:48Z</time>
      </trkpt>
      <trkpt lat="44.22038" lon="6.00601">
        <ele>867</ele>
        <time>2024-01-30T22:03:54Z</time>
      </trkpt>
      <trkpt lat="44.22044" lon="6.00607">
        <ele>867</ele>
        <time>2024-01-30T22:03:57Z</time>
      </trkpt>
      <trkpt lat="44.22044" lon="6.00616">
        <ele>869</ele>
        <time>2024-01-30T22:04:00Z</time>
      </trkpt>
      <trkpt lat="44.22034" lon="6.00635">
        <ele>870</ele>
        <time>2024-01-30T22:04:06Z</time>
      </trkpt>
      <trkpt lat="44.22018" lon="6.00676">
        <ele>872</ele>
        <time>2024-01-30T22:04:19Z</time>
      </trkpt>
      <trkpt lat="44.21998" lon="6.00707">
        <ele>873</ele>
        <time>2024-01-30T22:04:31Z</time>
      </trkpt>
      <trkpt lat="44.21963" lon="6.0077">
        <ele>877</ele>
        <time>2024-01-30T22:04:54Z</time>
      </trkpt>
      <trkpt lat="44.21936" lon="6.00787">
        <ele>877</ele>
        <time>2024-01-30T22:05:05Z</time>
      </trkpt>
      <trkpt lat="44.21916" lon="6.0083">
        <ele>882</ele>
        <time>2024-01-30T22:05:19Z</time>
      </trkpt>
      <trkpt lat="44.2189" lon="6.0085">
        <ele>883</ele>
        <time>2024-01-30T22:05:31Z</time>
      </trkpt>
      <trkpt lat="44.2187" lon="6.0086">
        <ele>884</ele>
        <time>2024-01-30T22:05:39Z</time>
      </trkpt>
      <trkpt lat="44.21861" lon="6.00867">
        <ele>885</ele>
        <time>2024-01-30T22:05:42Z</time>
      </trkpt>
      <trkpt lat="44.2185" lon="6.00881">
        <ele>886</ele>
        <time>2024-01-30T22:05:47Z</time>
      </trkpt>
      <trkpt lat="44.2184" lon="6.009">
        <ele>888</ele>
        <time>2024-01-30T22:05:53Z</time>
      </trkpt>
      <trkpt lat="44.21832" lon="6.00922">
        <ele>890</ele>
        <time>2024-01-30T22:06:00Z</time>
      </trkpt>
      <trkpt lat="44.21828" lon="6.00949">
        <ele>892</ele>
        <time>2024-01-30T22:06:07Z</time>
      </trkpt>
      <trkpt lat="44.21826" lon="6.00965">
        <ele>893</ele>
        <time>2024-01-30T22:06:11Z</time>
      </trkpt>
      <trkpt lat="44.21829" lon="6.00994">
        <ele>895</ele>
        <time>2024-01-30T22:06:19Z</time>
      </trkpt>
      <trkpt lat="44.21829" lon="6.01005">
        <ele>895</ele>
        <time>2024-01-30T22:06:22Z</time>
      </trkpt>
      <trkpt lat="44.21823" lon="6.01012">
        <ele>895</ele>
        <time>2024-01-30T22:06:25Z</time>
      </trkpt>
      <trkpt lat="44.21813" lon="6.01017">
        <ele>896</ele>
        <time>2024-01-30T22:06:30Z</time>
      </trkpt>
      <trkpt lat="44.21807" lon="6.0102">
        <ele>895</ele>
        <time>2024-01-30T22:06:32Z</time>
      </trkpt>
      <trkpt lat="44.21788" lon="6.01033">
        <ele>895</ele>
        <time>2024-01-30T22:06:41Z</time>
      </trkpt>
      <trkpt lat="44.21774" lon="6.01055">
        <ele>896</ele>
        <time>2024-01-30T22:06:50Z</time>
      </trkpt>
      <trkpt lat="44.2177" lon="6.0107">
        <ele>897</ele>
        <time>2024-01-30T22:06:56Z</time>
      </trkpt>
      <trkpt lat="44.21764" lon="6.01145">
        <ele>903</ele>
        <time>2024-01-30T22:07:19Z</time>
      </trkpt>
      <trkpt lat="44.21759" lon="6.01176">
        <ele>906</ele>
        <time>2024-01-30T22:07:29Z</time>
      </trkpt>
      <trkpt lat="44.2174" lon="6.01228">
        <ele>911</ele>
        <time>2024-01-30T22:07:48Z</time>
      </trkpt>
      <trkpt lat="44.21723" lon="6.01291">
        <ele>915</ele>
        <time>2024-01-30T22:08:13Z</time>
      </trkpt>
      <trkpt lat="44.21724" lon="6.01297">
        <ele>916</ele>
        <time>2024-01-30T22:08:15Z</time>
      </trkpt>
      <trkpt lat="44.2173" lon="6.01301">
        <ele>918</ele>
        <time>2024-01-30T22:08:19Z</time>
      </trkpt>
      <trkpt lat="44.21749" lon="6.01282">
        <ele>919</ele>
        <time>2024-01-30T22:08:31Z</time>
      </trkpt>
      <trkpt lat="44.21767" lon="6.01274">
        <ele>919</ele>
        <time>2024-01-30T22:08:41Z</time>
      </trkpt>
      <trkpt lat="44.21775" lon="6.01273">
        <ele>920</ele>
        <time>2024-01-30T22:08:45Z</time>
      </trkpt>
      <trkpt lat="44.21781" lon="6.01277">
        <ele>920</ele>
        <time>2024-01-30T22:08:48Z</time>
      </trkpt>
      <trkpt lat="44.21783" lon="6.01285">
        <ele>922</ele>
        <time>2024-01-30T22:08:51Z</time>
      </trkpt>
      <trkpt lat="44.21775" lon="6.01304">
        <ele>925</ele>
        <time>2024-01-30T22:09:00Z</time>
      </trkpt>
      <trkpt lat="44.21774" lon="6.01316">
        <ele>926</ele>
        <time>2024-01-30T22:09:04Z</time>
      </trkpt>
      <trkpt lat="44.21778" lon="6.01335">
        <ele>928</ele>
        <time>2024-01-30T22:09:12Z</time>
      </trkpt>
      <trkpt lat="44.21781" lon="6.01349">
        <ele>929</ele>
        <time>2024-01-30T22:09:18Z</time>
      </trkpt>
      <trkpt lat="44.21781" lon="6.0137">
        <ele>929</ele>
        <time>2024-01-30T22:09:27Z</time>
      </trkpt>
      <trkpt lat="44.21788" lon="6.01404">
        <ele>932</ele>
        <time>2024-01-30T22:09:42Z</time>
      </trkpt>
      <trkpt lat="44.21794" lon="6.01407">
        <ele>933</ele>
        <time>2024-01-30T22:09:45Z</time>
      </trkpt>
      <trkpt lat="44.21797" lon="6.01399">
        <ele>933</ele>
        <time>2024-01-30T22:09:49Z</time>
      </trkpt>
      <trkpt lat="44.21799" lon="6.01374">
        <ele>932</ele>
        <time>2024-01-30T22:10:00Z</time>
      </trkpt>
      <trkpt lat="44.21807" lon="6.01355">
        <ele>933</ele>
        <time>2024-01-30T22:10:11Z</time>
      </trkpt>
      <trkpt lat="44.21816" lon="6.01349">
        <ele>933</ele>
        <time>2024-01-30T22:10:16Z</time>
      </trkpt>
      <trkpt lat="44.21822" lon="6.01349">
        <ele>933</ele>
        <time>2024-01-30T22:10:20Z</time>
      </trkpt>
      <trkpt lat="44.21831" lon="6.01356">
        <ele>935</ele>
        <time>2024-01-30T22:10:27Z</time>
      </trkpt>
      <trkpt lat="44.21845" lon="6.01449">
        <ele>943</ele>
        <time>2024-01-30T22:11:05Z</time>
      </trkpt>
      <trkpt lat="44.21847" lon="6.01477">
        <ele>946</ele>
        <time>2024-01-30T22:11:17Z</time>
      </trkpt>
      <trkpt lat="44.21863" lon="6.01527">
        <ele>951</ele>
        <time>2024-01-30T22:11:41Z</time>
      </trkpt>
      <trkpt lat="44.21864" lon="6.01541">
        <ele>953</ele>
        <time>2024-01-30T22:11:48Z</time>
      </trkpt>
      <trkpt lat="44.21857" lon="6.01557">
        <ele>955</ele>
        <time>2024-01-30T22:11:58Z</time>
      </trkpt>
      <trkpt lat="44.21845" lon="6.01569">
        <ele>955</ele>
        <time>2024-01-30T22:12:09Z</time>
      </trkpt>
      <trkpt lat="44.21839" lon="6.0158">
        <ele>956</ele>
        <time>2024-01-30T22:12:16Z</time>
      </trkpt>
      <trkpt lat="44.21832" lon="6.01605">
        <ele>958</ele>
        <time>2024-01-30T22:12:30Z</time>
      </trkpt>
      <trkpt lat="44.21818" lon="6.01693">
        <ele>963</ele>
        <time>2024-01-30T22:13:19Z</time>
      </trkpt>
      <trkpt lat="44.21817" lon="6.01736">
        <ele>965</ele>
        <time>2024-01-30T22:13:42Z</time>
      </trkpt>
      <trkpt lat="44.21813" lon="6.01755">
        <ele>966</ele>
        <time>2024-01-30T22:13:52Z</time>
      </trkpt>
      <trkpt lat="44.21812" lon="6.01775">
        <ele>967</ele>
        <time>2024-01-30T22:14:02Z</time>
      </trkpt>
      <trkpt lat="44.21816" lon="6.01806">
        <ele>968</ele>
        <time>2024-01-30T22:14:18Z</time>
      </trkpt>
      <trkpt lat="44.21815" lon="6.01809">
        <ele>968</ele>
        <time>2024-01-30T22:14:20Z</time>
      </trkpt>
      <trkpt lat="44.21809" lon="6.01812">
        <ele>969</ele>
        <time>2024-01-30T22:14:25Z</time>
      </trkpt>
      <trkpt lat="44.21719" lon="6.01817">
        <ele>979</ele>
        <time>2024-01-30T22:15:13Z</time>
      </trkpt>
      <trkpt lat="44.21696" lon="6.01813">
        <ele>982</ele>
        <time>2024-01-30T22:15:23Z</time>
      </trkpt>
      <trkpt lat="44.21678" lon="6.01801">
        <ele>982</ele>
        <time>2024-01-30T22:15:31Z</time>
      </trkpt>
      <trkpt lat="44.21659" lon="6.01779">
        <ele>980</ele>
        <time>2024-01-30T22:15:40Z</time>
      </trkpt>
      <trkpt lat="44.2162" lon="6.01762">
        <ele>984</ele>
        <time>2024-01-30T22:15:55Z</time>
      </trkpt>
      <trkpt lat="44.21608" lon="6.01767">
        <ele>985</ele>
        <time>2024-01-30T22:15:58Z</time>
      </trkpt>
      <trkpt lat="44.21603" lon="6.01786">
        <ele>988</ele>
        <time>2024-01-30T22:16:03Z</time>
      </trkpt>
      <trkpt lat="44.21595" lon="6.01844">
        <ele>992</ele>
        <time>2024-01-30T22:16:15Z</time>
      </trkpt>
      <trkpt lat="44.21592" lon="6.01871">
        <ele>993</ele>
        <time>2024-01-30T22:16:20Z</time>
      </trkpt>
      <trkpt lat="44.21594" lon="6.01882">
        <ele>995</ele>
        <time>2024-01-30T22:16:23Z</time>
      </trkpt>
      <trkpt lat="44.21601" lon="6.01883">
        <ele>996</ele>
        <time>2024-01-30T22:16:26Z</time>
      </trkpt>
      <trkpt lat="44.21609" lon="6.01875">
        <ele>997</ele>
        <time>2024-01-30T22:16:30Z</time>
      </trkpt>
      <trkpt lat="44.21619" lon="6.01857">
        <ele>997</ele>
        <time>2024-01-30T22:16:38Z</time>
      </trkpt>
      <trkpt lat="44.21626" lon="6.01857">
        <ele>999</ele>
        <time>2024-01-30T22:16:42Z</time>
      </trkpt>
      <trkpt lat="44.2163" lon="6.01863">
        <ele>1000</ele>
        <time>2024-01-30T22:16:45Z</time>
      </trkpt>
      <trkpt lat="44.21601" lon="6.01962">
        <ele>1004</ele>
        <time>2024-01-30T22:17:33Z</time>
      </trkpt>
      <trkpt lat="44.21595" lon="6.01985">
        <ele>1004</ele>
        <time>2024-01-30T22:17:43Z</time>
      </trkpt>
      <trkpt lat="44.21593" lon="6.02005">
        <ele>1004</ele>
        <time>2024-01-30T22:17:51Z</time>
      </trkpt>
      <trkpt lat="44.21595" lon="6.02017">
        <ele>1006</ele>
        <time>2024-01-30T22:17:56Z</time>
      </trkpt>
      <trkpt lat="44.21599" lon="6.0202">
        <ele>1007</ele>
        <time>2024-01-30T22:17:58Z</time>
      </trkpt>
      <trkpt lat="44.21604" lon="6.02018">
        <ele>1008</ele>
        <time>2024-01-30T22:18:01Z</time>
      </trkpt>
      <trkpt lat="44.21608" lon="6.02002">
        <ele>1008</ele>
        <time>2024-01-30T22:18:07Z</time>
      </trkpt>
      <trkpt lat="44.21615" lon="6.0199">
        <ele>1008</ele>
        <time>2024-01-30T22:18:13Z</time>
      </trkpt>
      <trkpt lat="44.21623" lon="6.01983">
        <ele>1009</ele>
        <time>2024-01-30T22:18:18Z</time>
      </trkpt>
      <trkpt lat="44.21632" lon="6.0198">
        <ele>1010</ele>
        <time>2024-01-30T22:18:23Z</time>
      </trkpt>
      <trkpt lat="44.21641" lon="6.01982">
        <ele>1011</ele>
        <time>2024-01-30T22:18:28Z</time>
      </trkpt>
      <trkpt lat="44.21643" lon="6.0199">
        <ele>1011</ele>
        <time>2024-01-30T22:18:31Z</time>
      </trkpt>
      <trkpt lat="44.21643" lon="6.02025">
        <ele>1015</ele>
        <time>2024-01-30T22:18:45Z</time>
      </trkpt>
      <trkpt lat="44.21646" lon="6.02064">
        <ele>1019</ele>
        <time>2024-01-30T22:19:01Z</time>
      </trkpt>
      <trkpt lat="44.21646" lon="6.02092">
        <ele>1021</ele>
        <time>2024-01-30T22:19:13Z</time>
      </trkpt>
      <trkpt lat="44.21643" lon="6.02106">
        <ele>1022</ele>
        <time>2024-01-30T22:19:20Z</time>
      </trkpt>
      <trkpt lat="44.21631" lon="6.0217">
        <ele>1026</ele>
        <time>2024-01-30T22:19:48Z</time>
      </trkpt>
      <trkpt lat="44.21632" lon="6.02205">
        <ele>1029</ele>
        <time>2024-01-30T22:20:03Z</time>
      </trkpt>
      <trkpt lat="44.21645" lon="6.02296">
        <ele>1037</ele>
        <time>2024-01-30T22:20:44Z</time>
      </trkpt>
      <trkpt lat="44.21652" lon="6.02377">
        <ele>1044</ele>
        <time>2024-01-30T22:21:21Z</time>
      </trkpt>
      <trkpt lat="44.2165" lon="6.02385">
        <ele>1045</ele>
        <time>2024-01-30T22:21:25Z</time>
      </trkpt>
      <trkpt lat="44.21662" lon="6.02448">
        <ele>1047</ele>
        <time>2024-01-30T22:21:55Z</time>
      </trkpt>
      <trkpt lat="44.21665" lon="6.0249">
        <ele>1048</ele>
        <time>2024-01-30T22:22:14Z</time>
      </trkpt>
      <trkpt lat="44.21673" lon="6.02523">
        <ele>1050</ele>
        <time>2024-01-30T22:22:30Z</time>
      </trkpt>
      <trkpt lat="44.21692" lon="6.02557">
        <ele>1055</ele>
        <time>2024-01-30T22:22:50Z</time>
      </trkpt>
      <trkpt lat="44.21693" lon="6.02566">
        <ele>1057</ele>
        <time>2024-01-30T22:22:54Z</time>
      </trkpt>
      <trkpt lat="44.21675" lon="6.02609">
        <ele>1061</ele>
        <time>2024-01-30T22:23:16Z</time>
      </trkpt>
      <trkpt lat="44.21672" lon="6.02635">
        <ele>1063</ele>
        <time>2024-01-30T22:23:27Z</time>
      </trkpt>
      <trkpt lat="44.2168" lon="6.02671">
        <ele>1065</ele>
        <time>2024-01-30T22:23:41Z</time>
      </trkpt>
      <trkpt lat="44.21693" lon="6.02708">
        <ele>1068</ele>
        <time>2024-01-30T22:23:56Z</time>
      </trkpt>
      <trkpt lat="44.21697" lon="6.02729">
        <ele>1070</ele>
        <time>2024-01-30T22:24:05Z</time>
      </trkpt>
      <trkpt lat="44.21699" lon="6.0277">
        <ele>1071</ele>
        <time>2024-01-30T22:24:20Z</time>
      </trkpt>
      <trkpt lat="44.21704" lon="6.02776">
        <ele>1072</ele>
        <time>2024-01-30T22:24:23Z</time>
      </trkpt>
      <trkpt lat="44.21709" lon="6.02768">
        <ele>1073</ele>
        <time>2024-01-30T22:24:27Z</time>
      </trkpt>
      <trkpt lat="44.21713" lon="6.02748">
        <ele>1074</ele>
        <time>2024-01-30T22:24:35Z</time>
      </trkpt>
      <trkpt lat="44.21722" lon="6.02722">
        <ele>1075</ele>
        <time>2024-01-30T22:24:47Z</time>
      </trkpt>
      <trkpt lat="44.21731" lon="6.02706">
        <ele>1076</ele>
        <time>2024-01-30T22:24:54Z</time>
      </trkpt>
      <trkpt lat="44.21739" lon="6.027">
        <ele>1076</ele>
        <time>2024-01-30T22:25:00Z</time>
      </trkpt>
      <trkpt lat="44.21749" lon="6.027">
        <ele>1077</ele>
        <time>2024-01-30T22:25:06Z</time>
      </trkpt>
      <trkpt lat="44.21756" lon="6.02704">
        <ele>1077</ele>
        <time>2024-01-30T22:25:10Z</time>
      </trkpt>
      <trkpt lat="44.21764" lon="6.02714">
        <ele>1078</ele>
        <time>2024-01-30T22:25:16Z</time>
      </trkpt>
      <trkpt lat="44.21782" lon="6.02756">
        <ele>1082</ele>
        <time>2024-01-30T22:25:37Z</time>
      </trkpt>
      <trkpt lat="44.21785" lon="6.02786">
        <ele>1085</ele>
        <time>2024-01-30T22:25:51Z</time>
      </trkpt>
      <trkpt lat="44.21782" lon="6.02802">
        <ele>1086</ele>
        <time>2024-01-30T22:25:57Z</time>
      </trkpt>
      <trkpt lat="44.21788" lon="6.02922">
        <ele>1095</ele>
        <time>2024-01-30T22:26:47Z</time>
      </trkpt>
      <trkpt lat="44.21782" lon="6.0294">
        <ele>1096</ele>
        <time>2024-01-30T22:26:55Z</time>
      </trkpt>
      <trkpt lat="44.21772" lon="6.02953">
        <ele>1097</ele>
        <time>2024-01-30T22:27:03Z</time>
      </trkpt>
      <trkpt lat="44.21759" lon="6.02963">
        <ele>1096</ele>
        <time>2024-01-30T22:27:10Z</time>
      </trkpt>
      <trkpt lat="44.2176" lon="6.02972">
        <ele>1097</ele>
        <time>2024-01-30T22:27:14Z</time>
      </trkpt>
      <trkpt lat="44.21765" lon="6.02975">
        <ele>1099</ele>
        <time>2024-01-30T22:27:17Z</time>
      </trkpt>
      <trkpt lat="44.21812" lon="6.0296">
        <ele>1102</ele>
        <time>2024-01-30T22:27:36Z</time>
      </trkpt>
      <trkpt lat="44.21815" lon="6.02965">
        <ele>1103</ele>
        <time>2024-01-30T22:27:38Z</time>
      </trkpt>
      <trkpt lat="44.21814" lon="6.02973">
        <ele>1104</ele>
        <time>2024-01-30T22:27:40Z</time>
      </trkpt>
      <trkpt lat="44.21799" lon="6.02999">
        <ele>1106</ele>
        <time>2024-01-30T22:27:47Z</time>
      </trkpt>
      <trkpt lat="44.21785" lon="6.03014">
        <ele>1106</ele>
        <time>2024-01-30T22:27:52Z</time>
      </trkpt>
      <trkpt lat="44.21778" lon="6.03032">
        <ele>1107</ele>
        <time>2024-01-30T22:27:54Z</time>
      </trkpt>
      <trkpt lat="44.21776" lon="6.03062">
        <ele>1108</ele>
        <time>2024-01-30T22:27:58Z</time>
      </trkpt>
      <trkpt lat="44.21781" lon="6.03073">
        <ele>1108</ele>
        <time>2024-01-30T22:27:59Z</time>
      </trkpt>
      <trkpt lat="44.21792" lon="6.03085">
        <ele>1108</ele>
        <time>2024-01-30T22:28:01Z</time>
      </trkpt>
      <trkpt lat="44.21811" lon="6.03128">
        <ele>1105</ele>
        <time>2024-01-30T22:28:06Z</time>
      </trkpt>
      <trkpt lat="44.2182" lon="6.03137">
        <ele>1105</ele>
        <time>2024-01-30T22:28:07Z</time>
      </trkpt>
      <trkpt lat="44.21847" lon="6.03154">
        <ele>1105</ele>
        <time>2024-01-30T22:28:11Z</time>
      </trkpt>
      <trkpt lat="44.21852" lon="6.03167">
        <ele>1105</ele>
        <time>2024-01-30T22:28:12Z</time>
      </trkpt>
      <trkpt lat="44.21856" lon="6.03196">
        <ele>1104</ele>
        <time>2024-01-30T22:28:15Z</time>
      </trkpt>
      <trkpt lat="44.21879" lon="6.0326">
        <ele>1102</ele>
        <time>2024-01-30T22:28:21Z</time>
      </trkpt>
      <trkpt lat="44.21889" lon="6.03371">
        <ele>1098</ele>
        <time>2024-01-30T22:28:31Z</time>
      </trkpt>
      <trkpt lat="44.21894" lon="6.03504">
        <ele>1095</ele>
        <time>2024-01-30T22:28:42Z</time>
      </trkpt>
      <trkpt lat="44.21891" lon="6.03522">
        <ele>1094</ele>
        <time>2024-01-30T22:28:44Z</time>
      </trkpt>
      <trkpt lat="44.21864" lon="6.03599">
        <ele>1090</ele>
        <time>2024-01-30T22:28:51Z</time>
      </trkpt>
      <trkpt lat="44.21858" lon="6.03614">
        <ele>1089</ele>
        <time>2024-01-30T22:28:52Z</time>
      </trkpt>
      <trkpt lat="44.21847" lon="6.03705">
        <ele>1084</ele>
        <time>2024-01-30T22:29:00Z</time>
      </trkpt>
      <trkpt lat="44.21841" lon="6.03722">
        <ele>1083</ele>
        <time>2024-01-30T22:29:01Z</time>
      </trkpt>
      <trkpt lat="44.21825" lon="6.03752">
        <ele>1079</ele>
        <time>2024-01-30T22:29:04Z</time>
      </trkpt>
      <trkpt lat="44.21814" lon="6.03773">
        <ele>1076</ele>
        <time>2024-01-30T22:29:07Z</time>
      </trkpt>
      <trkpt lat="44.21813" lon="6.03788">
        <ele>1075</ele>
        <time>2024-01-30T22:29:08Z</time>
      </trkpt>
      <trkpt lat="44.21816" lon="6.03803">
        <ele>1074</ele>
        <time>2024-01-30T22:29:09Z</time>
      </trkpt>
      <trkpt lat="44.21834" lon="6.03842">
        <ele>1071</ele>
        <time>2024-01-30T22:29:13Z</time>
      </trkpt>
      <trkpt lat="44.2186" lon="6.0387">
        <ele>1069</ele>
        <time>2024-01-30T22:29:17Z</time>
      </trkpt>
      <trkpt lat="44.21867" lon="6.03885">
        <ele>1066</ele>
        <time>2024-01-30T22:29:19Z</time>
      </trkpt>
      <trkpt lat="44.21875" lon="6.03942">
        <ele>1059</ele>
        <time>2024-01-30T22:29:24Z</time>
      </trkpt>
      <trkpt lat="44.21881" lon="6.03961">
        <ele>1058</ele>
        <time>2024-01-30T22:29:26Z</time>
      </trkpt>
      <trkpt lat="44.21876" lon="6.03991">
        <ele>1056</ele>
        <time>2024-01-30T22:29:29Z</time>
      </trkpt>
      <trkpt lat="44.21878" lon="6.04005">
        <ele>1056</ele>
        <time>2024-01-30T22:29:30Z</time>
      </trkpt>
      <trkpt lat="44.2189" lon="6.04033">
        <ele>1056</ele>
        <time>2024-01-30T22:29:33Z</time>
      </trkpt>
      <trkpt lat="44.21893" lon="6.04074">
        <ele>1054</ele>
        <time>2024-01-30T22:29:37Z</time>
      </trkpt>
      <trkpt lat="44.21906" lon="6.04088">
        <ele>1054</ele>
        <time>2024-01-30T22:29:40Z</time>
      </trkpt>
      <trkpt lat="44.21952" lon="6.04114">
        <ele>1054</ele>
        <time>2024-01-30T22:29:47Z</time>
      </trkpt>
      <trkpt lat="44.21957" lon="6.0412">
        <ele>1053</ele>
        <time>2024-01-30T22:29:48Z</time>
      </trkpt>
      <trkpt lat="44.21962" lon="6.04131">
        <ele>1053</ele>
        <time>2024-01-30T22:29:49Z</time>
      </trkpt>
      <trkpt lat="44.21962" lon="6.04161">
        <ele>1053</ele>
        <time>2024-01-30T22:29:52Z</time>
      </trkpt>
      <trkpt lat="44.21976" lon="6.04213">
        <ele>1052</ele>
        <time>2024-01-30T22:30:05Z</time>
      </trkpt>
      <trkpt lat="44.21994" lon="6.04243">
        <ele>1053</ele>
        <time>2024-01-30T22:30:14Z</time>
      </trkpt>
      <trkpt lat="44.22001" lon="6.04259">
        <ele>1053</ele>
        <time>2024-01-30T22:30:19Z</time>
      </trkpt>
      <trkpt lat="44.22005" lon="6.04301">
        <ele>1054</ele>
        <time>2024-01-30T22:30:27Z</time>
      </trkpt>
      <trkpt lat="44.22014" lon="6.04323">
        <ele>1054</ele>
        <time>2024-01-30T22:30:33Z</time>
      </trkpt>
      <trkpt lat="44.22003" lon="6.04394">
        <ele>1052</ele>
        <time>2024-01-30T22:30:47Z</time>
      </trkpt>
      <trkpt lat="44.22" lon="6.04435">
        <ele>1053</ele>
        <time>2024-01-30T22:30:54Z</time>
      </trkpt>
      <trkpt lat="44.21979" lon="6.0449">
        <ele>1054</ele>
        <time>2024-01-30T22:31:06Z</time>
      </trkpt>
      <trkpt lat="44.21967" lon="6.0451">
        <ele>1054</ele>
        <time>2024-01-30T22:31:12Z</time>
      </trkpt>
      <trkpt lat="44.21957" lon="6.0452">
        <ele>1054</ele>
        <time>2024-01-30T22:31:15Z</time>
      </trkpt>
      <trkpt lat="44.21927" lon="6.04587">
        <ele>1055</ele>
        <time>2024-01-30T22:31:33Z</time>
      </trkpt>
      <trkpt lat="44.21926" lon="6.04598">
        <ele>1056</ele>
        <time>2024-01-30T22:31:35Z</time>
      </trkpt>
      <trkpt lat="44.21926" lon="6.0462">
        <ele>1056</ele>
        <time>2024-01-30T22:31:38Z</time>
      </trkpt>
      <trkpt lat="44.21928" lon="6.04633">
        <ele>1055</ele>
        <time>2024-01-30T22:31:41Z</time>
      </trkpt>
      <trkpt lat="44.21933" lon="6.04641">
        <ele>1056</ele>
        <time>2024-01-30T22:31:42Z</time>
      </trkpt>
      <trkpt lat="44.21946" lon="6.04642">
        <ele>1057</ele>
        <time>2024-01-30T22:31:45Z</time>
      </trkpt>
      <trkpt lat="44.21968" lon="6.04633">
        <ele>1059</ele>
        <time>2024-01-30T22:31:50Z</time>
      </trkpt>
      <trkpt lat="44.21982" lon="6.04636">
        <ele>1060</ele>
        <time>2024-01-30T22:31:53Z</time>
      </trkpt>
      <trkpt lat="44.21998" lon="6.04647">
        <ele>1059</ele>
        <time>2024-01-30T22:31:58Z</time>
      </trkpt>
      <trkpt lat="44.2202" lon="6.04689">
        <ele>1060</ele>
        <time>2024-01-30T22:32:08Z</time>
      </trkpt>
      <trkpt lat="44.22032" lon="6.04724">
        <ele>1062</ele>
        <time>2024-01-30T22:32:16Z</time>
      </trkpt>
      <trkpt lat="44.221" lon="6.04884">
        <ele>1065</ele>
        <time>2024-01-30T22:32:45Z</time>
      </trkpt>
      <trkpt lat="44.22111" lon="6.04917">
        <ele>1066</ele>
        <time>2024-01-30T22:32:50Z</time>
      </trkpt>
      <trkpt lat="44.22119" lon="6.04966">
        <ele>1067</ele>
        <time>2024-01-30T22:32:56Z</time>
      </trkpt>
      <trkpt lat="44.22124" lon="6.04981">
        <ele>1066</ele>
        <time>2024-01-30T22:32:59Z</time>
      </trkpt>
      <trkpt lat="44.22132" lon="6.0499">
        <ele>1066</ele>
        <time>2024-01-30T22:33:01Z</time>
      </trkpt>
      <trkpt lat="44.22141" lon="6.04993">
        <ele>1065</ele>
        <time>2024-01-30T22:33:04Z</time>
      </trkpt>
      <trkpt lat="44.22171" lon="6.04994">
        <ele>1066</ele>
        <time>2024-01-30T22:33:12Z</time>
      </trkpt>
      <trkpt lat="44.22181" lon="6.05004">
        <ele>1066</ele>
        <time>2024-01-30T22:33:15Z</time>
      </trkpt>
      <trkpt lat="44.22189" lon="6.05042">
        <ele>1067</ele>
        <time>2024-01-30T22:33:25Z</time>
      </trkpt>
      <trkpt lat="44.22204" lon="6.0507">
        <ele>1067</ele>
        <time>2024-01-30T22:33:34Z</time>
      </trkpt>
      <trkpt lat="44.22219" lon="6.05086">
        <ele>1067</ele>
        <time>2024-01-30T22:33:41Z</time>
      </trkpt>
      <trkpt lat="44.22309" lon="6.05125">
        <ele>1072</ele>
        <time>2024-01-30T22:34:22Z</time>
      </trkpt>
      <trkpt lat="44.22321" lon="6.05136">
        <ele>1072</ele>
        <time>2024-01-30T22:34:27Z</time>
      </trkpt>
      <trkpt lat="44.22335" lon="6.05156">
        <ele>1072</ele>
        <time>2024-01-30T22:34:34Z</time>
      </trkpt>
      <trkpt lat="44.22345" lon="6.0516">
        <ele>1071</ele>
        <time>2024-01-30T22:34:37Z</time>
      </trkpt>
      <trkpt lat="44.22355" lon="6.05156">
        <ele>1071</ele>
        <time>2024-01-30T22:34:40Z</time>
      </trkpt>
      <trkpt lat="44.22388" lon="6.05117">
        <ele>1069</ele>
        <time>2024-01-30T22:34:50Z</time>
      </trkpt>
      <trkpt lat="44.22398" lon="6.05111">
        <ele>1068</ele>
        <time>2024-01-30T22:34:52Z</time>
      </trkpt>
      <trkpt lat="44.22411" lon="6.05118">
        <ele>1069</ele>
        <time>2024-01-30T22:34:54Z</time>
      </trkpt>
      <trkpt lat="44.22414" lon="6.0517">
        <ele>1065</ele>
        <time>2024-01-30T22:35:00Z</time>
      </trkpt>
      <trkpt lat="44.2242" lon="6.05191">
        <ele>1065</ele>
        <time>2024-01-30T22:35:02Z</time>
      </trkpt>
      <trkpt lat="44.22469" lon="6.05272">
        <ele>1062</ele>
        <time>2024-01-30T22:35:12Z</time>
      </trkpt>
      <trkpt lat="44.22479" lon="6.05277">
        <ele>1062</ele>
        <time>2024-01-30T22:35:14Z</time>
      </trkpt>
      <trkpt lat="44.22522" lon="6.05273">
        <ele>1062</ele>
        <time>2024-01-30T22:35:19Z</time>
      </trkpt>
      <trkpt lat="44.2253" lon="6.05276">
        <ele>1062</ele>
        <time>2024-01-30T22:35:20Z</time>
      </trkpt>
      <trkpt lat="44.22537" lon="6.05288">
        <ele>1061</ele>
        <time>2024-01-30T22:35:21Z</time>
      </trkpt>
      <trkpt lat="44.22544" lon="6.05336">
        <ele>1057</ele>
        <time>2024-01-30T22:35:26Z</time>
      </trkpt>
      <trkpt lat="44.22555" lon="6.05368">
        <ele>1055</ele>
        <time>2024-01-30T22:35:29Z</time>
      </trkpt>
      <trkpt lat="44.2259" lon="6.05393">
        <ele>1053</ele>
        <time>2024-01-30T22:35:34Z</time>
      </trkpt>
      <trkpt lat="44.22596" lon="6.05404">
        <ele>1053</ele>
        <time>2024-01-30T22:35:35Z</time>
      </trkpt>
      <trkpt lat="44.22588" lon="6.05446">
        <ele>1049</ele>
        <time>2024-01-30T22:35:39Z</time>
      </trkpt>
      <trkpt lat="44.22593" lon="6.05463">
        <ele>1048</ele>
        <time>2024-01-30T22:35:41Z</time>
      </trkpt>
      <trkpt lat="44.22609" lon="6.05479">
        <ele>1048</ele>
        <time>2024-01-30T22:35:43Z</time>
      </trkpt>
      <trkpt lat="44.22617" lon="6.05491">
        <ele>1048</ele>
        <time>2024-01-30T22:35:45Z</time>
      </trkpt>
      <trkpt lat="44.22624" lon="6.05515">
        <ele>1048</ele>
        <time>2024-01-30T22:35:47Z</time>
      </trkpt>
      <trkpt lat="44.2263" lon="6.05542">
        <ele>1048</ele>
        <time>2024-01-30T22:35:50Z</time>
      </trkpt>
      <trkpt lat="44.22654" lon="6.05639">
        <ele>1047</ele>
        <time>2024-01-30T22:36:00Z</time>
      </trkpt>
      <trkpt lat="44.22663" lon="6.05664">
        <ele>1046</ele>
        <time>2024-01-30T22:36:03Z</time>
      </trkpt>
      <trkpt lat="44.22672" lon="6.0568">
        <ele>1046</ele>
        <time>2024-01-30T22:36:05Z</time>
      </trkpt>
      <trkpt lat="44.22698" lon="6.05699">
        <ele>1046</ele>
        <time>2024-01-30T22:36:10Z</time>
      </trkpt>
      <trkpt lat="44.2272" lon="6.05722">
        <ele>1048</ele>
        <time>2024-01-30T22:36:15Z</time>
      </trkpt>
      <trkpt lat="44.22736" lon="6.05726">
        <ele>1049</ele>
        <time>2024-01-30T22:36:19Z</time>
      </trkpt>
      <trkpt lat="44.22764" lon="6.0572">
        <ele>1051</ele>
        <time>2024-01-30T22:36:27Z</time>
      </trkpt>
      <trkpt lat="44.22786" lon="6.05695">
        <ele>1053</ele>
        <time>2024-01-30T22:36:37Z</time>
      </trkpt>
      <trkpt lat="44.22793" lon="6.05695">
        <ele>1053</ele>
        <time>2024-01-30T22:36:40Z</time>
      </trkpt>
      <trkpt lat="44.22802" lon="6.05701">
        <ele>1053</ele>
        <time>2024-01-30T22:36:44Z</time>
      </trkpt>
      <trkpt lat="44.22821" lon="6.05736">
        <ele>1054</ele>
        <time>2024-01-30T22:36:59Z</time>
      </trkpt>
      <trkpt lat="44.22835" lon="6.05749">
        <ele>1056</ele>
        <time>2024-01-30T22:37:08Z</time>
      </trkpt>
      <trkpt lat="44.22863" lon="6.05757">
        <ele>1058</ele>
        <time>2024-01-30T22:37:25Z</time>
      </trkpt>
      <trkpt lat="44.22875" lon="6.05765">
        <ele>1059</ele>
        <time>2024-01-30T22:37:32Z</time>
      </trkpt>
      <trkpt lat="44.229" lon="6.05804">
        <ele>1062</ele>
        <time>2024-01-30T22:37:55Z</time>
      </trkpt>
      <trkpt lat="44.22913" lon="6.05813">
        <ele>1063</ele>
        <time>2024-01-30T22:38:03Z</time>
      </trkpt>
      <trkpt lat="44.22941" lon="6.05816">
        <ele>1065</ele>
        <time>2024-01-30T22:38:20Z</time>
      </trkpt>
      <trkpt lat="44.22987" lon="6.05828">
        <ele>1067</ele>
        <time>2024-01-30T22:38:49Z</time>
      </trkpt>
      <trkpt lat="44.23037" lon="6.05833">
        <ele>1070</ele>
        <time>2024-01-30T22:39:22Z</time>
      </trkpt>
      <trkpt lat="44.23059" lon="6.05841">
        <ele>1071</ele>
        <time>2024-01-30T22:39:35Z</time>
      </trkpt>
      <trkpt lat="44.23097" lon="6.05874">
        <ele>1075</ele>
        <time>2024-01-30T22:40:02Z</time>
      </trkpt>
      <trkpt lat="44.23181" lon="6.0591">
        <ele>1077</ele>
        <time>2024-01-30T22:40:44Z</time>
      </trkpt>
      <trkpt lat="44.23192" lon="6.05911">
        <ele>1077</ele>
        <time>2024-01-30T22:40:48Z</time>
      </trkpt>
      <trkpt lat="44.23215" lon="6.05904">
        <ele>1077</ele>
        <time>2024-01-30T22:40:57Z</time>
      </trkpt>
      <trkpt lat="44.23247" lon="6.05916">
        <ele>1076</ele>
        <time>2024-01-30T22:41:09Z</time>
      </trkpt>
      <trkpt lat="44.23255" lon="6.05915">
        <ele>1076</ele>
        <time>2024-01-30T22:41:11Z</time>
      </trkpt>
      <trkpt lat="44.23282" lon="6.05898">
        <ele>1077</ele>
        <time>2024-01-30T22:41:20Z</time>
      </trkpt>
      <trkpt lat="44.23322" lon="6.05896">
        <ele>1080</ele>
        <time>2024-01-30T22:41:30Z</time>
      </trkpt>
      <trkpt lat="44.23428" lon="6.05893">
        <ele>1084</ele>
        <time>2024-01-30T22:41:56Z</time>
      </trkpt>
      <trkpt lat="44.23453" lon="6.05886">
        <ele>1085</ele>
        <time>2024-01-30T22:42:03Z</time>
      </trkpt>
      <trkpt lat="44.23563" lon="6.05845">
        <ele>1090</ele>
        <time>2024-01-30T22:42:44Z</time>
      </trkpt>
      <trkpt lat="44.23611" lon="6.05832">
        <ele>1093</ele>
        <time>2024-01-30T22:43:07Z</time>
      </trkpt>
      <trkpt lat="44.23695" lon="6.05783">
        <ele>1099</ele>
        <time>2024-01-30T22:43:54Z</time>
      </trkpt>
      <trkpt lat="44.23723" lon="6.0577">
        <ele>1101</ele>
        <time>2024-01-30T22:44:09Z</time>
      </trkpt>
      <trkpt lat="44.23757" lon="6.05761">
        <ele>1103</ele>
      </trkpt>
      <trkpt lat="44.23786" lon="6.05742">
        <ele>1105</ele>
        <time>2024-01-30T22:44:13Z</time>
      </trkpt>
      <trkpt lat="44.23787" lon="6.05706">
        <ele>1107</ele>
        <time>2024-01-30T22:44:29Z</time>
      </trkpt>
      <trkpt lat="44.238" lon="6.05693">
        <ele>1107</ele>
        <time>2024-01-30T22:44:43Z</time>
      </trkpt>
      <trkpt lat="44.23851" lon="6.05629">
        <ele>1108</ele>
        <time>2024-01-30T22:44:48Z</time>
      </trkpt>
      <trkpt lat="44.23879" lon="6.05589">
        <ele>1109</ele>
        <time>2024-01-30T22:44:52Z</time>
      </trkpt>
      <trkpt lat="44.23909" lon="6.05501">
        <ele>1107</ele>
        <time>2024-01-30T22:45:21Z</time>
      </trkpt>
      <trkpt lat="44.23968" lon="6.05406">
        <ele>1105</ele>
        <time>2024-01-30T22:45:24Z</time>
      </trkpt>
      <trkpt lat="44.23979" lon="6.0538">
        <ele>1105</ele>
        <time>2024-01-30T22:45:28Z</time>
      </trkpt>
      <trkpt lat="44.24042" lon="6.05304">
        <ele>1104</ele>
        <time>2024-01-30T22:45:29Z</time>
      </trkpt>
      <trkpt lat="44.24057" lon="6.05266">
        <ele>1103</ele>
      </trkpt>
      <trkpt lat="44.24075" lon="6.05222">
        <ele>1102</ele>
      </trkpt>
      <trkpt lat="44.24092" lon="6.05214">
        <ele>1101</ele>
      </trkpt>
      <trkpt lat="44.2412" lon="6.05231">
        <ele>1099</ele>
      </trkpt>
      <trkpt lat="44.24239" lon="6.05312">
        <ele>1095</ele>
      </trkpt>
      <trkpt lat="44.24311" lon="6.05303">
        <ele>1093</ele>
      </trkpt>
      <trkpt lat="44.24366" lon="6.05288">
        <ele>1094</ele>
      </trkpt>
      <trkpt lat="44.24371" lon="6.05276">
        <ele>1095</ele>
      </trkpt>
      <trkpt lat="44.2444" lon="6.05267">
        <ele>1102</ele>
      </trkpt>
      <trkpt lat="44.24449" lon="6.05255">
        <ele>1103</ele>
      </trkpt>
      <trkpt lat="44.24451" lon="6.05227">
        <ele>1103</ele>
      </trkpt>
      <trkpt lat="44.24454" lon="6.05205">
        <ele>1104</ele>
      </trkpt>
      <trkpt lat="44.24483" lon="6.05182">
        <ele>1110</ele>
      </trkpt>
      <trkpt lat="44.24495" lon="6.05224">
        <ele>1111</ele>
      </trkpt>
      <trkpt lat="44.24513" lon="6.05279">
        <ele>1115</ele>
      </trkpt>
      <trkpt lat="44.24515" lon="6.05333">
        <ele>1119</ele>
      </trkpt>
      <trkpt lat="44.24497" lon="6.05389">
        <ele>1119</ele>
      </trkpt>
      <trkpt lat="44.24468" lon="6.05464">
        <ele>1118</ele>
      </trkpt>
      <trkpt lat="44.24468" lon="6.05566">
        <ele>1120</ele>
      </trkpt>
      <trkpt lat="44.24449" lon="6.05611">
        <ele>1118</ele>
      </trkpt>
      <trkpt lat="44.2442" lon="6.05694">
        <ele>1116</ele>
      </trkpt>
      <trkpt lat="44.24419" lon="6.05713">
        <ele>1117</ele>
      </trkpt>
      <trkpt lat="44.24399" lon="6.05724">
        <ele>1114</ele>
      </trkpt>
      <trkpt lat="44.24362" lon="6.05721">
        <ele>1111</ele>
      </trkpt>
      <trkpt lat="44.24334" lon="6.05703">
        <ele>1108</ele>
      </trkpt>
      <trkpt lat="44.24309" lon="6.05708">
        <ele>1107</ele>
      </trkpt>
      <trkpt lat="44.24279" lon="6.05723">
        <ele>1105</ele>
      </trkpt>
    </trkseg>
  </trk>
</gpx>